<?xml version="1.0" encoding="UTF-8" standalone="no" ?>
<gpx xmlns="http://www.topografix.com/GPX/1/1" xmlns:xsi="http://www.w3.org/2001/XMLSchema-instance" xsi:schemaLocation="http://www.topografix.com/GPX/1/1 http://www.topografix.com/GPX/1/1/gpx.xsd" version="1.1" creator="VisuGPX - https://www.visugpx.com">
  <metadata>
    <name>Ducambanderie au pas</name>
    <desc><![CDATA[mais quel pas !! elle \'est jamais allée aussi rapidement ! les terrains sont de nouveau beaux !]]></desc>
  </metadata>
  <trk>
    <name><![CDATA[Ducambanderie au pas]]></name>
    <trkseg>
      <trkpt lat="48.70756" lon="1.75372">
        <ele>172.60000610352</ele>
        <time>2012-07-25T08:00:32.000Z</time>
      </trkpt>
      <trkpt lat="48.7076" lon="1.75366">
        <ele>172.80000305176</ele>
        <time>2012-07-25T08:00:37.000Z</time>
      </trkpt>
      <trkpt lat="48.70762" lon="1.75363">
        <ele>172.80000305176</ele>
        <time>2012-07-25T08:00:39.000Z</time>
      </trkpt>
      <trkpt lat="48.70764" lon="1.75356">
        <ele>173</ele>
        <time>2012-07-25T08:00:43.000Z</time>
      </trkpt>
      <trkpt lat="48.70765" lon="1.75354">
        <ele>173</ele>
        <time>2012-07-25T08:00:45.000Z</time>
      </trkpt>
      <trkpt lat="48.70766" lon="1.75341">
        <ele>173.19999694824</ele>
        <time>2012-07-25T08:00:51.000Z</time>
      </trkpt>
      <trkpt lat="48.70769" lon="1.75327">
        <ele>173.19999694824</ele>
        <time>2012-07-25T08:00:59.000Z</time>
      </trkpt>
      <trkpt lat="48.70773" lon="1.75311">
        <ele>173.19999694824</ele>
        <time>2012-07-25T08:01:08.000Z</time>
      </trkpt>
      <trkpt lat="48.70778" lon="1.75301">
        <ele>173.39999389648</ele>
        <time>2012-07-25T08:01:14.000Z</time>
      </trkpt>
      <trkpt lat="48.70785" lon="1.75282">
        <ele>173.39999389648</ele>
        <time>2012-07-25T08:01:25.000Z</time>
      </trkpt>
      <trkpt lat="48.70789" lon="1.75271">
        <ele>173.39999389648</ele>
        <time>2012-07-25T08:01:34.000Z</time>
      </trkpt>
      <trkpt lat="48.70789" lon="1.75271">
        <ele>173.39999389648</ele>
        <time>2012-07-25T08:01:35.000Z</time>
      </trkpt>
      <trkpt lat="48.708" lon="1.75238">
        <ele>173.60000610352</ele>
        <time>2012-07-25T08:05:32.000Z</time>
      </trkpt>
      <trkpt lat="48.70803" lon="1.75232">
        <ele>173.60000610352</ele>
        <time>2012-07-25T08:05:35.000Z</time>
      </trkpt>
      <trkpt lat="48.70812" lon="1.75213">
        <ele>173.80000305176</ele>
        <time>2012-07-25T08:05:46.000Z</time>
      </trkpt>
      <trkpt lat="48.70819" lon="1.75198">
        <ele>173.80000305176</ele>
        <time>2012-07-25T08:05:55.000Z</time>
      </trkpt>
      <trkpt lat="48.70829" lon="1.75179">
        <ele>174</ele>
        <time>2012-07-25T08:06:07.000Z</time>
      </trkpt>
      <trkpt lat="48.70834" lon="1.75167">
        <ele>174</ele>
        <time>2012-07-25T08:06:14.000Z</time>
      </trkpt>
      <trkpt lat="48.7084" lon="1.75154">
        <ele>174</ele>
        <time>2012-07-25T08:06:22.000Z</time>
      </trkpt>
      <trkpt lat="48.70848" lon="1.75137">
        <ele>174.19999694824</ele>
        <time>2012-07-25T08:06:32.000Z</time>
      </trkpt>
      <trkpt lat="48.70854" lon="1.75123">
        <ele>174.19999694824</ele>
        <time>2012-07-25T08:06:40.000Z</time>
      </trkpt>
      <trkpt lat="48.7086" lon="1.75107">
        <ele>174</ele>
        <time>2012-07-25T08:06:49.000Z</time>
      </trkpt>
      <trkpt lat="48.70867" lon="1.7509">
        <ele>174</ele>
        <time>2012-07-25T08:06:59.000Z</time>
      </trkpt>
      <trkpt lat="48.70876" lon="1.75071">
        <ele>174.19999694824</ele>
        <time>2012-07-25T08:07:10.000Z</time>
      </trkpt>
      <trkpt lat="48.70886" lon="1.75051">
        <ele>174.39999389648</ele>
        <time>2012-07-25T08:07:22.000Z</time>
      </trkpt>
      <trkpt lat="48.70895" lon="1.75033">
        <ele>174.60000610352</ele>
        <time>2012-07-25T08:07:33.000Z</time>
      </trkpt>
      <trkpt lat="48.70902" lon="1.75016">
        <ele>174.80000305176</ele>
        <time>2012-07-25T08:07:43.000Z</time>
      </trkpt>
      <trkpt lat="48.70911" lon="1.74999">
        <ele>175</ele>
        <time>2012-07-25T08:07:54.000Z</time>
      </trkpt>
      <trkpt lat="48.70919" lon="1.74983">
        <ele>175</ele>
        <time>2012-07-25T08:08:04.000Z</time>
      </trkpt>
      <trkpt lat="48.70925" lon="1.7497">
        <ele>175.39999389648</ele>
        <time>2012-07-25T08:08:12.000Z</time>
      </trkpt>
      <trkpt lat="48.70931" lon="1.74959">
        <ele>175.60000610352</ele>
        <time>2012-07-25T08:08:20.000Z</time>
      </trkpt>
      <trkpt lat="48.70938" lon="1.74946">
        <ele>176</ele>
        <time>2012-07-25T08:08:28.000Z</time>
      </trkpt>
      <trkpt lat="48.70943" lon="1.74936">
        <ele>176.19999694824</ele>
        <time>2012-07-25T08:08:35.000Z</time>
      </trkpt>
      <trkpt lat="48.70951" lon="1.74923">
        <ele>176.60000610352</ele>
        <time>2012-07-25T08:08:44.000Z</time>
      </trkpt>
      <trkpt lat="48.70957" lon="1.74915">
        <ele>177</ele>
        <time>2012-07-25T08:08:51.000Z</time>
      </trkpt>
      <trkpt lat="48.70962" lon="1.74908">
        <ele>177.39999389648</ele>
        <time>2012-07-25T08:08:56.000Z</time>
      </trkpt>
      <trkpt lat="48.7097" lon="1.74897">
        <ele>177.80000305176</ele>
        <time>2012-07-25T08:09:05.000Z</time>
      </trkpt>
      <trkpt lat="48.70978" lon="1.74883">
        <ele>178.19999694824</ele>
        <time>2012-07-25T08:09:15.000Z</time>
      </trkpt>
      <trkpt lat="48.70987" lon="1.74872">
        <ele>178.60000610352</ele>
        <time>2012-07-25T08:09:24.000Z</time>
      </trkpt>
      <trkpt lat="48.70993" lon="1.74861">
        <ele>178.80000305176</ele>
        <time>2012-07-25T08:09:31.000Z</time>
      </trkpt>
      <trkpt lat="48.71" lon="1.74847">
        <ele>179</ele>
        <time>2012-07-25T08:09:40.000Z</time>
      </trkpt>
      <trkpt lat="48.71001" lon="1.74832">
        <ele>179</ele>
        <time>2012-07-25T08:09:48.000Z</time>
      </trkpt>
      <trkpt lat="48.70995" lon="1.74822">
        <ele>178.80000305176</ele>
        <time>2012-07-25T08:09:55.000Z</time>
      </trkpt>
      <trkpt lat="48.70991" lon="1.74817">
        <ele>178.80000305176</ele>
        <time>2012-07-25T08:09:59.000Z</time>
      </trkpt>
      <trkpt lat="48.70987" lon="1.74809">
        <ele>178.60000610352</ele>
        <time>2012-07-25T08:10:05.000Z</time>
      </trkpt>
      <trkpt lat="48.7098" lon="1.74798">
        <ele>178.39999389648</ele>
        <time>2012-07-25T08:10:13.000Z</time>
      </trkpt>
      <trkpt lat="48.70973" lon="1.74789">
        <ele>178.39999389648</ele>
        <time>2012-07-25T08:10:20.000Z</time>
      </trkpt>
      <trkpt lat="48.70965" lon="1.7478">
        <ele>178.19999694824</ele>
        <time>2012-07-25T08:10:28.000Z</time>
      </trkpt>
      <trkpt lat="48.70964" lon="1.74778">
        <ele>178.19999694824</ele>
        <time>2012-07-25T08:10:29.000Z</time>
      </trkpt>
      <trkpt lat="48.70956" lon="1.74764">
        <ele>178</ele>
        <time>2012-07-25T08:10:38.000Z</time>
      </trkpt>
      <trkpt lat="48.70944" lon="1.74751">
        <ele>178</ele>
        <time>2012-07-25T08:10:48.000Z</time>
      </trkpt>
      <trkpt lat="48.70938" lon="1.74744">
        <ele>178</ele>
        <time>2012-07-25T08:10:54.000Z</time>
      </trkpt>
      <trkpt lat="48.70928" lon="1.74732">
        <ele>177.60000610352</ele>
        <time>2012-07-25T08:11:03.000Z</time>
      </trkpt>
      <trkpt lat="48.7092" lon="1.74721">
        <ele>177.39999389648</ele>
        <time>2012-07-25T08:11:11.000Z</time>
      </trkpt>
      <trkpt lat="48.70911" lon="1.74711">
        <ele>177.19999694824</ele>
        <time>2012-07-25T08:11:19.000Z</time>
      </trkpt>
      <trkpt lat="48.70904" lon="1.74699">
        <ele>177</ele>
        <time>2012-07-25T08:11:27.000Z</time>
      </trkpt>
      <trkpt lat="48.70896" lon="1.74689">
        <ele>176.60000610352</ele>
        <time>2012-07-25T08:11:35.000Z</time>
      </trkpt>
      <trkpt lat="48.70888" lon="1.74681">
        <ele>176.39999389648</ele>
        <time>2012-07-25T08:11:43.000Z</time>
      </trkpt>
      <trkpt lat="48.70879" lon="1.74668">
        <ele>176</ele>
        <time>2012-07-25T08:11:53.000Z</time>
      </trkpt>
      <trkpt lat="48.70872" lon="1.74657">
        <ele>176</ele>
        <time>2012-07-25T08:12:01.000Z</time>
      </trkpt>
      <trkpt lat="48.70863" lon="1.74644">
        <ele>176</ele>
        <time>2012-07-25T08:12:11.000Z</time>
      </trkpt>
      <trkpt lat="48.70856" lon="1.74634">
        <ele>175.80000305176</ele>
        <time>2012-07-25T08:12:18.000Z</time>
      </trkpt>
      <trkpt lat="48.70844" lon="1.74617">
        <ele>176</ele>
        <time>2012-07-25T08:12:29.000Z</time>
      </trkpt>
      <trkpt lat="48.70834" lon="1.74604">
        <ele>176</ele>
        <time>2012-07-25T08:12:39.000Z</time>
      </trkpt>
      <trkpt lat="48.70825" lon="1.74593">
        <ele>176.19999694824</ele>
        <time>2012-07-25T08:12:47.000Z</time>
      </trkpt>
      <trkpt lat="48.70814" lon="1.74579">
        <ele>176.19999694824</ele>
        <time>2012-07-25T08:12:57.000Z</time>
      </trkpt>
      <trkpt lat="48.70806" lon="1.74568">
        <ele>176.39999389648</ele>
        <time>2012-07-25T08:13:06.000Z</time>
      </trkpt>
      <trkpt lat="48.70795" lon="1.74556">
        <ele>176.39999389648</ele>
        <time>2012-07-25T08:13:17.000Z</time>
      </trkpt>
      <trkpt lat="48.70786" lon="1.74547">
        <ele>176.60000610352</ele>
        <time>2012-07-25T08:13:25.000Z</time>
      </trkpt>
      <trkpt lat="48.70776" lon="1.74534">
        <ele>176.60000610352</ele>
        <time>2012-07-25T08:13:35.000Z</time>
      </trkpt>
      <trkpt lat="48.70767" lon="1.74522">
        <ele>176.80000305176</ele>
        <time>2012-07-25T08:13:44.000Z</time>
      </trkpt>
      <trkpt lat="48.70757" lon="1.74509">
        <ele>177</ele>
        <time>2012-07-25T08:13:54.000Z</time>
      </trkpt>
      <trkpt lat="48.70747" lon="1.745">
        <ele>177.19999694824</ele>
        <time>2012-07-25T08:14:03.000Z</time>
      </trkpt>
      <trkpt lat="48.70739" lon="1.7449">
        <ele>177.60000610352</ele>
        <time>2012-07-25T08:14:11.000Z</time>
      </trkpt>
      <trkpt lat="48.70736" lon="1.74482">
        <ele>177.60000610352</ele>
        <time>2012-07-25T08:14:15.000Z</time>
      </trkpt>
      <trkpt lat="48.70728" lon="1.74469">
        <ele>178.19999694824</ele>
        <time>2012-07-25T08:14:24.000Z</time>
      </trkpt>
      <trkpt lat="48.70727" lon="1.74467">
        <ele>178.19999694824</ele>
        <time>2012-07-25T08:14:25.000Z</time>
      </trkpt>
      <trkpt lat="48.70728" lon="1.74462">
        <ele>178.19999694824</ele>
        <time>2012-07-25T08:14:30.000Z</time>
      </trkpt>
      <trkpt lat="48.70728" lon="1.74462">
        <ele>178.19999694824</ele>
        <time>2012-07-25T08:14:31.000Z</time>
      </trkpt>
      <trkpt lat="48.70734" lon="1.74454">
        <ele>178.19999694824</ele>
        <time>2012-07-25T08:14:56.000Z</time>
      </trkpt>
      <trkpt lat="48.70742" lon="1.74447">
        <ele>178</ele>
        <time>2012-07-25T08:15:02.000Z</time>
      </trkpt>
      <trkpt lat="48.70746" lon="1.74443">
        <ele>177.80000305176</ele>
        <time>2012-07-25T08:15:07.000Z</time>
      </trkpt>
      <trkpt lat="48.70757" lon="1.74438">
        <ele>177.60000610352</ele>
        <time>2012-07-25T08:15:15.000Z</time>
      </trkpt>
      <trkpt lat="48.70765" lon="1.74432">
        <ele>177.39999389648</ele>
        <time>2012-07-25T08:15:22.000Z</time>
      </trkpt>
      <trkpt lat="48.70771" lon="1.74429">
        <ele>177.39999389648</ele>
        <time>2012-07-25T08:15:26.000Z</time>
      </trkpt>
      <trkpt lat="48.70774" lon="1.74426">
        <ele>177.39999389648</ele>
        <time>2012-07-25T08:15:30.000Z</time>
      </trkpt>
      <trkpt lat="48.70778" lon="1.74424">
        <ele>177.19999694824</ele>
        <time>2012-07-25T08:15:34.000Z</time>
      </trkpt>
      <trkpt lat="48.70783" lon="1.7442">
        <ele>177.19999694824</ele>
        <time>2012-07-25T08:15:39.000Z</time>
      </trkpt>
      <trkpt lat="48.70789" lon="1.74416">
        <ele>177</ele>
        <time>2012-07-25T08:15:45.000Z</time>
      </trkpt>
      <trkpt lat="48.70797" lon="1.74412">
        <ele>177</ele>
        <time>2012-07-25T08:15:51.000Z</time>
      </trkpt>
      <trkpt lat="48.70805" lon="1.74407">
        <ele>176.80000305176</ele>
        <time>2012-07-25T08:15:57.000Z</time>
      </trkpt>
      <trkpt lat="48.70813" lon="1.74403">
        <ele>176.60000610352</ele>
        <time>2012-07-25T08:16:03.000Z</time>
      </trkpt>
      <trkpt lat="48.70815" lon="1.74402">
        <ele>176.60000610352</ele>
        <time>2012-07-25T08:16:07.000Z</time>
      </trkpt>
      <trkpt lat="48.70821" lon="1.74393">
        <ele>176.60000610352</ele>
        <time>2012-07-25T08:18:04.000Z</time>
      </trkpt>
      <trkpt lat="48.70827" lon="1.74384">
        <ele>176.60000610352</ele>
        <time>2012-07-25T08:18:10.000Z</time>
      </trkpt>
      <trkpt lat="48.70834" lon="1.74375">
        <ele>176.39999389648</ele>
        <time>2012-07-25T08:18:17.000Z</time>
      </trkpt>
      <trkpt lat="48.70843" lon="1.74362">
        <ele>176.60000610352</ele>
        <time>2012-07-25T08:18:26.000Z</time>
      </trkpt>
      <trkpt lat="48.70851" lon="1.74349">
        <ele>176.60000610352</ele>
        <time>2012-07-25T08:18:35.000Z</time>
      </trkpt>
      <trkpt lat="48.70855" lon="1.74338">
        <ele>176.60000610352</ele>
        <time>2012-07-25T08:18:42.000Z</time>
      </trkpt>
      <trkpt lat="48.70858" lon="1.74328">
        <ele>177</ele>
        <time>2012-07-25T08:18:49.000Z</time>
      </trkpt>
      <trkpt lat="48.70863" lon="1.7432">
        <ele>177.19999694824</ele>
        <time>2012-07-25T08:18:56.000Z</time>
      </trkpt>
      <trkpt lat="48.70862" lon="1.74317">
        <ele>177.39999389648</ele>
        <time>2012-07-25T08:19:09.000Z</time>
      </trkpt>
      <trkpt lat="48.7086" lon="1.74315">
        <ele>177.39999389648</ele>
        <time>2012-07-25T08:19:12.000Z</time>
      </trkpt>
      <trkpt lat="48.7086" lon="1.74307">
        <ele>177.80000305176</ele>
        <time>2012-07-25T08:19:17.000Z</time>
      </trkpt>
      <trkpt lat="48.70862" lon="1.74306">
        <ele>177.80000305176</ele>
        <time>2012-07-25T08:19:19.000Z</time>
      </trkpt>
      <trkpt lat="48.70866" lon="1.74303">
        <ele>178</ele>
        <time>2012-07-25T08:19:23.000Z</time>
      </trkpt>
      <trkpt lat="48.70871" lon="1.74294">
        <ele>178.39999389648</ele>
        <time>2012-07-25T08:19:29.000Z</time>
      </trkpt>
      <trkpt lat="48.70875" lon="1.74289">
        <ele>178.60000610352</ele>
        <time>2012-07-25T08:19:32.000Z</time>
      </trkpt>
      <trkpt lat="48.70878" lon="1.74284">
        <ele>178.80000305176</ele>
        <time>2012-07-25T08:19:37.000Z</time>
      </trkpt>
      <trkpt lat="48.70884" lon="1.74275">
        <ele>179.39999389648</ele>
        <time>2012-07-25T08:19:43.000Z</time>
      </trkpt>
      <trkpt lat="48.70888" lon="1.74268">
        <ele>179.80000305176</ele>
        <time>2012-07-25T08:19:48.000Z</time>
      </trkpt>
      <trkpt lat="48.70893" lon="1.7426">
        <ele>180.19999694824</ele>
        <time>2012-07-25T08:19:53.000Z</time>
      </trkpt>
      <trkpt lat="48.70893" lon="1.74256">
        <ele>180.39999389648</ele>
        <time>2012-07-25T08:19:55.000Z</time>
      </trkpt>
      <trkpt lat="48.70898" lon="1.74245">
        <ele>181</ele>
        <time>2012-07-25T08:20:02.000Z</time>
      </trkpt>
      <trkpt lat="48.70898" lon="1.7424">
        <ele>181</ele>
        <time>2012-07-25T08:20:05.000Z</time>
      </trkpt>
      <trkpt lat="48.70898" lon="1.74232">
        <ele>181.19999694824</ele>
        <time>2012-07-25T08:20:11.000Z</time>
      </trkpt>
      <trkpt lat="48.70917" lon="1.74185">
        <ele>182.60000610352</ele>
        <time>2012-07-25T08:22:03.000Z</time>
      </trkpt>
      <trkpt lat="48.70916" lon="1.7418">
        <ele>182.60000610352</ele>
        <time>2012-07-25T08:22:05.000Z</time>
      </trkpt>
      <trkpt lat="48.70919" lon="1.74166">
        <ele>183</ele>
        <time>2012-07-25T08:22:13.000Z</time>
      </trkpt>
      <trkpt lat="48.7092" lon="1.74161">
        <ele>182.80000305176</ele>
        <time>2012-07-25T08:22:18.000Z</time>
      </trkpt>
      <trkpt lat="48.70927" lon="1.74139">
        <ele>182.80000305176</ele>
        <time>2012-07-25T08:22:43.000Z</time>
      </trkpt>
      <trkpt lat="48.70927" lon="1.74126">
        <ele>182.80000305176</ele>
        <time>2012-07-25T08:22:49.000Z</time>
      </trkpt>
      <trkpt lat="48.70927" lon="1.74119">
        <ele>182.80000305176</ele>
        <time>2012-07-25T08:22:52.000Z</time>
      </trkpt>
      <trkpt lat="48.70933" lon="1.74106">
        <ele>182.60000610352</ele>
        <time>2012-07-25T08:23:00.000Z</time>
      </trkpt>
      <trkpt lat="48.70938" lon="1.74099">
        <ele>182.60000610352</ele>
        <time>2012-07-25T08:23:06.000Z</time>
      </trkpt>
      <trkpt lat="48.70941" lon="1.74086">
        <ele>182.60000610352</ele>
        <time>2012-07-25T08:23:14.000Z</time>
      </trkpt>
      <trkpt lat="48.70944" lon="1.74075">
        <ele>182.60000610352</ele>
        <time>2012-07-25T08:23:21.000Z</time>
      </trkpt>
      <trkpt lat="48.70947" lon="1.74072">
        <ele>182.60000610352</ele>
        <time>2012-07-25T08:23:23.000Z</time>
      </trkpt>
      <trkpt lat="48.70949" lon="1.74067">
        <ele>182.60000610352</ele>
        <time>2012-07-25T08:23:26.000Z</time>
      </trkpt>
      <trkpt lat="48.70951" lon="1.74056">
        <ele>182.60000610352</ele>
        <time>2012-07-25T08:23:33.000Z</time>
      </trkpt>
      <trkpt lat="48.70952" lon="1.74053">
        <ele>182.60000610352</ele>
        <time>2012-07-25T08:23:35.000Z</time>
      </trkpt>
      <trkpt lat="48.70957" lon="1.74043">
        <ele>182.60000610352</ele>
        <time>2012-07-25T08:23:41.000Z</time>
      </trkpt>
      <trkpt lat="48.70962" lon="1.7403">
        <ele>182.39999389648</ele>
        <time>2012-07-25T08:23:49.000Z</time>
      </trkpt>
      <trkpt lat="48.70968" lon="1.74018">
        <ele>182.39999389648</ele>
        <time>2012-07-25T08:23:56.000Z</time>
      </trkpt>
      <trkpt lat="48.70969" lon="1.74015">
        <ele>182.39999389648</ele>
        <time>2012-07-25T08:23:58.000Z</time>
      </trkpt>
      <trkpt lat="48.70973" lon="1.73997">
        <ele>182.39999389648</ele>
        <time>2012-07-25T08:24:08.000Z</time>
      </trkpt>
      <trkpt lat="48.70974" lon="1.73982">
        <ele>182.80000305176</ele>
        <time>2012-07-25T08:24:15.000Z</time>
      </trkpt>
      <trkpt lat="48.70978" lon="1.73968">
        <ele>183.19999694824</ele>
        <time>2012-07-25T08:24:22.000Z</time>
      </trkpt>
      <trkpt lat="48.70979" lon="1.73952">
        <ele>183.60000610352</ele>
        <time>2012-07-25T08:24:29.000Z</time>
      </trkpt>
      <trkpt lat="48.70984" lon="1.73934">
        <ele>184.19999694824</ele>
        <time>2012-07-25T08:24:38.000Z</time>
      </trkpt>
      <trkpt lat="48.70988" lon="1.7392">
        <ele>184.60000610352</ele>
        <time>2012-07-25T08:24:45.000Z</time>
      </trkpt>
      <trkpt lat="48.70988" lon="1.73913">
        <ele>184.60000610352</ele>
        <time>2012-07-25T08:24:49.000Z</time>
      </trkpt>
      <trkpt lat="48.70987" lon="1.73896">
        <ele>184.19999694824</ele>
        <time>2012-07-25T08:24:55.000Z</time>
      </trkpt>
      <trkpt lat="48.7099" lon="1.73872">
        <ele>183.60000610352</ele>
        <time>2012-07-25T08:25:05.000Z</time>
      </trkpt>
      <trkpt lat="48.70991" lon="1.73852">
        <ele>183.19999694824</ele>
        <time>2012-07-25T08:25:13.000Z</time>
      </trkpt>
      <trkpt lat="48.70993" lon="1.7384">
        <ele>183</ele>
        <time>2012-07-25T08:25:19.000Z</time>
      </trkpt>
      <trkpt lat="48.70994" lon="1.73822">
        <ele>182.60000610352</ele>
        <time>2012-07-25T08:25:27.000Z</time>
      </trkpt>
      <trkpt lat="48.70995" lon="1.73809">
        <ele>182.19999694824</ele>
        <time>2012-07-25T08:25:32.000Z</time>
      </trkpt>
      <trkpt lat="48.71004" lon="1.73797">
        <ele>182.19999694824</ele>
        <time>2012-07-25T08:25:40.000Z</time>
      </trkpt>
      <trkpt lat="48.71006" lon="1.73795">
        <ele>182</ele>
        <time>2012-07-25T08:25:42.000Z</time>
      </trkpt>
      <trkpt lat="48.71013" lon="1.7379">
        <ele>182</ele>
        <time>2012-07-25T08:25:48.000Z</time>
      </trkpt>
      <trkpt lat="48.7102" lon="1.73783">
        <ele>182</ele>
        <time>2012-07-25T08:25:55.000Z</time>
      </trkpt>
      <trkpt lat="48.71031" lon="1.73772">
        <ele>182</ele>
        <time>2012-07-25T08:26:04.000Z</time>
      </trkpt>
      <trkpt lat="48.71035" lon="1.73767">
        <ele>182</ele>
        <time>2012-07-25T08:26:08.000Z</time>
      </trkpt>
      <trkpt lat="48.71043" lon="1.73757">
        <ele>182</ele>
        <time>2012-07-25T08:26:15.000Z</time>
      </trkpt>
      <trkpt lat="48.71051" lon="1.73748">
        <ele>182.19999694824</ele>
        <time>2012-07-25T08:26:23.000Z</time>
      </trkpt>
      <trkpt lat="48.71055" lon="1.73742">
        <ele>182</ele>
        <time>2012-07-25T08:26:27.000Z</time>
      </trkpt>
      <trkpt lat="48.71061" lon="1.73739">
        <ele>182</ele>
        <time>2012-07-25T08:26:31.000Z</time>
      </trkpt>
      <trkpt lat="48.7107" lon="1.73733">
        <ele>181.80000305176</ele>
        <time>2012-07-25T08:26:39.000Z</time>
      </trkpt>
      <trkpt lat="48.7108" lon="1.73723">
        <ele>181.60000610352</ele>
        <time>2012-07-25T08:26:47.000Z</time>
      </trkpt>
      <trkpt lat="48.71087" lon="1.73714">
        <ele>181.39999389648</ele>
        <time>2012-07-25T08:26:54.000Z</time>
      </trkpt>
      <trkpt lat="48.71096" lon="1.73706">
        <ele>181.19999694824</ele>
        <time>2012-07-25T08:27:01.000Z</time>
      </trkpt>
      <trkpt lat="48.71103" lon="1.73699">
        <ele>181.19999694824</ele>
        <time>2012-07-25T08:27:07.000Z</time>
      </trkpt>
      <trkpt lat="48.71112" lon="1.73691">
        <ele>181.19999694824</ele>
        <time>2012-07-25T08:27:14.000Z</time>
      </trkpt>
      <trkpt lat="48.71121" lon="1.73684">
        <ele>181.39999389648</ele>
        <time>2012-07-25T08:27:20.000Z</time>
      </trkpt>
      <trkpt lat="48.71125" lon="1.73679">
        <ele>181.39999389648</ele>
        <time>2012-07-25T08:27:24.000Z</time>
      </trkpt>
      <trkpt lat="48.71129" lon="1.73675">
        <ele>181.39999389648</ele>
        <time>2012-07-25T08:27:28.000Z</time>
      </trkpt>
      <trkpt lat="48.71136" lon="1.73668">
        <ele>181.60000610352</ele>
        <time>2012-07-25T08:27:34.000Z</time>
      </trkpt>
      <trkpt lat="48.71145" lon="1.73658">
        <ele>181.60000610352</ele>
        <time>2012-07-25T08:27:42.000Z</time>
      </trkpt>
      <trkpt lat="48.71155" lon="1.73649">
        <ele>181.80000305176</ele>
        <time>2012-07-25T08:27:49.000Z</time>
      </trkpt>
      <trkpt lat="48.71165" lon="1.73639">
        <ele>182</ele>
        <time>2012-07-25T08:27:58.000Z</time>
      </trkpt>
      <trkpt lat="48.71166" lon="1.73638">
        <ele>182</ele>
        <time>2012-07-25T08:27:59.000Z</time>
      </trkpt>
      <trkpt lat="48.71173" lon="1.73636">
        <ele>182</ele>
        <time>2012-07-25T08:28:02.000Z</time>
      </trkpt>
      <trkpt lat="48.71175" lon="1.73632">
        <ele>182</ele>
        <time>2012-07-25T08:28:06.000Z</time>
      </trkpt>
      <trkpt lat="48.71186" lon="1.73619">
        <ele>182</ele>
        <time>2012-07-25T08:28:16.000Z</time>
      </trkpt>
      <trkpt lat="48.71192" lon="1.7361">
        <ele>182</ele>
        <time>2012-07-25T08:28:22.000Z</time>
      </trkpt>
      <trkpt lat="48.71195" lon="1.73606">
        <ele>182</ele>
        <time>2012-07-25T08:28:25.000Z</time>
      </trkpt>
      <trkpt lat="48.71205" lon="1.73608">
        <ele>182.39999389648</ele>
        <time>2012-07-25T08:28:33.000Z</time>
      </trkpt>
      <trkpt lat="48.71209" lon="1.73612">
        <ele>182.60000610352</ele>
        <time>2012-07-25T08:28:37.000Z</time>
      </trkpt>
      <trkpt lat="48.71219" lon="1.73614">
        <ele>183</ele>
        <time>2012-07-25T08:28:46.000Z</time>
      </trkpt>
      <trkpt lat="48.7122" lon="1.73613">
        <ele>183.19999694824</ele>
        <time>2012-07-25T08:28:50.000Z</time>
      </trkpt>
      <trkpt lat="48.7124" lon="1.73614">
        <ele>184</ele>
        <time>2012-07-25T08:30:12.000Z</time>
      </trkpt>
      <trkpt lat="48.71243" lon="1.73612">
        <ele>184</ele>
        <time>2012-07-25T08:30:15.000Z</time>
      </trkpt>
      <trkpt lat="48.71245" lon="1.73612">
        <ele>184.19999694824</ele>
        <time>2012-07-25T08:30:17.000Z</time>
      </trkpt>
      <trkpt lat="48.71252" lon="1.7361">
        <ele>184</ele>
        <time>2012-07-25T08:30:22.000Z</time>
      </trkpt>
      <trkpt lat="48.71255" lon="1.73611">
        <ele>183.39999389648</ele>
        <time>2012-07-25T08:30:25.000Z</time>
      </trkpt>
      <trkpt lat="48.71267" lon="1.73609">
        <ele>181.39999389648</ele>
        <time>2012-07-25T08:30:34.000Z</time>
      </trkpt>
      <trkpt lat="48.71276" lon="1.73603">
        <ele>180</ele>
        <time>2012-07-25T08:30:40.000Z</time>
      </trkpt>
      <trkpt lat="48.7128" lon="1.73596">
        <ele>179.60000610352</ele>
        <time>2012-07-25T08:30:45.000Z</time>
      </trkpt>
      <trkpt lat="48.71286" lon="1.73586">
        <ele>179</ele>
        <time>2012-07-25T08:30:52.000Z</time>
      </trkpt>
      <trkpt lat="48.71286" lon="1.73585">
        <ele>178.80000305176</ele>
        <time>2012-07-25T08:30:53.000Z</time>
      </trkpt>
      <trkpt lat="48.71289" lon="1.73575">
        <ele>178.60000610352</ele>
        <time>2012-07-25T08:30:59.000Z</time>
      </trkpt>
      <trkpt lat="48.71292" lon="1.73567">
        <ele>178.19999694824</ele>
        <time>2012-07-25T08:31:04.000Z</time>
      </trkpt>
      <trkpt lat="48.71295" lon="1.73559">
        <ele>178</ele>
        <time>2012-07-25T08:31:08.000Z</time>
      </trkpt>
      <trkpt lat="48.71297" lon="1.73552">
        <ele>177.80000305176</ele>
        <time>2012-07-25T08:31:13.000Z</time>
      </trkpt>
      <trkpt lat="48.71302" lon="1.73542">
        <ele>177.60000610352</ele>
        <time>2012-07-25T08:31:18.000Z</time>
      </trkpt>
      <trkpt lat="48.71308" lon="1.73534">
        <ele>177.19999694824</ele>
        <time>2012-07-25T08:31:24.000Z</time>
      </trkpt>
      <trkpt lat="48.7131" lon="1.73533">
        <ele>177</ele>
        <time>2012-07-25T08:31:25.000Z</time>
      </trkpt>
      <trkpt lat="48.71319" lon="1.73526">
        <ele>176.60000610352</ele>
        <time>2012-07-25T08:31:32.000Z</time>
      </trkpt>
      <trkpt lat="48.71328" lon="1.73522">
        <ele>175.80000305176</ele>
        <time>2012-07-25T08:31:38.000Z</time>
      </trkpt>
      <trkpt lat="48.71338" lon="1.73527">
        <ele>174.60000610352</ele>
        <time>2012-07-25T08:31:44.000Z</time>
      </trkpt>
      <trkpt lat="48.71345" lon="1.73533">
        <ele>173.19999694824</ele>
        <time>2012-07-25T08:31:50.000Z</time>
      </trkpt>
      <trkpt lat="48.71347" lon="1.73536">
        <ele>172.80000305176</ele>
        <time>2012-07-25T08:31:53.000Z</time>
      </trkpt>
      <trkpt lat="48.71354" lon="1.73543">
        <ele>171.39999389648</ele>
        <time>2012-07-25T08:31:59.000Z</time>
      </trkpt>
      <trkpt lat="48.71357" lon="1.73546">
        <ele>171</ele>
        <time>2012-07-25T08:32:01.000Z</time>
      </trkpt>
      <trkpt lat="48.71361" lon="1.73551">
        <ele>170</ele>
        <time>2012-07-25T08:32:05.000Z</time>
      </trkpt>
      <trkpt lat="48.71372" lon="1.7356">
        <ele>168.19999694824</ele>
        <time>2012-07-25T08:32:14.000Z</time>
      </trkpt>
      <trkpt lat="48.7138" lon="1.7357">
        <ele>166.80000305176</ele>
        <time>2012-07-25T08:32:21.000Z</time>
      </trkpt>
      <trkpt lat="48.71387" lon="1.73576">
        <ele>165.60000610352</ele>
        <time>2012-07-25T08:32:27.000Z</time>
      </trkpt>
      <trkpt lat="48.71394" lon="1.73579">
        <ele>164.80000305176</ele>
        <time>2012-07-25T08:32:31.000Z</time>
      </trkpt>
      <trkpt lat="48.71399" lon="1.73577">
        <ele>164.39999389648</ele>
        <time>2012-07-25T08:32:35.000Z</time>
      </trkpt>
      <trkpt lat="48.71409" lon="1.73571">
        <ele>163.39999389648</ele>
        <time>2012-07-25T08:32:43.000Z</time>
      </trkpt>
      <trkpt lat="48.71421" lon="1.7357">
        <ele>162.19999694824</ele>
        <time>2012-07-25T08:32:51.000Z</time>
      </trkpt>
      <trkpt lat="48.71437" lon="1.73568">
        <ele>160.80000305176</ele>
        <time>2012-07-25T08:33:02.000Z</time>
      </trkpt>
      <trkpt lat="48.71449" lon="1.73563">
        <ele>159.60000610352</ele>
        <time>2012-07-25T08:33:11.000Z</time>
      </trkpt>
      <trkpt lat="48.71454" lon="1.73561">
        <ele>159</ele>
        <time>2012-07-25T08:33:16.000Z</time>
      </trkpt>
      <trkpt lat="48.71463" lon="1.73558">
        <ele>158</ele>
        <time>2012-07-25T08:33:23.000Z</time>
      </trkpt>
      <trkpt lat="48.71472" lon="1.73555">
        <ele>157.19999694824</ele>
        <time>2012-07-25T08:33:29.000Z</time>
      </trkpt>
      <trkpt lat="48.71483" lon="1.73553">
        <ele>155.80000305176</ele>
        <time>2012-07-25T08:33:37.000Z</time>
      </trkpt>
      <trkpt lat="48.71493" lon="1.73552">
        <ele>154.60000610352</ele>
        <time>2012-07-25T08:33:45.000Z</time>
      </trkpt>
      <trkpt lat="48.71504" lon="1.73549">
        <ele>153.39999389648</ele>
        <time>2012-07-25T08:33:53.000Z</time>
      </trkpt>
      <trkpt lat="48.71515" lon="1.73546">
        <ele>152</ele>
        <time>2012-07-25T08:34:02.000Z</time>
      </trkpt>
      <trkpt lat="48.71528" lon="1.73543">
        <ele>150.39999389648</ele>
        <time>2012-07-25T08:34:10.000Z</time>
      </trkpt>
      <trkpt lat="48.71539" lon="1.73541">
        <ele>149.19999694824</ele>
        <time>2012-07-25T08:34:18.000Z</time>
      </trkpt>
      <trkpt lat="48.71548" lon="1.7354">
        <ele>148.39999389648</ele>
        <time>2012-07-25T08:34:24.000Z</time>
      </trkpt>
      <trkpt lat="48.71556" lon="1.73539">
        <ele>147.39999389648</ele>
        <time>2012-07-25T08:34:30.000Z</time>
      </trkpt>
      <trkpt lat="48.71568" lon="1.73535">
        <ele>146</ele>
        <time>2012-07-25T08:34:38.000Z</time>
      </trkpt>
      <trkpt lat="48.71582" lon="1.73533">
        <ele>144.60000610352</ele>
        <time>2012-07-25T08:34:47.000Z</time>
      </trkpt>
      <trkpt lat="48.71594" lon="1.73531">
        <ele>143.80000305176</ele>
        <time>2012-07-25T08:34:55.000Z</time>
      </trkpt>
      <trkpt lat="48.71604" lon="1.73529">
        <ele>143.19999694824</ele>
        <time>2012-07-25T08:35:01.000Z</time>
      </trkpt>
      <trkpt lat="48.71615" lon="1.73527">
        <ele>142.60000610352</ele>
        <time>2012-07-25T08:35:08.000Z</time>
      </trkpt>
      <trkpt lat="48.71629" lon="1.73521">
        <ele>142</ele>
        <time>2012-07-25T08:35:17.000Z</time>
      </trkpt>
      <trkpt lat="48.71639" lon="1.73519">
        <ele>141.39999389648</ele>
        <time>2012-07-25T08:35:25.000Z</time>
      </trkpt>
      <trkpt lat="48.71651" lon="1.73515">
        <ele>140.80000305176</ele>
        <time>2012-07-25T08:35:33.000Z</time>
      </trkpt>
      <trkpt lat="48.71664" lon="1.73513">
        <ele>140.19999694824</ele>
        <time>2012-07-25T08:35:42.000Z</time>
      </trkpt>
      <trkpt lat="48.71674" lon="1.7351">
        <ele>139.80000305176</ele>
        <time>2012-07-25T08:35:49.000Z</time>
      </trkpt>
      <trkpt lat="48.71684" lon="1.73508">
        <ele>139.39999389648</ele>
        <time>2012-07-25T08:35:56.000Z</time>
      </trkpt>
      <trkpt lat="48.71695" lon="1.73505">
        <ele>139</ele>
        <time>2012-07-25T08:36:03.000Z</time>
      </trkpt>
      <trkpt lat="48.71707" lon="1.73505">
        <ele>138.60000610352</ele>
        <time>2012-07-25T08:36:11.000Z</time>
      </trkpt>
      <trkpt lat="48.71719" lon="1.73502">
        <ele>138.19999694824</ele>
        <time>2012-07-25T08:36:19.000Z</time>
      </trkpt>
      <trkpt lat="48.71733" lon="1.73498">
        <ele>137.60000610352</ele>
        <time>2012-07-25T08:36:28.000Z</time>
      </trkpt>
      <trkpt lat="48.71736" lon="1.73498">
        <ele>137.60000610352</ele>
        <time>2012-07-25T08:36:30.000Z</time>
      </trkpt>
      <trkpt lat="48.71743" lon="1.73494">
        <ele>137.19999694824</ele>
        <time>2012-07-25T08:36:35.000Z</time>
      </trkpt>
      <trkpt lat="48.71749" lon="1.73483">
        <ele>137</ele>
        <time>2012-07-25T08:36:43.000Z</time>
      </trkpt>
      <trkpt lat="48.71751" lon="1.73476">
        <ele>137</ele>
        <time>2012-07-25T08:36:47.000Z</time>
      </trkpt>
      <trkpt lat="48.7175" lon="1.73464">
        <ele>137</ele>
        <time>2012-07-25T08:36:54.000Z</time>
      </trkpt>
      <trkpt lat="48.71748" lon="1.73452">
        <ele>137</ele>
        <time>2012-07-25T08:37:01.000Z</time>
      </trkpt>
      <trkpt lat="48.71746" lon="1.73441">
        <ele>137.19999694824</ele>
        <time>2012-07-25T08:37:07.000Z</time>
      </trkpt>
      <trkpt lat="48.71741" lon="1.73418">
        <ele>137.39999389648</ele>
        <time>2012-07-25T08:37:18.000Z</time>
      </trkpt>
      <trkpt lat="48.71739" lon="1.73406">
        <ele>137.19999694824</ele>
        <time>2012-07-25T08:37:24.000Z</time>
      </trkpt>
      <trkpt lat="48.71734" lon="1.73387">
        <ele>136.80000305176</ele>
        <time>2012-07-25T08:37:33.000Z</time>
      </trkpt>
      <trkpt lat="48.7173" lon="1.73369">
        <ele>136.60000610352</ele>
        <time>2012-07-25T08:37:42.000Z</time>
      </trkpt>
      <trkpt lat="48.71724" lon="1.73355">
        <ele>136.39999389648</ele>
        <time>2012-07-25T08:37:50.000Z</time>
      </trkpt>
      <trkpt lat="48.71719" lon="1.7334">
        <ele>136.19999694824</ele>
        <time>2012-07-25T08:37:57.000Z</time>
      </trkpt>
      <trkpt lat="48.71714" lon="1.73322">
        <ele>136.19999694824</ele>
        <time>2012-07-25T08:38:06.000Z</time>
      </trkpt>
      <trkpt lat="48.71713" lon="1.73308">
        <ele>136.19999694824</ele>
        <time>2012-07-25T08:38:13.000Z</time>
      </trkpt>
      <trkpt lat="48.71709" lon="1.73291">
        <ele>136.19999694824</ele>
        <time>2012-07-25T08:38:21.000Z</time>
      </trkpt>
      <trkpt lat="48.71707" lon="1.73274">
        <ele>136.19999694824</ele>
        <time>2012-07-25T08:38:30.000Z</time>
      </trkpt>
      <trkpt lat="48.71704" lon="1.73255">
        <ele>136.19999694824</ele>
        <time>2012-07-25T08:38:39.000Z</time>
      </trkpt>
      <trkpt lat="48.71704" lon="1.73238">
        <ele>136.19999694824</ele>
        <time>2012-07-25T08:38:47.000Z</time>
      </trkpt>
      <trkpt lat="48.71702" lon="1.73219">
        <ele>136.19999694824</ele>
        <time>2012-07-25T08:38:57.000Z</time>
      </trkpt>
      <trkpt lat="48.71698" lon="1.73202">
        <ele>136.19999694824</ele>
        <time>2012-07-25T08:39:05.000Z</time>
      </trkpt>
      <trkpt lat="48.71697" lon="1.73194">
        <ele>136.19999694824</ele>
        <time>2012-07-25T08:39:09.000Z</time>
      </trkpt>
      <trkpt lat="48.71695" lon="1.73178">
        <ele>136</ele>
        <time>2012-07-25T08:39:18.000Z</time>
      </trkpt>
      <trkpt lat="48.71695" lon="1.73167">
        <ele>136</ele>
        <time>2012-07-25T08:39:25.000Z</time>
      </trkpt>
      <trkpt lat="48.71691" lon="1.73156">
        <ele>136.39999389648</ele>
        <time>2012-07-25T08:39:29.000Z</time>
      </trkpt>
      <trkpt lat="48.71689" lon="1.73145">
        <ele>136.60000610352</ele>
        <time>2012-07-25T08:39:35.000Z</time>
      </trkpt>
      <trkpt lat="48.71688" lon="1.73138">
        <ele>136.80000305176</ele>
        <time>2012-07-25T08:39:38.000Z</time>
      </trkpt>
      <trkpt lat="48.71686" lon="1.7312">
        <ele>137.39999389648</ele>
        <time>2012-07-25T08:39:47.000Z</time>
      </trkpt>
      <trkpt lat="48.71686" lon="1.73113">
        <ele>137.39999389648</ele>
        <time>2012-07-25T08:39:51.000Z</time>
      </trkpt>
      <trkpt lat="48.71684" lon="1.73095">
        <ele>138</ele>
        <time>2012-07-25T08:39:59.000Z</time>
      </trkpt>
      <trkpt lat="48.71684" lon="1.73082">
        <ele>138.19999694824</ele>
        <time>2012-07-25T08:40:05.000Z</time>
      </trkpt>
      <trkpt lat="48.71683" lon="1.73067">
        <ele>138</ele>
        <time>2012-07-25T08:40:12.000Z</time>
      </trkpt>
      <trkpt lat="48.71682" lon="1.73055">
        <ele>137.80000305176</ele>
        <time>2012-07-25T08:40:18.000Z</time>
      </trkpt>
      <trkpt lat="48.71682" lon="1.7304">
        <ele>137.60000610352</ele>
        <time>2012-07-25T08:40:25.000Z</time>
      </trkpt>
      <trkpt lat="48.71678" lon="1.73019">
        <ele>137.60000610352</ele>
        <time>2012-07-25T08:40:34.000Z</time>
      </trkpt>
      <trkpt lat="48.71668" lon="1.72995">
        <ele>137.80000305176</ele>
        <time>2012-07-25T08:40:43.000Z</time>
      </trkpt>
      <trkpt lat="48.71661" lon="1.72979">
        <ele>138</ele>
        <time>2012-07-25T08:40:51.000Z</time>
      </trkpt>
      <trkpt lat="48.71656" lon="1.72972">
        <ele>138.19999694824</ele>
        <time>2012-07-25T08:40:55.000Z</time>
      </trkpt>
      <trkpt lat="48.71652" lon="1.7296">
        <ele>138.19999694824</ele>
        <time>2012-07-25T08:41:01.000Z</time>
      </trkpt>
      <trkpt lat="48.71652" lon="1.72957">
        <ele>138.19999694824</ele>
        <time>2012-07-25T08:41:03.000Z</time>
      </trkpt>
      <trkpt lat="48.71652" lon="1.72951">
        <ele>138.19999694824</ele>
        <time>2012-07-25T08:41:07.000Z</time>
      </trkpt>
      <trkpt lat="48.71649" lon="1.72939">
        <ele>138.19999694824</ele>
        <time>2012-07-25T08:41:15.000Z</time>
      </trkpt>
      <trkpt lat="48.71645" lon="1.72932">
        <ele>138.19999694824</ele>
        <time>2012-07-25T08:41:20.000Z</time>
      </trkpt>
      <trkpt lat="48.71643" lon="1.72926">
        <ele>138.19999694824</ele>
        <time>2012-07-25T08:41:24.000Z</time>
      </trkpt>
      <trkpt lat="48.71637" lon="1.72913">
        <ele>138.39999389648</ele>
        <time>2012-07-25T08:41:32.000Z</time>
      </trkpt>
      <trkpt lat="48.71628" lon="1.72899">
        <ele>138.80000305176</ele>
        <time>2012-07-25T08:41:40.000Z</time>
      </trkpt>
      <trkpt lat="48.71619" lon="1.72883">
        <ele>139</ele>
        <time>2012-07-25T08:41:48.000Z</time>
      </trkpt>
      <trkpt lat="48.71614" lon="1.72872">
        <ele>139.19999694824</ele>
        <time>2012-07-25T08:41:55.000Z</time>
      </trkpt>
      <trkpt lat="48.71607" lon="1.72856">
        <ele>139.39999389648</ele>
        <time>2012-07-25T08:42:04.000Z</time>
      </trkpt>
      <trkpt lat="48.71602" lon="1.72846">
        <ele>139.39999389648</ele>
        <time>2012-07-25T08:42:10.000Z</time>
      </trkpt>
      <trkpt lat="48.71596" lon="1.72836">
        <ele>139.60000610352</ele>
        <time>2012-07-25T08:42:16.000Z</time>
      </trkpt>
      <trkpt lat="48.7159" lon="1.72825">
        <ele>139.80000305176</ele>
        <time>2012-07-25T08:42:22.000Z</time>
      </trkpt>
      <trkpt lat="48.71584" lon="1.72815">
        <ele>140.19999694824</ele>
        <time>2012-07-25T08:42:28.000Z</time>
      </trkpt>
      <trkpt lat="48.71579" lon="1.72805">
        <ele>140.60000610352</ele>
        <time>2012-07-25T08:42:34.000Z</time>
      </trkpt>
      <trkpt lat="48.71576" lon="1.72796">
        <ele>140.80000305176</ele>
        <time>2012-07-25T08:42:40.000Z</time>
      </trkpt>
      <trkpt lat="48.71575" lon="1.72787">
        <ele>141</ele>
        <time>2012-07-25T08:42:45.000Z</time>
      </trkpt>
      <trkpt lat="48.71573" lon="1.72784">
        <ele>141.19999694824</ele>
        <time>2012-07-25T08:42:47.000Z</time>
      </trkpt>
      <trkpt lat="48.71567" lon="1.7277">
        <ele>141.80000305176</ele>
        <time>2012-07-25T08:42:54.000Z</time>
      </trkpt>
      <trkpt lat="48.71565" lon="1.72764">
        <ele>142</ele>
        <time>2012-07-25T08:42:58.000Z</time>
      </trkpt>
      <trkpt lat="48.71562" lon="1.72755">
        <ele>142.19999694824</ele>
        <time>2012-07-25T08:43:04.000Z</time>
      </trkpt>
      <trkpt lat="48.71561" lon="1.72753">
        <ele>142.39999389648</ele>
        <time>2012-07-25T08:43:05.000Z</time>
      </trkpt>
      <trkpt lat="48.71549" lon="1.72732">
        <ele>142.80000305176</ele>
        <time>2012-07-25T08:43:16.000Z</time>
      </trkpt>
      <trkpt lat="48.71539" lon="1.72715">
        <ele>143</ele>
        <time>2012-07-25T08:43:25.000Z</time>
      </trkpt>
      <trkpt lat="48.71531" lon="1.72696">
        <ele>143</ele>
        <time>2012-07-25T08:43:34.000Z</time>
      </trkpt>
      <trkpt lat="48.71526" lon="1.72681">
        <ele>143</ele>
        <time>2012-07-25T08:43:41.000Z</time>
      </trkpt>
      <trkpt lat="48.71522" lon="1.72668">
        <ele>143</ele>
        <time>2012-07-25T08:43:47.000Z</time>
      </trkpt>
      <trkpt lat="48.71519" lon="1.72654">
        <ele>142.80000305176</ele>
        <time>2012-07-25T08:43:54.000Z</time>
      </trkpt>
      <trkpt lat="48.71515" lon="1.72641">
        <ele>142.60000610352</ele>
        <time>2012-07-25T08:44:01.000Z</time>
      </trkpt>
      <trkpt lat="48.7151" lon="1.72621">
        <ele>142.39999389648</ele>
        <time>2012-07-25T08:44:10.000Z</time>
      </trkpt>
      <trkpt lat="48.71508" lon="1.72608">
        <ele>142.19999694824</ele>
        <time>2012-07-25T08:44:17.000Z</time>
      </trkpt>
      <trkpt lat="48.71508" lon="1.72595">
        <ele>141.80000305176</ele>
        <time>2012-07-25T08:44:24.000Z</time>
      </trkpt>
      <trkpt lat="48.71504" lon="1.72578">
        <ele>141.80000305176</ele>
        <time>2012-07-25T08:44:30.000Z</time>
      </trkpt>
      <trkpt lat="48.71504" lon="1.72563">
        <ele>141.60000610352</ele>
        <time>2012-07-25T08:44:38.000Z</time>
      </trkpt>
      <trkpt lat="48.71502" lon="1.72547">
        <ele>141.39999389648</ele>
        <time>2012-07-25T08:44:47.000Z</time>
      </trkpt>
      <trkpt lat="48.71501" lon="1.72534">
        <ele>141.39999389648</ele>
        <time>2012-07-25T08:44:53.000Z</time>
      </trkpt>
      <trkpt lat="48.71498" lon="1.72514">
        <ele>141.19999694824</ele>
        <time>2012-07-25T08:45:00.000Z</time>
      </trkpt>
      <trkpt lat="48.71496" lon="1.72495">
        <ele>141.19999694824</ele>
        <time>2012-07-25T08:45:09.000Z</time>
      </trkpt>
      <trkpt lat="48.71496" lon="1.72482">
        <ele>140.80000305176</ele>
        <time>2012-07-25T08:45:16.000Z</time>
      </trkpt>
      <trkpt lat="48.71496" lon="1.72462">
        <ele>140.39999389648</ele>
        <time>2012-07-25T08:45:26.000Z</time>
      </trkpt>
      <trkpt lat="48.71497" lon="1.7245">
        <ele>140</ele>
        <time>2012-07-25T08:45:32.000Z</time>
      </trkpt>
      <trkpt lat="48.71498" lon="1.72435">
        <ele>139.60000610352</ele>
        <time>2012-07-25T08:45:40.000Z</time>
      </trkpt>
      <trkpt lat="48.71496" lon="1.7242">
        <ele>139.39999389648</ele>
        <time>2012-07-25T08:45:47.000Z</time>
      </trkpt>
      <trkpt lat="48.7149" lon="1.72398">
        <ele>139.39999389648</ele>
        <time>2012-07-25T08:45:54.000Z</time>
      </trkpt>
      <trkpt lat="48.71487" lon="1.7238">
        <ele>139.39999389648</ele>
        <time>2012-07-25T08:46:01.000Z</time>
      </trkpt>
      <trkpt lat="48.71488" lon="1.72359">
        <ele>139</ele>
        <time>2012-07-25T08:46:10.000Z</time>
      </trkpt>
      <trkpt lat="48.71489" lon="1.72353">
        <ele>138.80000305176</ele>
        <time>2012-07-25T08:46:13.000Z</time>
      </trkpt>
      <trkpt lat="48.71491" lon="1.72345">
        <ele>138.80000305176</ele>
        <time>2012-07-25T08:46:17.000Z</time>
      </trkpt>
      <trkpt lat="48.71491" lon="1.72326">
        <ele>138.39999389648</ele>
        <time>2012-07-25T08:46:25.000Z</time>
      </trkpt>
      <trkpt lat="48.71488" lon="1.72304">
        <ele>138.39999389648</ele>
        <time>2012-07-25T08:46:34.000Z</time>
      </trkpt>
      <trkpt lat="48.71479" lon="1.72279">
        <ele>138.80000305176</ele>
        <time>2012-07-25T08:46:42.000Z</time>
      </trkpt>
      <trkpt lat="48.71478" lon="1.72267">
        <ele>138.80000305176</ele>
        <time>2012-07-25T08:46:48.000Z</time>
      </trkpt>
      <trkpt lat="48.71477" lon="1.72253">
        <ele>138.80000305176</ele>
        <time>2012-07-25T08:46:55.000Z</time>
      </trkpt>
      <trkpt lat="48.71475" lon="1.72245">
        <ele>139</ele>
        <time>2012-07-25T08:47:00.000Z</time>
      </trkpt>
      <trkpt lat="48.71467" lon="1.72229">
        <ele>140</ele>
        <time>2012-07-25T08:47:09.000Z</time>
      </trkpt>
      <trkpt lat="48.71463" lon="1.72216">
        <ele>140.60000610352</ele>
        <time>2012-07-25T08:47:15.000Z</time>
      </trkpt>
      <trkpt lat="48.71462" lon="1.72213">
        <ele>140.80000305176</ele>
        <time>2012-07-25T08:47:17.000Z</time>
      </trkpt>
      <trkpt lat="48.71457" lon="1.72197">
        <ele>141.80000305176</ele>
        <time>2012-07-25T08:47:25.000Z</time>
      </trkpt>
      <trkpt lat="48.71446" lon="1.72189">
        <ele>143</ele>
        <time>2012-07-25T08:47:33.000Z</time>
      </trkpt>
      <trkpt lat="48.71442" lon="1.72187">
        <ele>143.60000610352</ele>
        <time>2012-07-25T08:47:36.000Z</time>
      </trkpt>
      <trkpt lat="48.71433" lon="1.72173">
        <ele>145</ele>
        <time>2012-07-25T08:47:46.000Z</time>
      </trkpt>
      <trkpt lat="48.71432" lon="1.7217">
        <ele>145.19999694824</ele>
        <time>2012-07-25T08:47:47.000Z</time>
      </trkpt>
      <trkpt lat="48.71431" lon="1.72158">
        <ele>145.19999694824</ele>
        <time>2012-07-25T08:47:54.000Z</time>
      </trkpt>
      <trkpt lat="48.71431" lon="1.72141">
        <ele>144.60000610352</ele>
        <time>2012-07-25T08:48:02.000Z</time>
      </trkpt>
      <trkpt lat="48.71431" lon="1.7213">
        <ele>144</ele>
        <time>2012-07-25T08:48:09.000Z</time>
      </trkpt>
      <trkpt lat="48.7143" lon="1.72123">
        <ele>143.80000305176</ele>
        <time>2012-07-25T08:48:12.000Z</time>
      </trkpt>
      <trkpt lat="48.7143" lon="1.72111">
        <ele>143.39999389648</ele>
        <time>2012-07-25T08:48:18.000Z</time>
      </trkpt>
      <trkpt lat="48.71422" lon="1.721">
        <ele>143.39999389648</ele>
        <time>2012-07-25T08:48:24.000Z</time>
      </trkpt>
      <trkpt lat="48.71421" lon="1.72096">
        <ele>143.39999389648</ele>
        <time>2012-07-25T08:48:27.000Z</time>
      </trkpt>
      <trkpt lat="48.71414" lon="1.72078">
        <ele>143.39999389648</ele>
        <time>2012-07-25T08:48:35.000Z</time>
      </trkpt>
      <trkpt lat="48.71406" lon="1.72061">
        <ele>144.39999389648</ele>
        <time>2012-07-25T08:48:44.000Z</time>
      </trkpt>
      <trkpt lat="48.714" lon="1.72051">
        <ele>145.19999694824</ele>
        <time>2012-07-25T08:48:50.000Z</time>
      </trkpt>
      <trkpt lat="48.71394" lon="1.72043">
        <ele>145.60000610352</ele>
        <time>2012-07-25T08:48:56.000Z</time>
      </trkpt>
      <trkpt lat="48.71388" lon="1.72035">
        <ele>145.80000305176</ele>
        <time>2012-07-25T08:49:02.000Z</time>
      </trkpt>
      <trkpt lat="48.71379" lon="1.72024">
        <ele>146.19999694824</ele>
        <time>2012-07-25T08:49:12.000Z</time>
      </trkpt>
      <trkpt lat="48.7137" lon="1.72015">
        <ele>146.39999389648</ele>
        <time>2012-07-25T08:49:19.000Z</time>
      </trkpt>
      <trkpt lat="48.71362" lon="1.72007">
        <ele>146.39999389648</ele>
        <time>2012-07-25T08:49:26.000Z</time>
      </trkpt>
      <trkpt lat="48.71351" lon="1.71999">
        <ele>146.39999389648</ele>
        <time>2012-07-25T08:49:34.000Z</time>
      </trkpt>
      <trkpt lat="48.71337" lon="1.71985">
        <ele>147.19999694824</ele>
        <time>2012-07-25T08:49:45.000Z</time>
      </trkpt>
      <trkpt lat="48.71334" lon="1.7198">
        <ele>147.39999389648</ele>
        <time>2012-07-25T08:49:49.000Z</time>
      </trkpt>
      <trkpt lat="48.71333" lon="1.71979">
        <ele>147.60000610352</ele>
        <time>2012-07-25T08:49:53.000Z</time>
      </trkpt>
      <trkpt lat="48.71329" lon="1.71975">
        <ele>148.19999694824</ele>
        <time>2012-07-25T08:49:59.000Z</time>
      </trkpt>
      <trkpt lat="48.7132" lon="1.71967">
        <ele>149.19999694824</ele>
        <time>2012-07-25T08:50:06.000Z</time>
      </trkpt>
      <trkpt lat="48.71314" lon="1.71955">
        <ele>150.19999694824</ele>
        <time>2012-07-25T08:50:13.000Z</time>
      </trkpt>
      <trkpt lat="48.71312" lon="1.71945">
        <ele>150.60000610352</ele>
        <time>2012-07-25T08:50:18.000Z</time>
      </trkpt>
      <trkpt lat="48.71313" lon="1.71929">
        <ele>151</ele>
        <time>2012-07-25T08:50:25.000Z</time>
      </trkpt>
      <trkpt lat="48.71313" lon="1.71928">
        <ele>151</ele>
        <time>2012-07-25T08:50:26.000Z</time>
      </trkpt>
      <trkpt lat="48.71315" lon="1.71914">
        <ele>151</ele>
        <time>2012-07-25T08:50:33.000Z</time>
      </trkpt>
      <trkpt lat="48.71318" lon="1.719">
        <ele>151</ele>
        <time>2012-07-25T08:50:40.000Z</time>
      </trkpt>
      <trkpt lat="48.71318" lon="1.71898">
        <ele>151</ele>
        <time>2012-07-25T08:50:41.000Z</time>
      </trkpt>
      <trkpt lat="48.71319" lon="1.71893">
        <ele>151</ele>
        <time>2012-07-25T08:50:44.000Z</time>
      </trkpt>
      <trkpt lat="48.7132" lon="1.71878">
        <ele>151</ele>
        <time>2012-07-25T08:50:51.000Z</time>
      </trkpt>
      <trkpt lat="48.71322" lon="1.71862">
        <ele>151</ele>
        <time>2012-07-25T08:50:58.000Z</time>
      </trkpt>
      <trkpt lat="48.71327" lon="1.71852">
        <ele>150.39999389648</ele>
        <time>2012-07-25T08:51:04.000Z</time>
      </trkpt>
      <trkpt lat="48.7133" lon="1.7184">
        <ele>150.39999389648</ele>
        <time>2012-07-25T08:51:10.000Z</time>
      </trkpt>
      <trkpt lat="48.7133" lon="1.71835">
        <ele>150.39999389648</ele>
        <time>2012-07-25T08:51:13.000Z</time>
      </trkpt>
      <trkpt lat="48.71328" lon="1.71827">
        <ele>150.39999389648</ele>
        <time>2012-07-25T08:51:18.000Z</time>
      </trkpt>
      <trkpt lat="48.71326" lon="1.71808">
        <ele>150</ele>
        <time>2012-07-25T08:51:27.000Z</time>
      </trkpt>
      <trkpt lat="48.71325" lon="1.71791">
        <ele>149.39999389648</ele>
        <time>2012-07-25T08:51:35.000Z</time>
      </trkpt>
      <trkpt lat="48.71323" lon="1.71765">
        <ele>148.60000610352</ele>
        <time>2012-07-25T08:51:48.000Z</time>
      </trkpt>
      <trkpt lat="48.71321" lon="1.71744">
        <ele>148</ele>
        <time>2012-07-25T08:51:58.000Z</time>
      </trkpt>
      <trkpt lat="48.71321" lon="1.71727">
        <ele>147.60000610352</ele>
        <time>2012-07-25T08:52:06.000Z</time>
      </trkpt>
      <trkpt lat="48.7132" lon="1.71707">
        <ele>147.39999389648</ele>
        <time>2012-07-25T08:52:15.000Z</time>
      </trkpt>
      <trkpt lat="48.7132" lon="1.71688">
        <ele>147</ele>
        <time>2012-07-25T08:52:24.000Z</time>
      </trkpt>
      <trkpt lat="48.71319" lon="1.71671">
        <ele>146.80000305176</ele>
        <time>2012-07-25T08:52:34.000Z</time>
      </trkpt>
      <trkpt lat="48.71319" lon="1.71653">
        <ele>146.19999694824</ele>
        <time>2012-07-25T08:52:42.000Z</time>
      </trkpt>
      <trkpt lat="48.71316" lon="1.71636">
        <ele>145.80000305176</ele>
        <time>2012-07-25T08:52:49.000Z</time>
      </trkpt>
      <trkpt lat="48.71315" lon="1.7162">
        <ele>145.19999694824</ele>
        <time>2012-07-25T08:52:57.000Z</time>
      </trkpt>
      <trkpt lat="48.71316" lon="1.71597">
        <ele>144.60000610352</ele>
        <time>2012-07-25T08:53:07.000Z</time>
      </trkpt>
      <trkpt lat="48.71318" lon="1.7158">
        <ele>143.80000305176</ele>
        <time>2012-07-25T08:53:16.000Z</time>
      </trkpt>
      <trkpt lat="48.71317" lon="1.71562">
        <ele>143.60000610352</ele>
        <time>2012-07-25T08:53:24.000Z</time>
      </trkpt>
      <trkpt lat="48.71317" lon="1.71543">
        <ele>143.39999389648</ele>
        <time>2012-07-25T08:53:33.000Z</time>
      </trkpt>
      <trkpt lat="48.71315" lon="1.7152">
        <ele>143.19999694824</ele>
        <time>2012-07-25T08:53:42.000Z</time>
      </trkpt>
      <trkpt lat="48.71316" lon="1.71505">
        <ele>143</ele>
        <time>2012-07-25T08:53:49.000Z</time>
      </trkpt>
      <trkpt lat="48.71315" lon="1.71491">
        <ele>142.80000305176</ele>
        <time>2012-07-25T08:53:55.000Z</time>
      </trkpt>
      <trkpt lat="48.71312" lon="1.71484">
        <ele>142.80000305176</ele>
        <time>2012-07-25T08:53:58.000Z</time>
      </trkpt>
      <trkpt lat="48.71312" lon="1.7147">
        <ele>142.80000305176</ele>
        <time>2012-07-25T08:54:05.000Z</time>
      </trkpt>
      <trkpt lat="48.7131" lon="1.71464">
        <ele>142.80000305176</ele>
        <time>2012-07-25T08:54:08.000Z</time>
      </trkpt>
      <trkpt lat="48.71307" lon="1.71459">
        <ele>143</ele>
        <time>2012-07-25T08:54:11.000Z</time>
      </trkpt>
      <trkpt lat="48.71305" lon="1.71451">
        <ele>143</ele>
        <time>2012-07-25T08:54:17.000Z</time>
      </trkpt>
      <trkpt lat="48.71305" lon="1.71449">
        <ele>143</ele>
        <time>2012-07-25T08:54:18.000Z</time>
      </trkpt>
      <trkpt lat="48.71301" lon="1.71435">
        <ele>143</ele>
        <time>2012-07-25T08:54:26.000Z</time>
      </trkpt>
      <trkpt lat="48.713" lon="1.71423">
        <ele>143</ele>
        <time>2012-07-25T08:54:32.000Z</time>
      </trkpt>
      <trkpt lat="48.71297" lon="1.7141">
        <ele>143</ele>
        <time>2012-07-25T08:54:39.000Z</time>
      </trkpt>
      <trkpt lat="48.71294" lon="1.7139">
        <ele>142.80000305176</ele>
        <time>2012-07-25T08:54:49.000Z</time>
      </trkpt>
      <trkpt lat="48.71293" lon="1.7138">
        <ele>142.80000305176</ele>
        <time>2012-07-25T08:54:54.000Z</time>
      </trkpt>
      <trkpt lat="48.71292" lon="1.71373">
        <ele>142.60000610352</ele>
        <time>2012-07-25T08:54:57.000Z</time>
      </trkpt>
      <trkpt lat="48.7129" lon="1.7136">
        <ele>142.60000610352</ele>
        <time>2012-07-25T08:55:03.000Z</time>
      </trkpt>
      <trkpt lat="48.71286" lon="1.71339">
        <ele>142.39999389648</ele>
        <time>2012-07-25T08:55:13.000Z</time>
      </trkpt>
      <trkpt lat="48.71284" lon="1.71319">
        <ele>142.19999694824</ele>
        <time>2012-07-25T08:55:22.000Z</time>
      </trkpt>
      <trkpt lat="48.71281" lon="1.713">
        <ele>142</ele>
        <time>2012-07-25T08:55:31.000Z</time>
      </trkpt>
      <trkpt lat="48.71276" lon="1.71279">
        <ele>141.80000305176</ele>
        <time>2012-07-25T08:55:41.000Z</time>
      </trkpt>
      <trkpt lat="48.71273" lon="1.71256">
        <ele>141.60000610352</ele>
        <time>2012-07-25T08:55:51.000Z</time>
      </trkpt>
      <trkpt lat="48.71271" lon="1.71235">
        <ele>141.39999389648</ele>
        <time>2012-07-25T08:56:00.000Z</time>
      </trkpt>
      <trkpt lat="48.71274" lon="1.71215">
        <ele>141.39999389648</ele>
        <time>2012-07-25T08:56:09.000Z</time>
      </trkpt>
      <trkpt lat="48.71274" lon="1.71195">
        <ele>141.19999694824</ele>
        <time>2012-07-25T08:56:18.000Z</time>
      </trkpt>
      <trkpt lat="48.71273" lon="1.71179">
        <ele>141.19999694824</ele>
        <time>2012-07-25T08:56:26.000Z</time>
      </trkpt>
      <trkpt lat="48.71269" lon="1.71158">
        <ele>141.39999389648</ele>
        <time>2012-07-25T08:56:35.000Z</time>
      </trkpt>
      <trkpt lat="48.71264" lon="1.71136">
        <ele>141.60000610352</ele>
        <time>2012-07-25T08:56:45.000Z</time>
      </trkpt>
      <trkpt lat="48.71256" lon="1.71114">
        <ele>141.80000305176</ele>
        <time>2012-07-25T08:56:56.000Z</time>
      </trkpt>
      <trkpt lat="48.71246" lon="1.7109">
        <ele>142.39999389648</ele>
        <time>2012-07-25T08:57:08.000Z</time>
      </trkpt>
      <trkpt lat="48.71238" lon="1.71072">
        <ele>143.19999694824</ele>
        <time>2012-07-25T08:57:17.000Z</time>
      </trkpt>
      <trkpt lat="48.71231" lon="1.71058">
        <ele>143.80000305176</ele>
        <time>2012-07-25T08:57:24.000Z</time>
      </trkpt>
      <trkpt lat="48.71222" lon="1.71039">
        <ele>144.60000610352</ele>
        <time>2012-07-25T08:57:34.000Z</time>
      </trkpt>
      <trkpt lat="48.71215" lon="1.7102">
        <ele>145.19999694824</ele>
        <time>2012-07-25T08:57:43.000Z</time>
      </trkpt>
      <trkpt lat="48.71212" lon="1.71002">
        <ele>145.19999694824</ele>
        <time>2012-07-25T08:57:49.000Z</time>
      </trkpt>
      <trkpt lat="48.71211" lon="1.70983">
        <ele>145.60000610352</ele>
        <time>2012-07-25T08:57:57.000Z</time>
      </trkpt>
      <trkpt lat="48.7121" lon="1.70965">
        <ele>146</ele>
        <time>2012-07-25T08:58:05.000Z</time>
      </trkpt>
      <trkpt lat="48.7121" lon="1.70949">
        <ele>146.19999694824</ele>
        <time>2012-07-25T08:58:12.000Z</time>
      </trkpt>
      <trkpt lat="48.7121" lon="1.70932">
        <ele>146.60000610352</ele>
        <time>2012-07-25T08:58:18.000Z</time>
      </trkpt>
      <trkpt lat="48.7121" lon="1.70917">
        <ele>146.80000305176</ele>
        <time>2012-07-25T08:58:24.000Z</time>
      </trkpt>
      <trkpt lat="48.71208" lon="1.70905">
        <ele>147.60000610352</ele>
        <time>2012-07-25T08:58:29.000Z</time>
      </trkpt>
      <trkpt lat="48.71205" lon="1.70882">
        <ele>149</ele>
        <time>2012-07-25T08:58:37.000Z</time>
      </trkpt>
      <trkpt lat="48.71208" lon="1.70869">
        <ele>149.39999389648</ele>
        <time>2012-07-25T08:58:44.000Z</time>
      </trkpt>
      <trkpt lat="48.71209" lon="1.70859">
        <ele>149.60000610352</ele>
        <time>2012-07-25T08:58:48.000Z</time>
      </trkpt>
      <trkpt lat="48.71215" lon="1.70838">
        <ele>150.19999694824</ele>
        <time>2012-07-25T08:58:58.000Z</time>
      </trkpt>
      <trkpt lat="48.71218" lon="1.70824">
        <ele>150</ele>
        <time>2012-07-25T08:59:05.000Z</time>
      </trkpt>
      <trkpt lat="48.71219" lon="1.70809">
        <ele>149.80000305176</ele>
        <time>2012-07-25T08:59:13.000Z</time>
      </trkpt>
      <trkpt lat="48.71217" lon="1.70794">
        <ele>149.80000305176</ele>
        <time>2012-07-25T08:59:20.000Z</time>
      </trkpt>
      <trkpt lat="48.71218" lon="1.70778">
        <ele>149.60000610352</ele>
        <time>2012-07-25T08:59:28.000Z</time>
      </trkpt>
      <trkpt lat="48.71218" lon="1.70761">
        <ele>149.39999389648</ele>
        <time>2012-07-25T08:59:36.000Z</time>
      </trkpt>
      <trkpt lat="48.71218" lon="1.70748">
        <ele>149.19999694824</ele>
        <time>2012-07-25T08:59:42.000Z</time>
      </trkpt>
      <trkpt lat="48.71219" lon="1.70746">
        <ele>149.19999694824</ele>
        <time>2012-07-25T08:59:43.000Z</time>
      </trkpt>
      <trkpt lat="48.7122" lon="1.70727">
        <ele>149.19999694824</ele>
        <time>2012-07-25T08:59:52.000Z</time>
      </trkpt>
      <trkpt lat="48.71222" lon="1.70706">
        <ele>149</ele>
        <time>2012-07-25T09:00:02.000Z</time>
      </trkpt>
      <trkpt lat="48.71224" lon="1.70681">
        <ele>148.80000305176</ele>
        <time>2012-07-25T09:00:14.000Z</time>
      </trkpt>
      <trkpt lat="48.71224" lon="1.7066">
        <ele>148.80000305176</ele>
        <time>2012-07-25T09:00:23.000Z</time>
      </trkpt>
      <trkpt lat="48.7122" lon="1.70633">
        <ele>149</ele>
        <time>2012-07-25T09:00:35.000Z</time>
      </trkpt>
      <trkpt lat="48.71217" lon="1.70611">
        <ele>149</ele>
        <time>2012-07-25T09:00:45.000Z</time>
      </trkpt>
      <trkpt lat="48.71214" lon="1.70595">
        <ele>149</ele>
        <time>2012-07-25T09:00:52.000Z</time>
      </trkpt>
      <trkpt lat="48.7121" lon="1.70582">
        <ele>149.39999389648</ele>
        <time>2012-07-25T09:00:59.000Z</time>
      </trkpt>
      <trkpt lat="48.71204" lon="1.70569">
        <ele>149.39999389648</ele>
        <time>2012-07-25T09:01:06.000Z</time>
      </trkpt>
      <trkpt lat="48.712" lon="1.70556">
        <ele>149.19999694824</ele>
        <time>2012-07-25T09:01:13.000Z</time>
      </trkpt>
      <trkpt lat="48.71198" lon="1.70551">
        <ele>149.19999694824</ele>
        <time>2012-07-25T09:01:16.000Z</time>
      </trkpt>
      <trkpt lat="48.71197" lon="1.70545">
        <ele>149</ele>
        <time>2012-07-25T09:01:22.000Z</time>
      </trkpt>
      <trkpt lat="48.71195" lon="1.70539">
        <ele>149</ele>
        <time>2012-07-25T09:01:37.000Z</time>
      </trkpt>
      <trkpt lat="48.71194" lon="1.70523">
        <ele>148.60000610352</ele>
        <time>2012-07-25T09:01:43.000Z</time>
      </trkpt>
      <trkpt lat="48.71192" lon="1.70506">
        <ele>148</ele>
        <time>2012-07-25T09:01:50.000Z</time>
      </trkpt>
      <trkpt lat="48.71188" lon="1.70487">
        <ele>147.60000610352</ele>
        <time>2012-07-25T09:01:59.000Z</time>
      </trkpt>
      <trkpt lat="48.7118" lon="1.70473">
        <ele>147.39999389648</ele>
        <time>2012-07-25T09:02:07.000Z</time>
      </trkpt>
      <trkpt lat="48.71176" lon="1.7046">
        <ele>147</ele>
        <time>2012-07-25T09:02:14.000Z</time>
      </trkpt>
      <trkpt lat="48.71175" lon="1.70458">
        <ele>147</ele>
        <time>2012-07-25T09:02:15.000Z</time>
      </trkpt>
      <trkpt lat="48.71171" lon="1.70445">
        <ele>146.39999389648</ele>
        <time>2012-07-25T09:02:23.000Z</time>
      </trkpt>
      <trkpt lat="48.71163" lon="1.70425">
        <ele>145.39999389648</ele>
        <time>2012-07-25T09:02:32.000Z</time>
      </trkpt>
      <trkpt lat="48.7116" lon="1.70407">
        <ele>145</ele>
        <time>2012-07-25T09:02:40.000Z</time>
      </trkpt>
      <trkpt lat="48.71157" lon="1.70383">
        <ele>145.19999694824</ele>
        <time>2012-07-25T09:02:50.000Z</time>
      </trkpt>
      <trkpt lat="48.71159" lon="1.70364">
        <ele>145.19999694824</ele>
        <time>2012-07-25T09:02:58.000Z</time>
      </trkpt>
      <trkpt lat="48.7116" lon="1.7035">
        <ele>145.19999694824</ele>
        <time>2012-07-25T09:03:04.000Z</time>
      </trkpt>
      <trkpt lat="48.71161" lon="1.70333">
        <ele>145.39999389648</ele>
        <time>2012-07-25T09:03:11.000Z</time>
      </trkpt>
      <trkpt lat="48.71158" lon="1.70316">
        <ele>145.80000305176</ele>
        <time>2012-07-25T09:03:18.000Z</time>
      </trkpt>
      <trkpt lat="48.71157" lon="1.70313">
        <ele>146</ele>
        <time>2012-07-25T09:03:19.000Z</time>
      </trkpt>
      <trkpt lat="48.7116" lon="1.70303">
        <ele>146</ele>
        <time>2012-07-25T09:03:26.000Z</time>
      </trkpt>
      <trkpt lat="48.71163" lon="1.70289">
        <ele>146.19999694824</ele>
        <time>2012-07-25T09:03:32.000Z</time>
      </trkpt>
      <trkpt lat="48.71164" lon="1.70281">
        <ele>146.39999389648</ele>
        <time>2012-07-25T09:03:35.000Z</time>
      </trkpt>
      <trkpt lat="48.71164" lon="1.70269">
        <ele>146.80000305176</ele>
        <time>2012-07-25T09:03:39.000Z</time>
      </trkpt>
      <trkpt lat="48.71164" lon="1.70251">
        <ele>147.19999694824</ele>
        <time>2012-07-25T09:03:47.000Z</time>
      </trkpt>
      <trkpt lat="48.7117" lon="1.70241">
        <ele>146.60000610352</ele>
        <time>2012-07-25T09:03:53.000Z</time>
      </trkpt>
      <trkpt lat="48.71172" lon="1.70238">
        <ele>146.39999389648</ele>
        <time>2012-07-25T09:03:55.000Z</time>
      </trkpt>
      <trkpt lat="48.7118" lon="1.70224">
        <ele>145.60000610352</ele>
        <time>2012-07-25T09:04:03.000Z</time>
      </trkpt>
      <trkpt lat="48.71186" lon="1.7021">
        <ele>145</ele>
        <time>2012-07-25T09:04:10.000Z</time>
      </trkpt>
      <trkpt lat="48.71186" lon="1.70206">
        <ele>145</ele>
        <time>2012-07-25T09:04:11.000Z</time>
      </trkpt>
      <trkpt lat="48.71189" lon="1.70188">
        <ele>144.80000305176</ele>
        <time>2012-07-25T09:04:18.000Z</time>
      </trkpt>
      <trkpt lat="48.71193" lon="1.70167">
        <ele>144.60000610352</ele>
        <time>2012-07-25T09:04:27.000Z</time>
      </trkpt>
      <trkpt lat="48.71196" lon="1.70153">
        <ele>144.60000610352</ele>
        <time>2012-07-25T09:04:34.000Z</time>
      </trkpt>
      <trkpt lat="48.71201" lon="1.70137">
        <ele>144.60000610352</ele>
        <time>2012-07-25T09:04:42.000Z</time>
      </trkpt>
      <trkpt lat="48.71204" lon="1.70125">
        <ele>144.60000610352</ele>
        <time>2012-07-25T09:04:48.000Z</time>
      </trkpt>
      <trkpt lat="48.71208" lon="1.70109">
        <ele>144.80000305176</ele>
        <time>2012-07-25T09:04:55.000Z</time>
      </trkpt>
      <trkpt lat="48.71211" lon="1.70086">
        <ele>145.19999694824</ele>
        <time>2012-07-25T09:05:06.000Z</time>
      </trkpt>
      <trkpt lat="48.71212" lon="1.70075">
        <ele>145.39999389648</ele>
        <time>2012-07-25T09:05:12.000Z</time>
      </trkpt>
      <trkpt lat="48.71213" lon="1.70072">
        <ele>145.39999389648</ele>
        <time>2012-07-25T09:05:14.000Z</time>
      </trkpt>
      <trkpt lat="48.71218" lon="1.70056">
        <ele>145.39999389648</ele>
        <time>2012-07-25T09:05:22.000Z</time>
      </trkpt>
      <trkpt lat="48.71221" lon="1.70034">
        <ele>145.80000305176</ele>
        <time>2012-07-25T09:05:31.000Z</time>
      </trkpt>
      <trkpt lat="48.71223" lon="1.70016">
        <ele>146.19999694824</ele>
        <time>2012-07-25T09:05:38.000Z</time>
      </trkpt>
      <trkpt lat="48.71224" lon="1.70003">
        <ele>146.39999389648</ele>
        <time>2012-07-25T09:05:43.000Z</time>
      </trkpt>
      <trkpt lat="48.71227" lon="1.69981">
        <ele>146.60000610352</ele>
        <time>2012-07-25T09:05:52.000Z</time>
      </trkpt>
      <trkpt lat="48.7123" lon="1.69967">
        <ele>146.39999389648</ele>
        <time>2012-07-25T09:05:59.000Z</time>
      </trkpt>
      <trkpt lat="48.71232" lon="1.69965">
        <ele>146.39999389648</ele>
        <time>2012-07-25T09:06:01.000Z</time>
      </trkpt>
      <trkpt lat="48.71231" lon="1.69956">
        <ele>146.60000610352</ele>
        <time>2012-07-25T09:06:06.000Z</time>
      </trkpt>
      <trkpt lat="48.71231" lon="1.69945">
        <ele>146.60000610352</ele>
        <time>2012-07-25T09:06:11.000Z</time>
      </trkpt>
      <trkpt lat="48.71231" lon="1.69922">
        <ele>146.80000305176</ele>
        <time>2012-07-25T09:06:21.000Z</time>
      </trkpt>
      <trkpt lat="48.71233" lon="1.69901">
        <ele>147</ele>
        <time>2012-07-25T09:06:31.000Z</time>
      </trkpt>
      <trkpt lat="48.71235" lon="1.69882">
        <ele>147</ele>
        <time>2012-07-25T09:06:40.000Z</time>
      </trkpt>
      <trkpt lat="48.71236" lon="1.69862">
        <ele>147</ele>
        <time>2012-07-25T09:06:49.000Z</time>
      </trkpt>
      <trkpt lat="48.71238" lon="1.69843">
        <ele>147.19999694824</ele>
        <time>2012-07-25T09:06:58.000Z</time>
      </trkpt>
      <trkpt lat="48.71238" lon="1.69818">
        <ele>147.39999389648</ele>
        <time>2012-07-25T09:07:08.000Z</time>
      </trkpt>
      <trkpt lat="48.71243" lon="1.69796">
        <ele>147.60000610352</ele>
        <time>2012-07-25T09:07:19.000Z</time>
      </trkpt>
      <trkpt lat="48.71246" lon="1.69775">
        <ele>147.80000305176</ele>
        <time>2012-07-25T09:07:29.000Z</time>
      </trkpt>
      <trkpt lat="48.7125" lon="1.69759">
        <ele>147.80000305176</ele>
        <time>2012-07-25T09:07:37.000Z</time>
      </trkpt>
      <trkpt lat="48.71253" lon="1.69741">
        <ele>148.19999694824</ele>
        <time>2012-07-25T09:07:46.000Z</time>
      </trkpt>
      <trkpt lat="48.71257" lon="1.69721">
        <ele>148.80000305176</ele>
        <time>2012-07-25T09:07:56.000Z</time>
      </trkpt>
      <trkpt lat="48.7126" lon="1.69699">
        <ele>149.39999389648</ele>
        <time>2012-07-25T09:08:06.000Z</time>
      </trkpt>
      <trkpt lat="48.7126" lon="1.69679">
        <ele>150.19999694824</ele>
        <time>2012-07-25T09:08:15.000Z</time>
      </trkpt>
      <trkpt lat="48.71263" lon="1.69665">
        <ele>150.60000610352</ele>
        <time>2012-07-25T09:08:23.000Z</time>
      </trkpt>
      <trkpt lat="48.71264" lon="1.69664">
        <ele>150.60000610352</ele>
        <time>2012-07-25T09:08:24.000Z</time>
      </trkpt>
      <trkpt lat="48.71269" lon="1.69648">
        <ele>150.80000305176</ele>
        <time>2012-07-25T09:08:32.000Z</time>
      </trkpt>
      <trkpt lat="48.71272" lon="1.69635">
        <ele>151.19999694824</ele>
        <time>2012-07-25T09:08:39.000Z</time>
      </trkpt>
      <trkpt lat="48.71273" lon="1.6963">
        <ele>151.19999694824</ele>
        <time>2012-07-25T09:08:43.000Z</time>
      </trkpt>
      <trkpt lat="48.71275" lon="1.69614">
        <ele>151.60000610352</ele>
        <time>2012-07-25T09:08:50.000Z</time>
      </trkpt>
      <trkpt lat="48.71276" lon="1.69593">
        <ele>152.19999694824</ele>
        <time>2012-07-25T09:08:59.000Z</time>
      </trkpt>
      <trkpt lat="48.71277" lon="1.69581">
        <ele>152.19999694824</ele>
        <time>2012-07-25T09:09:04.000Z</time>
      </trkpt>
      <trkpt lat="48.71278" lon="1.69566">
        <ele>151.80000305176</ele>
        <time>2012-07-25T09:09:10.000Z</time>
      </trkpt>
      <trkpt lat="48.71282" lon="1.69551">
        <ele>151</ele>
        <time>2012-07-25T09:09:18.000Z</time>
      </trkpt>
      <trkpt lat="48.71283" lon="1.69531">
        <ele>150.19999694824</ele>
        <time>2012-07-25T09:09:25.000Z</time>
      </trkpt>
      <trkpt lat="48.71284" lon="1.69512">
        <ele>149.60000610352</ele>
        <time>2012-07-25T09:09:33.000Z</time>
      </trkpt>
      <trkpt lat="48.71285" lon="1.69498">
        <ele>149</ele>
        <time>2012-07-25T09:09:40.000Z</time>
      </trkpt>
      <trkpt lat="48.71288" lon="1.69481">
        <ele>147.60000610352</ele>
        <time>2012-07-25T09:09:48.000Z</time>
      </trkpt>
      <trkpt lat="48.7129" lon="1.69465">
        <ele>146.19999694824</ele>
        <time>2012-07-25T09:09:55.000Z</time>
      </trkpt>
      <trkpt lat="48.71295" lon="1.69447">
        <ele>144.80000305176</ele>
        <time>2012-07-25T09:10:03.000Z</time>
      </trkpt>
      <trkpt lat="48.71295" lon="1.69443">
        <ele>144.60000610352</ele>
        <time>2012-07-25T09:10:05.000Z</time>
      </trkpt>
      <trkpt lat="48.71297" lon="1.69434">
        <ele>143.80000305176</ele>
        <time>2012-07-25T09:10:09.000Z</time>
      </trkpt>
      <trkpt lat="48.71302" lon="1.6941">
        <ele>142.19999694824</ele>
        <time>2012-07-25T09:10:19.000Z</time>
      </trkpt>
      <trkpt lat="48.71306" lon="1.69394">
        <ele>141.60000610352</ele>
        <time>2012-07-25T09:10:26.000Z</time>
      </trkpt>
      <trkpt lat="48.7131" lon="1.69373">
        <ele>140.60000610352</ele>
        <time>2012-07-25T09:10:36.000Z</time>
      </trkpt>
      <trkpt lat="48.71313" lon="1.69357">
        <ele>139.80000305176</ele>
        <time>2012-07-25T09:10:43.000Z</time>
      </trkpt>
      <trkpt lat="48.71316" lon="1.69337">
        <ele>138.80000305176</ele>
        <time>2012-07-25T09:10:51.000Z</time>
      </trkpt>
      <trkpt lat="48.71317" lon="1.6933">
        <ele>138.60000610352</ele>
        <time>2012-07-25T09:10:54.000Z</time>
      </trkpt>
      <trkpt lat="48.71316" lon="1.69329">
        <ele>138.80000305176</ele>
        <time>2012-07-25T09:10:57.000Z</time>
      </trkpt>
      <trkpt lat="48.71319" lon="1.6932">
        <ele>138.60000610352</ele>
        <time>2012-07-25T09:11:05.000Z</time>
      </trkpt>
      <trkpt lat="48.71324" lon="1.69303">
        <ele>138.39999389648</ele>
        <time>2012-07-25T09:11:12.000Z</time>
      </trkpt>
      <trkpt lat="48.71326" lon="1.69287">
        <ele>138.60000610352</ele>
        <time>2012-07-25T09:11:19.000Z</time>
      </trkpt>
      <trkpt lat="48.71328" lon="1.69272">
        <ele>138.80000305176</ele>
        <time>2012-07-25T09:11:26.000Z</time>
      </trkpt>
      <trkpt lat="48.71331" lon="1.69252">
        <ele>139.19999694824</ele>
        <time>2012-07-25T09:11:34.000Z</time>
      </trkpt>
      <trkpt lat="48.7133" lon="1.69236">
        <ele>138.80000305176</ele>
        <time>2012-07-25T09:11:42.000Z</time>
      </trkpt>
      <trkpt lat="48.71334" lon="1.69226">
        <ele>138.39999389648</ele>
        <time>2012-07-25T09:11:48.000Z</time>
      </trkpt>
      <trkpt lat="48.71333" lon="1.69206">
        <ele>138</ele>
        <time>2012-07-25T09:11:58.000Z</time>
      </trkpt>
      <trkpt lat="48.71334" lon="1.69189">
        <ele>137.39999389648</ele>
        <time>2012-07-25T09:12:06.000Z</time>
      </trkpt>
      <trkpt lat="48.71338" lon="1.69166">
        <ele>136.80000305176</ele>
        <time>2012-07-25T09:12:17.000Z</time>
      </trkpt>
      <trkpt lat="48.71343" lon="1.69142">
        <ele>138.19999694824</ele>
        <time>2012-07-25T09:12:28.000Z</time>
      </trkpt>
      <trkpt lat="48.71347" lon="1.69132">
        <ele>138.60000610352</ele>
        <time>2012-07-25T09:12:34.000Z</time>
      </trkpt>
      <trkpt lat="48.71354" lon="1.69116">
        <ele>139</ele>
        <time>2012-07-25T09:12:43.000Z</time>
      </trkpt>
      <trkpt lat="48.71355" lon="1.69102">
        <ele>139.80000305176</ele>
        <time>2012-07-25T09:12:50.000Z</time>
      </trkpt>
      <trkpt lat="48.71356" lon="1.69096">
        <ele>140</ele>
        <time>2012-07-25T09:12:56.000Z</time>
      </trkpt>
      <trkpt lat="48.71357" lon="1.69088">
        <ele>140.39999389648</ele>
        <time>2012-07-25T09:13:06.000Z</time>
      </trkpt>
      <trkpt lat="48.71359" lon="1.69075">
        <ele>141</ele>
        <time>2012-07-25T09:13:12.000Z</time>
      </trkpt>
      <trkpt lat="48.71364" lon="1.69064">
        <ele>141</ele>
        <time>2012-07-25T09:13:19.000Z</time>
      </trkpt>
      <trkpt lat="48.71373" lon="1.69051">
        <ele>140.60000610352</ele>
        <time>2012-07-25T09:13:29.000Z</time>
      </trkpt>
      <trkpt lat="48.71382" lon="1.69037">
        <ele>140.19999694824</ele>
        <time>2012-07-25T09:13:38.000Z</time>
      </trkpt>
      <trkpt lat="48.71388" lon="1.69027">
        <ele>139.80000305176</ele>
        <time>2012-07-25T09:13:45.000Z</time>
      </trkpt>
      <trkpt lat="48.71396" lon="1.69014">
        <ele>139.19999694824</ele>
        <time>2012-07-25T09:13:53.000Z</time>
      </trkpt>
      <trkpt lat="48.71406" lon="1.6899">
        <ele>138.80000305176</ele>
        <time>2012-07-25T09:14:04.000Z</time>
      </trkpt>
      <trkpt lat="48.71415" lon="1.68964">
        <ele>138.39999389648</ele>
        <time>2012-07-25T09:14:15.000Z</time>
      </trkpt>
      <trkpt lat="48.71419" lon="1.68954">
        <ele>138.39999389648</ele>
        <time>2012-07-25T09:14:20.000Z</time>
      </trkpt>
      <trkpt lat="48.71426" lon="1.68946">
        <ele>138</ele>
        <time>2012-07-25T09:14:26.000Z</time>
      </trkpt>
      <trkpt lat="48.71432" lon="1.68934">
        <ele>137.80000305176</ele>
        <time>2012-07-25T09:14:33.000Z</time>
      </trkpt>
      <trkpt lat="48.7143" lon="1.68922">
        <ele>138.39999389648</ele>
        <time>2012-07-25T09:14:39.000Z</time>
      </trkpt>
      <trkpt lat="48.71425" lon="1.6891">
        <ele>139.19999694824</ele>
        <time>2012-07-25T09:14:45.000Z</time>
      </trkpt>
      <trkpt lat="48.71417" lon="1.68883">
        <ele>141.19999694824</ele>
        <time>2012-07-25T09:14:51.000Z</time>
      </trkpt>
      <trkpt lat="48.71412" lon="1.68869">
        <ele>142.39999389648</ele>
        <time>2012-07-25T09:14:55.000Z</time>
      </trkpt>
      <trkpt lat="48.71407" lon="1.68855">
        <ele>143.39999389648</ele>
        <time>2012-07-25T09:15:02.000Z</time>
      </trkpt>
      <trkpt lat="48.71403" lon="1.68841">
        <ele>144.39999389648</ele>
        <time>2012-07-25T09:15:08.000Z</time>
      </trkpt>
      <trkpt lat="48.71401" lon="1.68836">
        <ele>145</ele>
        <time>2012-07-25T09:15:11.000Z</time>
      </trkpt>
      <trkpt lat="48.71398" lon="1.68826">
        <ele>145.80000305176</ele>
        <time>2012-07-25T09:15:16.000Z</time>
      </trkpt>
      <trkpt lat="48.71393" lon="1.68809">
        <ele>147</ele>
        <time>2012-07-25T09:15:25.000Z</time>
      </trkpt>
      <trkpt lat="48.71391" lon="1.688">
        <ele>147.60000610352</ele>
        <time>2012-07-25T09:15:31.000Z</time>
      </trkpt>
      <trkpt lat="48.71386" lon="1.68789">
        <ele>148.39999389648</ele>
        <time>2012-07-25T09:15:38.000Z</time>
      </trkpt>
      <trkpt lat="48.71384" lon="1.68783">
        <ele>148.80000305176</ele>
        <time>2012-07-25T09:15:40.000Z</time>
      </trkpt>
      <trkpt lat="48.71378" lon="1.68767">
        <ele>149.80000305176</ele>
        <time>2012-07-25T09:15:46.000Z</time>
      </trkpt>
      <trkpt lat="48.71375" lon="1.68754">
        <ele>150.39999389648</ele>
        <time>2012-07-25T09:15:53.000Z</time>
      </trkpt>
      <trkpt lat="48.7137" lon="1.68742">
        <ele>150.80000305176</ele>
        <time>2012-07-25T09:15:59.000Z</time>
      </trkpt>
      <trkpt lat="48.71368" lon="1.68733">
        <ele>151</ele>
        <time>2012-07-25T09:16:05.000Z</time>
      </trkpt>
      <trkpt lat="48.71362" lon="1.68718">
        <ele>151.39999389648</ele>
        <time>2012-07-25T09:16:12.000Z</time>
      </trkpt>
      <trkpt lat="48.71358" lon="1.68706">
        <ele>151.80000305176</ele>
        <time>2012-07-25T09:16:19.000Z</time>
      </trkpt>
      <trkpt lat="48.71354" lon="1.68692">
        <ele>152.19999694824</ele>
        <time>2012-07-25T09:16:26.000Z</time>
      </trkpt>
      <trkpt lat="48.71347" lon="1.68678">
        <ele>152.80000305176</ele>
        <time>2012-07-25T09:16:33.000Z</time>
      </trkpt>
      <trkpt lat="48.71343" lon="1.68664">
        <ele>153</ele>
        <time>2012-07-25T09:16:41.000Z</time>
      </trkpt>
      <trkpt lat="48.71339" lon="1.6865">
        <ele>153.19999694824</ele>
        <time>2012-07-25T09:16:48.000Z</time>
      </trkpt>
      <trkpt lat="48.71332" lon="1.68634">
        <ele>153.39999389648</ele>
        <time>2012-07-25T09:16:55.000Z</time>
      </trkpt>
      <trkpt lat="48.71326" lon="1.68618">
        <ele>153.80000305176</ele>
        <time>2012-07-25T09:17:03.000Z</time>
      </trkpt>
      <trkpt lat="48.71325" lon="1.68605">
        <ele>153.80000305176</ele>
        <time>2012-07-25T09:17:10.000Z</time>
      </trkpt>
      <trkpt lat="48.71324" lon="1.68587">
        <ele>153.39999389648</ele>
        <time>2012-07-25T09:17:19.000Z</time>
      </trkpt>
      <trkpt lat="48.7132" lon="1.6857">
        <ele>153.39999389648</ele>
        <time>2012-07-25T09:17:26.000Z</time>
      </trkpt>
      <trkpt lat="48.71314" lon="1.68545">
        <ele>153.19999694824</ele>
        <time>2012-07-25T09:17:36.000Z</time>
      </trkpt>
      <trkpt lat="48.71313" lon="1.68533">
        <ele>153</ele>
        <time>2012-07-25T09:17:42.000Z</time>
      </trkpt>
      <trkpt lat="48.71308" lon="1.68516">
        <ele>153</ele>
        <time>2012-07-25T09:17:49.000Z</time>
      </trkpt>
      <trkpt lat="48.71303" lon="1.68497">
        <ele>152.80000305176</ele>
        <time>2012-07-25T09:17:57.000Z</time>
      </trkpt>
      <trkpt lat="48.71298" lon="1.68481">
        <ele>153</ele>
        <time>2012-07-25T09:18:05.000Z</time>
      </trkpt>
      <trkpt lat="48.71291" lon="1.68469">
        <ele>153.19999694824</ele>
        <time>2012-07-25T09:18:11.000Z</time>
      </trkpt>
      <trkpt lat="48.71279" lon="1.68455">
        <ele>154</ele>
        <time>2012-07-25T09:18:20.000Z</time>
      </trkpt>
      <trkpt lat="48.71267" lon="1.68448">
        <ele>155</ele>
        <time>2012-07-25T09:18:28.000Z</time>
      </trkpt>
      <trkpt lat="48.71257" lon="1.6844">
        <ele>155.60000610352</ele>
        <time>2012-07-25T09:18:35.000Z</time>
      </trkpt>
      <trkpt lat="48.71248" lon="1.68433">
        <ele>156.19999694824</ele>
        <time>2012-07-25T09:18:42.000Z</time>
      </trkpt>
      <trkpt lat="48.71242" lon="1.68428">
        <ele>156.60000610352</ele>
        <time>2012-07-25T09:18:47.000Z</time>
      </trkpt>
      <trkpt lat="48.71236" lon="1.68415">
        <ele>156.80000305176</ele>
        <time>2012-07-25T09:18:55.000Z</time>
      </trkpt>
      <trkpt lat="48.71235" lon="1.68413">
        <ele>156.80000305176</ele>
        <time>2012-07-25T09:18:56.000Z</time>
      </trkpt>
      <trkpt lat="48.7123" lon="1.684">
        <ele>157.39999389648</ele>
        <time>2012-07-25T09:19:02.000Z</time>
      </trkpt>
      <trkpt lat="48.71223" lon="1.6838">
        <ele>158</ele>
        <time>2012-07-25T09:19:10.000Z</time>
      </trkpt>
      <trkpt lat="48.71218" lon="1.68368">
        <ele>158.60000610352</ele>
        <time>2012-07-25T09:19:16.000Z</time>
      </trkpt>
      <trkpt lat="48.71215" lon="1.68353">
        <ele>159</ele>
        <time>2012-07-25T09:19:22.000Z</time>
      </trkpt>
      <trkpt lat="48.71213" lon="1.68346">
        <ele>159.19999694824</ele>
        <time>2012-07-25T09:19:24.000Z</time>
      </trkpt>
      <trkpt lat="48.71204" lon="1.68318">
        <ele>161.19999694824</ele>
        <time>2012-07-25T09:19:30.000Z</time>
      </trkpt>
      <trkpt lat="48.71203" lon="1.68307">
        <ele>161.39999389648</ele>
        <time>2012-07-25T09:19:33.000Z</time>
      </trkpt>
      <trkpt lat="48.71199" lon="1.68293">
        <ele>162.39999389648</ele>
        <time>2012-07-25T09:19:38.000Z</time>
      </trkpt>
      <trkpt lat="48.71196" lon="1.68278">
        <ele>163.60000610352</ele>
        <time>2012-07-25T09:19:44.000Z</time>
      </trkpt>
      <trkpt lat="48.71192" lon="1.6826">
        <ele>164.60000610352</ele>
        <time>2012-07-25T09:19:51.000Z</time>
      </trkpt>
      <trkpt lat="48.71191" lon="1.68247">
        <ele>165.19999694824</ele>
        <time>2012-07-25T09:19:58.000Z</time>
      </trkpt>
      <trkpt lat="48.7119" lon="1.68244">
        <ele>165.39999389648</ele>
        <time>2012-07-25T09:19:59.000Z</time>
      </trkpt>
      <trkpt lat="48.71191" lon="1.6823">
        <ele>165</ele>
        <time>2012-07-25T09:20:05.000Z</time>
      </trkpt>
      <trkpt lat="48.71189" lon="1.68213">
        <ele>165.60000610352</ele>
        <time>2012-07-25T09:20:13.000Z</time>
      </trkpt>
      <trkpt lat="48.71189" lon="1.68211">
        <ele>165.60000610352</ele>
        <time>2012-07-25T09:20:14.000Z</time>
      </trkpt>
      <trkpt lat="48.71188" lon="1.68195">
        <ele>165.80000305176</ele>
        <time>2012-07-25T09:20:22.000Z</time>
      </trkpt>
      <trkpt lat="48.71188" lon="1.68194">
        <ele>165.80000305176</ele>
        <time>2012-07-25T09:20:23.000Z</time>
      </trkpt>
      <trkpt lat="48.7119" lon="1.68182">
        <ele>165.19999694824</ele>
        <time>2012-07-25T09:20:30.000Z</time>
      </trkpt>
      <trkpt lat="48.71189" lon="1.68172">
        <ele>165.39999389648</ele>
        <time>2012-07-25T09:20:36.000Z</time>
      </trkpt>
      <trkpt lat="48.71184" lon="1.6815">
        <ele>166.80000305176</ele>
        <time>2012-07-25T09:20:42.000Z</time>
      </trkpt>
      <trkpt lat="48.71177" lon="1.68135">
        <ele>168.39999389648</ele>
        <time>2012-07-25T09:20:47.000Z</time>
      </trkpt>
      <trkpt lat="48.71171" lon="1.68129">
        <ele>169.60000610352</ele>
        <time>2012-07-25T09:20:52.000Z</time>
      </trkpt>
      <trkpt lat="48.71161" lon="1.68118">
        <ele>171.19999694824</ele>
        <time>2012-07-25T09:20:59.000Z</time>
      </trkpt>
      <trkpt lat="48.71156" lon="1.68111">
        <ele>171.80000305176</ele>
        <time>2012-07-25T09:21:03.000Z</time>
      </trkpt>
      <trkpt lat="48.71147" lon="1.68098">
        <ele>173</ele>
        <time>2012-07-25T09:21:11.000Z</time>
      </trkpt>
      <trkpt lat="48.71144" lon="1.68095">
        <ele>173.39999389648</ele>
        <time>2012-07-25T09:21:14.000Z</time>
      </trkpt>
      <trkpt lat="48.7114" lon="1.68092">
        <ele>173.80000305176</ele>
        <time>2012-07-25T09:21:18.000Z</time>
      </trkpt>
      <trkpt lat="48.71133" lon="1.68091">
        <ele>174.60000610352</ele>
        <time>2012-07-25T09:21:23.000Z</time>
      </trkpt>
      <trkpt lat="48.71122" lon="1.68084">
        <ele>175.80000305176</ele>
        <time>2012-07-25T09:21:31.000Z</time>
      </trkpt>
      <trkpt lat="48.71113" lon="1.6808">
        <ele>176.60000610352</ele>
        <time>2012-07-25T09:21:38.000Z</time>
      </trkpt>
      <trkpt lat="48.71102" lon="1.68078">
        <ele>177.60000610352</ele>
        <time>2012-07-25T09:21:46.000Z</time>
      </trkpt>
      <trkpt lat="48.7109" lon="1.68075">
        <ele>178.80000305176</ele>
        <time>2012-07-25T09:21:55.000Z</time>
      </trkpt>
      <trkpt lat="48.71083" lon="1.68073">
        <ele>179.60000610352</ele>
        <time>2012-07-25T09:22:00.000Z</time>
      </trkpt>
      <trkpt lat="48.71074" lon="1.6807">
        <ele>179.80000305176</ele>
        <time>2012-07-25T09:22:06.000Z</time>
      </trkpt>
      <trkpt lat="48.71071" lon="1.68069">
        <ele>179.80000305176</ele>
        <time>2012-07-25T09:22:08.000Z</time>
      </trkpt>
      <trkpt lat="48.71059" lon="1.68067">
        <ele>180.19999694824</ele>
        <time>2012-07-25T09:22:16.000Z</time>
      </trkpt>
      <trkpt lat="48.71049" lon="1.68065">
        <ele>180.39999389648</ele>
        <time>2012-07-25T09:22:23.000Z</time>
      </trkpt>
      <trkpt lat="48.71041" lon="1.68064">
        <ele>180.80000305176</ele>
        <time>2012-07-25T09:22:28.000Z</time>
      </trkpt>
      <trkpt lat="48.71029" lon="1.68065">
        <ele>181.19999694824</ele>
        <time>2012-07-25T09:22:36.000Z</time>
      </trkpt>
      <trkpt lat="48.71016" lon="1.68065">
        <ele>181.80000305176</ele>
        <time>2012-07-25T09:22:44.000Z</time>
      </trkpt>
      <trkpt lat="48.71008" lon="1.68066">
        <ele>182</ele>
        <time>2012-07-25T09:22:49.000Z</time>
      </trkpt>
      <trkpt lat="48.70998" lon="1.68062">
        <ele>182.39999389648</ele>
        <time>2012-07-25T09:22:55.000Z</time>
      </trkpt>
      <trkpt lat="48.70989" lon="1.68051">
        <ele>182.39999389648</ele>
        <time>2012-07-25T09:23:03.000Z</time>
      </trkpt>
      <trkpt lat="48.70985" lon="1.68037">
        <ele>182.19999694824</ele>
        <time>2012-07-25T09:23:09.000Z</time>
      </trkpt>
      <trkpt lat="48.70983" lon="1.68029">
        <ele>182</ele>
        <time>2012-07-25T09:23:12.000Z</time>
      </trkpt>
      <trkpt lat="48.70985" lon="1.68017">
        <ele>181.60000610352</ele>
        <time>2012-07-25T09:23:19.000Z</time>
      </trkpt>
      <trkpt lat="48.70986" lon="1.68011">
        <ele>181.39999389648</ele>
        <time>2012-07-25T09:23:23.000Z</time>
      </trkpt>
      <trkpt lat="48.70984" lon="1.68001">
        <ele>181.39999389648</ele>
        <time>2012-07-25T09:23:28.000Z</time>
      </trkpt>
      <trkpt lat="48.70979" lon="1.67995">
        <ele>181.60000610352</ele>
        <time>2012-07-25T09:23:32.000Z</time>
      </trkpt>
      <trkpt lat="48.70977" lon="1.67992">
        <ele>181.60000610352</ele>
        <time>2012-07-25T09:23:35.000Z</time>
      </trkpt>
      <trkpt lat="48.70967" lon="1.67987">
        <ele>182.19999694824</ele>
        <time>2012-07-25T09:23:43.000Z</time>
      </trkpt>
      <trkpt lat="48.70957" lon="1.67981">
        <ele>183</ele>
        <time>2012-07-25T09:23:50.000Z</time>
      </trkpt>
      <trkpt lat="48.70945" lon="1.67972">
        <ele>183.80000305176</ele>
        <time>2012-07-25T09:24:00.000Z</time>
      </trkpt>
      <trkpt lat="48.70941" lon="1.67969">
        <ele>184</ele>
        <time>2012-07-25T09:24:03.000Z</time>
      </trkpt>
      <trkpt lat="48.70931" lon="1.67964">
        <ele>184.80000305176</ele>
        <time>2012-07-25T09:24:10.000Z</time>
      </trkpt>
      <trkpt lat="48.70921" lon="1.67958">
        <ele>185.60000610352</ele>
        <time>2012-07-25T09:24:17.000Z</time>
      </trkpt>
      <trkpt lat="48.7091" lon="1.67954">
        <ele>186.19999694824</ele>
        <time>2012-07-25T09:24:23.000Z</time>
      </trkpt>
      <trkpt lat="48.70898" lon="1.67946">
        <ele>186.39999389648</ele>
        <time>2012-07-25T09:24:30.000Z</time>
      </trkpt>
      <trkpt lat="48.70887" lon="1.6794">
        <ele>186.80000305176</ele>
        <time>2012-07-25T09:24:37.000Z</time>
      </trkpt>
      <trkpt lat="48.70875" lon="1.67934">
        <ele>187</ele>
        <time>2012-07-25T09:24:46.000Z</time>
      </trkpt>
      <trkpt lat="48.70867" lon="1.67932">
        <ele>187.19999694824</ele>
        <time>2012-07-25T09:24:52.000Z</time>
      </trkpt>
      <trkpt lat="48.70857" lon="1.67927">
        <ele>187.39999389648</ele>
        <time>2012-07-25T09:24:58.000Z</time>
      </trkpt>
      <trkpt lat="48.70847" lon="1.67921">
        <ele>187.60000610352</ele>
        <time>2012-07-25T09:25:05.000Z</time>
      </trkpt>
      <trkpt lat="48.70836" lon="1.67913">
        <ele>187.80000305176</ele>
        <time>2012-07-25T09:25:14.000Z</time>
      </trkpt>
      <trkpt lat="48.70828" lon="1.67909">
        <ele>188</ele>
        <time>2012-07-25T09:25:20.000Z</time>
      </trkpt>
      <trkpt lat="48.70819" lon="1.67902">
        <ele>188</ele>
        <time>2012-07-25T09:25:27.000Z</time>
      </trkpt>
      <trkpt lat="48.70808" lon="1.67895">
        <ele>188.19999694824</ele>
        <time>2012-07-25T09:25:34.000Z</time>
      </trkpt>
      <trkpt lat="48.70798" lon="1.67891">
        <ele>188.39999389648</ele>
        <time>2012-07-25T09:25:41.000Z</time>
      </trkpt>
      <trkpt lat="48.70788" lon="1.67886">
        <ele>188.60000610352</ele>
        <time>2012-07-25T09:25:48.000Z</time>
      </trkpt>
      <trkpt lat="48.7078" lon="1.67882">
        <ele>188.80000305176</ele>
        <time>2012-07-25T09:25:53.000Z</time>
      </trkpt>
      <trkpt lat="48.70776" lon="1.67881">
        <ele>188.80000305176</ele>
        <time>2012-07-25T09:25:55.000Z</time>
      </trkpt>
      <trkpt lat="48.70764" lon="1.67876">
        <ele>189</ele>
        <time>2012-07-25T09:26:03.000Z</time>
      </trkpt>
      <trkpt lat="48.70763" lon="1.67875">
        <ele>189.19999694824</ele>
        <time>2012-07-25T09:26:04.000Z</time>
      </trkpt>
      <trkpt lat="48.70748" lon="1.67865">
        <ele>189.39999389648</ele>
        <time>2012-07-25T09:26:13.000Z</time>
      </trkpt>
      <trkpt lat="48.70739" lon="1.67859">
        <ele>188.80000305176</ele>
        <time>2012-07-25T09:26:19.000Z</time>
      </trkpt>
      <trkpt lat="48.70727" lon="1.67851">
        <ele>188.19999694824</ele>
        <time>2012-07-25T09:26:27.000Z</time>
      </trkpt>
      <trkpt lat="48.70715" lon="1.67845">
        <ele>187.80000305176</ele>
        <time>2012-07-25T09:26:35.000Z</time>
      </trkpt>
      <trkpt lat="48.70705" lon="1.6784">
        <ele>187.39999389648</ele>
        <time>2012-07-25T09:26:41.000Z</time>
      </trkpt>
      <trkpt lat="48.70694" lon="1.67834">
        <ele>187</ele>
        <time>2012-07-25T09:26:49.000Z</time>
      </trkpt>
      <trkpt lat="48.70687" lon="1.6783">
        <ele>186.80000305176</ele>
        <time>2012-07-25T09:26:54.000Z</time>
      </trkpt>
      <trkpt lat="48.7068" lon="1.67825">
        <ele>186.80000305176</ele>
        <time>2012-07-25T09:26:59.000Z</time>
      </trkpt>
      <trkpt lat="48.7067" lon="1.67821">
        <ele>186.60000610352</ele>
        <time>2012-07-25T09:27:06.000Z</time>
      </trkpt>
      <trkpt lat="48.70661" lon="1.67818">
        <ele>186.39999389648</ele>
        <time>2012-07-25T09:27:13.000Z</time>
      </trkpt>
      <trkpt lat="48.7066" lon="1.67818">
        <ele>186.19999694824</ele>
        <time>2012-07-25T09:27:14.000Z</time>
      </trkpt>
      <trkpt lat="48.70654" lon="1.67812">
        <ele>186.19999694824</ele>
        <time>2012-07-25T09:27:19.000Z</time>
      </trkpt>
      <trkpt lat="48.70639" lon="1.67803">
        <ele>186.19999694824</ele>
        <time>2012-07-25T09:27:29.000Z</time>
      </trkpt>
      <trkpt lat="48.70627" lon="1.67797">
        <ele>186</ele>
        <time>2012-07-25T09:27:37.000Z</time>
      </trkpt>
      <trkpt lat="48.70615" lon="1.67792">
        <ele>186</ele>
        <time>2012-07-25T09:27:45.000Z</time>
      </trkpt>
      <trkpt lat="48.70605" lon="1.67786">
        <ele>186</ele>
        <time>2012-07-25T09:27:52.000Z</time>
      </trkpt>
      <trkpt lat="48.70594" lon="1.67779">
        <ele>186.19999694824</ele>
        <time>2012-07-25T09:27:59.000Z</time>
      </trkpt>
      <trkpt lat="48.70585" lon="1.67775">
        <ele>186.19999694824</ele>
        <time>2012-07-25T09:28:05.000Z</time>
      </trkpt>
      <trkpt lat="48.70572" lon="1.67768">
        <ele>186.19999694824</ele>
        <time>2012-07-25T09:28:13.000Z</time>
      </trkpt>
      <trkpt lat="48.70561" lon="1.67761">
        <ele>186</ele>
        <time>2012-07-25T09:28:20.000Z</time>
      </trkpt>
      <trkpt lat="48.70551" lon="1.67755">
        <ele>185.80000305176</ele>
        <time>2012-07-25T09:28:26.000Z</time>
      </trkpt>
      <trkpt lat="48.7054" lon="1.67748">
        <ele>185.39999389648</ele>
        <time>2012-07-25T09:28:33.000Z</time>
      </trkpt>
      <trkpt lat="48.70528" lon="1.67743">
        <ele>185.19999694824</ele>
        <time>2012-07-25T09:28:41.000Z</time>
      </trkpt>
      <trkpt lat="48.70518" lon="1.67736">
        <ele>185</ele>
        <time>2012-07-25T09:28:47.000Z</time>
      </trkpt>
      <trkpt lat="48.70509" lon="1.67733">
        <ele>184.80000305176</ele>
        <time>2012-07-25T09:28:53.000Z</time>
      </trkpt>
      <trkpt lat="48.70498" lon="1.67727">
        <ele>184.60000610352</ele>
        <time>2012-07-25T09:28:59.000Z</time>
      </trkpt>
      <trkpt lat="48.70488" lon="1.67721">
        <ele>185</ele>
        <time>2012-07-25T09:29:06.000Z</time>
      </trkpt>
      <trkpt lat="48.70476" lon="1.67714">
        <ele>185.19999694824</ele>
        <time>2012-07-25T09:29:14.000Z</time>
      </trkpt>
      <trkpt lat="48.70463" lon="1.67708">
        <ele>185.39999389648</ele>
        <time>2012-07-25T09:29:22.000Z</time>
      </trkpt>
      <trkpt lat="48.70452" lon="1.67701">
        <ele>185.39999389648</ele>
        <time>2012-07-25T09:29:29.000Z</time>
      </trkpt>
      <trkpt lat="48.70439" lon="1.67693">
        <ele>185.60000610352</ele>
        <time>2012-07-25T09:29:37.000Z</time>
      </trkpt>
      <trkpt lat="48.70425" lon="1.67685">
        <ele>185.60000610352</ele>
        <time>2012-07-25T09:29:46.000Z</time>
      </trkpt>
      <trkpt lat="48.70417" lon="1.6768">
        <ele>185.60000610352</ele>
        <time>2012-07-25T09:29:51.000Z</time>
      </trkpt>
      <trkpt lat="48.70404" lon="1.67675">
        <ele>185.80000305176</ele>
        <time>2012-07-25T09:29:59.000Z</time>
      </trkpt>
      <trkpt lat="48.7039" lon="1.67668">
        <ele>186</ele>
        <time>2012-07-25T09:30:08.000Z</time>
      </trkpt>
      <trkpt lat="48.70389" lon="1.67668">
        <ele>186</ele>
        <time>2012-07-25T09:30:09.000Z</time>
      </trkpt>
      <trkpt lat="48.70377" lon="1.67661">
        <ele>186</ele>
        <time>2012-07-25T09:30:18.000Z</time>
      </trkpt>
      <trkpt lat="48.70365" lon="1.67655">
        <ele>186</ele>
        <time>2012-07-25T09:30:26.000Z</time>
      </trkpt>
      <trkpt lat="48.70361" lon="1.6765">
        <ele>186</ele>
        <time>2012-07-25T09:30:32.000Z</time>
      </trkpt>
      <trkpt lat="48.70361" lon="1.6765">
        <ele>186</ele>
        <time>2012-07-25T09:30:33.000Z</time>
      </trkpt>
      <trkpt lat="48.70353" lon="1.67646">
        <ele>185.80000305176</ele>
        <time>2012-07-25T09:30:47.000Z</time>
      </trkpt>
      <trkpt lat="48.70342" lon="1.67639">
        <ele>185.80000305176</ele>
        <time>2012-07-25T09:30:53.000Z</time>
      </trkpt>
      <trkpt lat="48.70331" lon="1.67634">
        <ele>185.39999389648</ele>
        <time>2012-07-25T09:31:00.000Z</time>
      </trkpt>
      <trkpt lat="48.70315" lon="1.67625">
        <ele>184.60000610352</ele>
        <time>2012-07-25T09:31:09.000Z</time>
      </trkpt>
      <trkpt lat="48.70309" lon="1.67621">
        <ele>184.19999694824</ele>
        <time>2012-07-25T09:31:13.000Z</time>
      </trkpt>
      <trkpt lat="48.70304" lon="1.67615">
        <ele>183.80000305176</ele>
        <time>2012-07-25T09:31:17.000Z</time>
      </trkpt>
      <trkpt lat="48.70289" lon="1.67607">
        <ele>182.60000610352</ele>
        <time>2012-07-25T09:31:26.000Z</time>
      </trkpt>
      <trkpt lat="48.70274" lon="1.67599">
        <ele>181.39999389648</ele>
        <time>2012-07-25T09:31:35.000Z</time>
      </trkpt>
      <trkpt lat="48.70263" lon="1.67593">
        <ele>180.39999389648</ele>
        <time>2012-07-25T09:31:42.000Z</time>
      </trkpt>
      <trkpt lat="48.70248" lon="1.67585">
        <ele>179</ele>
        <time>2012-07-25T09:31:51.000Z</time>
      </trkpt>
      <trkpt lat="48.70233" lon="1.67577">
        <ele>177.80000305176</ele>
        <time>2012-07-25T09:32:00.000Z</time>
      </trkpt>
      <trkpt lat="48.70221" lon="1.6757">
        <ele>176.60000610352</ele>
        <time>2012-07-25T09:32:08.000Z</time>
      </trkpt>
      <trkpt lat="48.70209" lon="1.67565">
        <ele>175.60000610352</ele>
        <time>2012-07-25T09:32:16.000Z</time>
      </trkpt>
      <trkpt lat="48.70195" lon="1.67561">
        <ele>174.60000610352</ele>
        <time>2012-07-25T09:32:25.000Z</time>
      </trkpt>
      <trkpt lat="48.70187" lon="1.67555">
        <ele>173.60000610352</ele>
        <time>2012-07-25T09:32:31.000Z</time>
      </trkpt>
      <trkpt lat="48.70179" lon="1.67551">
        <ele>173</ele>
        <time>2012-07-25T09:32:39.000Z</time>
      </trkpt>
      <trkpt lat="48.70169" lon="1.67544">
        <ele>171.80000305176</ele>
        <time>2012-07-25T09:32:46.000Z</time>
      </trkpt>
      <trkpt lat="48.70157" lon="1.67536">
        <ele>170.60000610352</ele>
        <time>2012-07-25T09:32:54.000Z</time>
      </trkpt>
      <trkpt lat="48.70151" lon="1.67533">
        <ele>170</ele>
        <time>2012-07-25T09:33:00.000Z</time>
      </trkpt>
      <trkpt lat="48.70148" lon="1.67532">
        <ele>169.60000610352</ele>
        <time>2012-07-25T09:33:05.000Z</time>
      </trkpt>
      <trkpt lat="48.70143" lon="1.67528">
        <ele>169.19999694824</ele>
        <time>2012-07-25T09:33:09.000Z</time>
      </trkpt>
      <trkpt lat="48.70131" lon="1.67524">
        <ele>168.19999694824</ele>
        <time>2012-07-25T09:33:19.000Z</time>
      </trkpt>
      <trkpt lat="48.70123" lon="1.6752">
        <ele>167.60000610352</ele>
        <time>2012-07-25T09:33:26.000Z</time>
      </trkpt>
      <trkpt lat="48.70118" lon="1.67517">
        <ele>167.19999694824</ele>
        <time>2012-07-25T09:33:33.000Z</time>
      </trkpt>
      <trkpt lat="48.70111" lon="1.67513">
        <ele>166.60000610352</ele>
        <time>2012-07-25T09:33:41.000Z</time>
      </trkpt>
      <trkpt lat="48.70104" lon="1.67511">
        <ele>166.19999694824</ele>
        <time>2012-07-25T09:33:48.000Z</time>
      </trkpt>
      <trkpt lat="48.70097" lon="1.67506">
        <ele>165.80000305176</ele>
        <time>2012-07-25T09:33:54.000Z</time>
      </trkpt>
      <trkpt lat="48.70095" lon="1.67504">
        <ele>165.60000610352</ele>
        <time>2012-07-25T09:33:56.000Z</time>
      </trkpt>
      <trkpt lat="48.70085" lon="1.67501">
        <ele>165</ele>
        <time>2012-07-25T09:34:03.000Z</time>
      </trkpt>
      <trkpt lat="48.70073" lon="1.67492">
        <ele>164.19999694824</ele>
        <time>2012-07-25T09:34:11.000Z</time>
      </trkpt>
      <trkpt lat="48.70063" lon="1.67486">
        <ele>163.39999389648</ele>
        <time>2012-07-25T09:34:18.000Z</time>
      </trkpt>
      <trkpt lat="48.70056" lon="1.67481">
        <ele>162.80000305176</ele>
        <time>2012-07-25T09:34:23.000Z</time>
      </trkpt>
      <trkpt lat="48.70047" lon="1.67477">
        <ele>162</ele>
        <time>2012-07-25T09:34:30.000Z</time>
      </trkpt>
      <trkpt lat="48.70037" lon="1.67472">
        <ele>161.39999389648</ele>
        <time>2012-07-25T09:34:36.000Z</time>
      </trkpt>
      <trkpt lat="48.70025" lon="1.67465">
        <ele>160.60000610352</ele>
        <time>2012-07-25T09:34:43.000Z</time>
      </trkpt>
      <trkpt lat="48.70016" lon="1.67461">
        <ele>160</ele>
        <time>2012-07-25T09:34:49.000Z</time>
      </trkpt>
      <trkpt lat="48.70006" lon="1.67456">
        <ele>159.19999694824</ele>
        <time>2012-07-25T09:34:55.000Z</time>
      </trkpt>
      <trkpt lat="48.69993" lon="1.67449">
        <ele>158.19999694824</ele>
        <time>2012-07-25T09:35:04.000Z</time>
      </trkpt>
      <trkpt lat="48.69979" lon="1.67441">
        <ele>156.80000305176</ele>
        <time>2012-07-25T09:35:12.000Z</time>
      </trkpt>
      <trkpt lat="48.69968" lon="1.67435">
        <ele>155.80000305176</ele>
        <time>2012-07-25T09:35:19.000Z</time>
      </trkpt>
      <trkpt lat="48.6995" lon="1.67429">
        <ele>154.39999389648</ele>
        <time>2012-07-25T09:35:30.000Z</time>
      </trkpt>
      <trkpt lat="48.69941" lon="1.67425">
        <ele>153.80000305176</ele>
        <time>2012-07-25T09:35:36.000Z</time>
      </trkpt>
      <trkpt lat="48.69931" lon="1.67417">
        <ele>153</ele>
        <time>2012-07-25T09:35:43.000Z</time>
      </trkpt>
      <trkpt lat="48.69923" lon="1.67412">
        <ele>152.60000610352</ele>
        <time>2012-07-25T09:35:48.000Z</time>
      </trkpt>
      <trkpt lat="48.69915" lon="1.67409">
        <ele>152.19999694824</ele>
        <time>2012-07-25T09:35:53.000Z</time>
      </trkpt>
      <trkpt lat="48.69906" lon="1.67407">
        <ele>151.80000305176</ele>
        <time>2012-07-25T09:35:59.000Z</time>
      </trkpt>
      <trkpt lat="48.69896" lon="1.674">
        <ele>151.60000610352</ele>
        <time>2012-07-25T09:36:05.000Z</time>
      </trkpt>
      <trkpt lat="48.69885" lon="1.67393">
        <ele>151.39999389648</ele>
        <time>2012-07-25T09:36:12.000Z</time>
      </trkpt>
      <trkpt lat="48.69877" lon="1.67389">
        <ele>151.19999694824</ele>
        <time>2012-07-25T09:36:17.000Z</time>
      </trkpt>
      <trkpt lat="48.69865" lon="1.67384">
        <ele>150.60000610352</ele>
        <time>2012-07-25T09:36:25.000Z</time>
      </trkpt>
      <trkpt lat="48.69854" lon="1.6738">
        <ele>150.39999389648</ele>
        <time>2012-07-25T09:36:31.000Z</time>
      </trkpt>
      <trkpt lat="48.69847" lon="1.67375">
        <ele>150.19999694824</ele>
        <time>2012-07-25T09:36:36.000Z</time>
      </trkpt>
      <trkpt lat="48.69833" lon="1.67368">
        <ele>150</ele>
        <time>2012-07-25T09:36:45.000Z</time>
      </trkpt>
      <trkpt lat="48.69824" lon="1.67363">
        <ele>150.39999389648</ele>
        <time>2012-07-25T09:36:50.000Z</time>
      </trkpt>
      <trkpt lat="48.69815" lon="1.67356">
        <ele>151</ele>
        <time>2012-07-25T09:36:56.000Z</time>
      </trkpt>
      <trkpt lat="48.69808" lon="1.67352">
        <ele>151.39999389648</ele>
        <time>2012-07-25T09:37:01.000Z</time>
      </trkpt>
      <trkpt lat="48.69796" lon="1.67346">
        <ele>151.80000305176</ele>
        <time>2012-07-25T09:37:09.000Z</time>
      </trkpt>
      <trkpt lat="48.69789" lon="1.67341">
        <ele>152.19999694824</ele>
        <time>2012-07-25T09:37:14.000Z</time>
      </trkpt>
      <trkpt lat="48.69779" lon="1.67336">
        <ele>152.60000610352</ele>
        <time>2012-07-25T09:37:21.000Z</time>
      </trkpt>
      <trkpt lat="48.6977" lon="1.67329">
        <ele>152.80000305176</ele>
        <time>2012-07-25T09:37:27.000Z</time>
      </trkpt>
      <trkpt lat="48.69759" lon="1.67324">
        <ele>153</ele>
        <time>2012-07-25T09:37:34.000Z</time>
      </trkpt>
      <trkpt lat="48.69749" lon="1.67318">
        <ele>153.19999694824</ele>
        <time>2012-07-25T09:37:41.000Z</time>
      </trkpt>
      <trkpt lat="48.69738" lon="1.67313">
        <ele>153</ele>
        <time>2012-07-25T09:37:48.000Z</time>
      </trkpt>
      <trkpt lat="48.69725" lon="1.67308">
        <ele>152.60000610352</ele>
        <time>2012-07-25T09:37:56.000Z</time>
      </trkpt>
      <trkpt lat="48.69715" lon="1.67302">
        <ele>152.39999389648</ele>
        <time>2012-07-25T09:38:03.000Z</time>
      </trkpt>
      <trkpt lat="48.69706" lon="1.67296">
        <ele>152.19999694824</ele>
        <time>2012-07-25T09:38:09.000Z</time>
      </trkpt>
      <trkpt lat="48.69694" lon="1.67291">
        <ele>151.80000305176</ele>
        <time>2012-07-25T09:38:16.000Z</time>
      </trkpt>
      <trkpt lat="48.69684" lon="1.67285">
        <ele>151.60000610352</ele>
        <time>2012-07-25T09:38:22.000Z</time>
      </trkpt>
      <trkpt lat="48.69677" lon="1.67281">
        <ele>151.39999389648</ele>
        <time>2012-07-25T09:38:27.000Z</time>
      </trkpt>
      <trkpt lat="48.69667" lon="1.67279">
        <ele>151</ele>
        <time>2012-07-25T09:38:33.000Z</time>
      </trkpt>
      <trkpt lat="48.6966" lon="1.67277">
        <ele>150.80000305176</ele>
        <time>2012-07-25T09:38:37.000Z</time>
      </trkpt>
      <trkpt lat="48.69653" lon="1.67271">
        <ele>150.60000610352</ele>
        <time>2012-07-25T09:38:41.000Z</time>
      </trkpt>
      <trkpt lat="48.69637" lon="1.67263">
        <ele>150</ele>
        <time>2012-07-25T09:38:50.000Z</time>
      </trkpt>
      <trkpt lat="48.69623" lon="1.67255">
        <ele>149.39999389648</ele>
        <time>2012-07-25T09:38:58.000Z</time>
      </trkpt>
      <trkpt lat="48.69612" lon="1.67253">
        <ele>149</ele>
        <time>2012-07-25T09:39:05.000Z</time>
      </trkpt>
      <trkpt lat="48.69601" lon="1.67252">
        <ele>148.60000610352</ele>
        <time>2012-07-25T09:39:12.000Z</time>
      </trkpt>
      <trkpt lat="48.69587" lon="1.67247">
        <ele>148.19999694824</ele>
        <time>2012-07-25T09:39:20.000Z</time>
      </trkpt>
      <trkpt lat="48.69575" lon="1.67242">
        <ele>148</ele>
        <time>2012-07-25T09:39:27.000Z</time>
      </trkpt>
      <trkpt lat="48.69566" lon="1.67237">
        <ele>147.80000305176</ele>
        <time>2012-07-25T09:39:33.000Z</time>
      </trkpt>
      <trkpt lat="48.69554" lon="1.67233">
        <ele>147.60000610352</ele>
        <time>2012-07-25T09:39:40.000Z</time>
      </trkpt>
      <trkpt lat="48.69542" lon="1.67229">
        <ele>147.39999389648</ele>
        <time>2012-07-25T09:39:47.000Z</time>
      </trkpt>
      <trkpt lat="48.69531" lon="1.67228">
        <ele>147.39999389648</ele>
        <time>2012-07-25T09:39:53.000Z</time>
      </trkpt>
      <trkpt lat="48.6953" lon="1.67237">
        <ele>147.39999389648</ele>
        <time>2012-07-25T09:39:58.000Z</time>
      </trkpt>
      <trkpt lat="48.6953" lon="1.67239">
        <ele>147.39999389648</ele>
        <time>2012-07-25T09:39:59.000Z</time>
      </trkpt>
      <trkpt lat="48.69535" lon="1.67253">
        <ele>147.39999389648</ele>
        <time>2012-07-25T09:40:06.000Z</time>
      </trkpt>
      <trkpt lat="48.6954" lon="1.67264">
        <ele>147.39999389648</ele>
        <time>2012-07-25T09:40:12.000Z</time>
      </trkpt>
      <trkpt lat="48.69544" lon="1.6727">
        <ele>147.60000610352</ele>
        <time>2012-07-25T09:40:15.000Z</time>
      </trkpt>
      <trkpt lat="48.69551" lon="1.67286">
        <ele>147.60000610352</ele>
        <time>2012-07-25T09:40:22.000Z</time>
      </trkpt>
      <trkpt lat="48.69559" lon="1.673">
        <ele>147.80000305176</ele>
        <time>2012-07-25T09:40:29.000Z</time>
      </trkpt>
      <trkpt lat="48.69561" lon="1.67305">
        <ele>147.80000305176</ele>
        <time>2012-07-25T09:40:31.000Z</time>
      </trkpt>
      <trkpt lat="48.69566" lon="1.67315">
        <ele>147.80000305176</ele>
        <time>2012-07-25T09:40:37.000Z</time>
      </trkpt>
      <trkpt lat="48.69569" lon="1.67324">
        <ele>147.80000305176</ele>
        <time>2012-07-25T09:40:43.000Z</time>
      </trkpt>
      <trkpt lat="48.69575" lon="1.67333">
        <ele>148</ele>
        <time>2012-07-25T09:40:48.000Z</time>
      </trkpt>
      <trkpt lat="48.69583" lon="1.6735">
        <ele>147.80000305176</ele>
        <time>2012-07-25T09:40:55.000Z</time>
      </trkpt>
      <trkpt lat="48.69591" lon="1.67363">
        <ele>147.80000305176</ele>
        <time>2012-07-25T09:41:02.000Z</time>
      </trkpt>
      <trkpt lat="48.69599" lon="1.67376">
        <ele>147.80000305176</ele>
        <time>2012-07-25T09:41:08.000Z</time>
      </trkpt>
      <trkpt lat="48.69607" lon="1.67392">
        <ele>147.80000305176</ele>
        <time>2012-07-25T09:41:15.000Z</time>
      </trkpt>
      <trkpt lat="48.69613" lon="1.67406">
        <ele>147.60000610352</ele>
        <time>2012-07-25T09:41:21.000Z</time>
      </trkpt>
      <trkpt lat="48.69619" lon="1.67421">
        <ele>147.19999694824</ele>
        <time>2012-07-25T09:41:27.000Z</time>
      </trkpt>
      <trkpt lat="48.69624" lon="1.67437">
        <ele>146.80000305176</ele>
        <time>2012-07-25T09:41:34.000Z</time>
      </trkpt>
      <trkpt lat="48.69626" lon="1.6744">
        <ele>146.60000610352</ele>
        <time>2012-07-25T09:41:36.000Z</time>
      </trkpt>
      <trkpt lat="48.69631" lon="1.67446">
        <ele>146.60000610352</ele>
        <time>2012-07-25T09:41:40.000Z</time>
      </trkpt>
      <trkpt lat="48.69643" lon="1.67455">
        <ele>146.39999389648</ele>
        <time>2012-07-25T09:41:48.000Z</time>
      </trkpt>
      <trkpt lat="48.69648" lon="1.67461">
        <ele>146.19999694824</ele>
        <time>2012-07-25T09:41:51.000Z</time>
      </trkpt>
      <trkpt lat="48.69654" lon="1.67475">
        <ele>145.80000305176</ele>
        <time>2012-07-25T09:41:58.000Z</time>
      </trkpt>
      <trkpt lat="48.69657" lon="1.6748">
        <ele>145.60000610352</ele>
        <time>2012-07-25T09:42:00.000Z</time>
      </trkpt>
      <trkpt lat="48.69665" lon="1.67498">
        <ele>145</ele>
        <time>2012-07-25T09:42:08.000Z</time>
      </trkpt>
      <trkpt lat="48.69668" lon="1.67515">
        <ele>145</ele>
        <time>2012-07-25T09:42:15.000Z</time>
      </trkpt>
      <trkpt lat="48.69674" lon="1.6753">
        <ele>145.19999694824</ele>
        <time>2012-07-25T09:42:21.000Z</time>
      </trkpt>
      <trkpt lat="48.69675" lon="1.67532">
        <ele>145.19999694824</ele>
        <time>2012-07-25T09:42:22.000Z</time>
      </trkpt>
      <trkpt lat="48.69679" lon="1.67544">
        <ele>145.39999389648</ele>
        <time>2012-07-25T09:42:28.000Z</time>
      </trkpt>
      <trkpt lat="48.69682" lon="1.6756">
        <ele>145.60000610352</ele>
        <time>2012-07-25T09:42:35.000Z</time>
      </trkpt>
      <trkpt lat="48.69687" lon="1.67583">
        <ele>146</ele>
        <time>2012-07-25T09:42:44.000Z</time>
      </trkpt>
      <trkpt lat="48.6969" lon="1.67599">
        <ele>146</ele>
        <time>2012-07-25T09:42:51.000Z</time>
      </trkpt>
      <trkpt lat="48.69691" lon="1.67615">
        <ele>146</ele>
        <time>2012-07-25T09:42:58.000Z</time>
      </trkpt>
      <trkpt lat="48.69693" lon="1.67627">
        <ele>146</ele>
        <time>2012-07-25T09:43:03.000Z</time>
      </trkpt>
      <trkpt lat="48.69697" lon="1.67645">
        <ele>146</ele>
        <time>2012-07-25T09:43:11.000Z</time>
      </trkpt>
      <trkpt lat="48.697" lon="1.67669">
        <ele>146</ele>
        <time>2012-07-25T09:43:20.000Z</time>
      </trkpt>
      <trkpt lat="48.697" lon="1.67674">
        <ele>146</ele>
        <time>2012-07-25T09:43:22.000Z</time>
      </trkpt>
      <trkpt lat="48.69703" lon="1.67693">
        <ele>146.39999389648</ele>
        <time>2012-07-25T09:43:29.000Z</time>
      </trkpt>
      <trkpt lat="48.69708" lon="1.67713">
        <ele>146.80000305176</ele>
        <time>2012-07-25T09:43:38.000Z</time>
      </trkpt>
      <trkpt lat="48.69708" lon="1.67716">
        <ele>146.80000305176</ele>
        <time>2012-07-25T09:43:39.000Z</time>
      </trkpt>
      <trkpt lat="48.6971" lon="1.67737">
        <ele>147</ele>
        <time>2012-07-25T09:43:48.000Z</time>
      </trkpt>
      <trkpt lat="48.69714" lon="1.67754">
        <ele>147.19999694824</ele>
        <time>2012-07-25T09:43:55.000Z</time>
      </trkpt>
      <trkpt lat="48.69718" lon="1.67775">
        <ele>147.19999694824</ele>
        <time>2012-07-25T09:44:03.000Z</time>
      </trkpt>
      <trkpt lat="48.69722" lon="1.67794">
        <ele>147.19999694824</ele>
        <time>2012-07-25T09:44:11.000Z</time>
      </trkpt>
      <trkpt lat="48.69723" lon="1.67812">
        <ele>147.19999694824</ele>
        <time>2012-07-25T09:44:18.000Z</time>
      </trkpt>
      <trkpt lat="48.69726" lon="1.67836">
        <ele>147.19999694824</ele>
        <time>2012-07-25T09:44:27.000Z</time>
      </trkpt>
      <trkpt lat="48.6973" lon="1.67858">
        <ele>147.19999694824</ele>
        <time>2012-07-25T09:44:36.000Z</time>
      </trkpt>
      <trkpt lat="48.69734" lon="1.67878">
        <ele>147.39999389648</ele>
        <time>2012-07-25T09:44:44.000Z</time>
      </trkpt>
      <trkpt lat="48.69735" lon="1.67884">
        <ele>147.39999389648</ele>
        <time>2012-07-25T09:44:46.000Z</time>
      </trkpt>
      <trkpt lat="48.69738" lon="1.67899">
        <ele>147.60000610352</ele>
        <time>2012-07-25T09:44:52.000Z</time>
      </trkpt>
      <trkpt lat="48.69739" lon="1.67901">
        <ele>147.60000610352</ele>
        <time>2012-07-25T09:44:53.000Z</time>
      </trkpt>
      <trkpt lat="48.69743" lon="1.6792">
        <ele>147.80000305176</ele>
        <time>2012-07-25T09:45:01.000Z</time>
      </trkpt>
      <trkpt lat="48.69745" lon="1.67943">
        <ele>147.80000305176</ele>
        <time>2012-07-25T09:45:10.000Z</time>
      </trkpt>
      <trkpt lat="48.69748" lon="1.67955">
        <ele>148</ele>
        <time>2012-07-25T09:45:15.000Z</time>
      </trkpt>
      <trkpt lat="48.69751" lon="1.67962">
        <ele>148</ele>
        <time>2012-07-25T09:45:21.000Z</time>
      </trkpt>
      <trkpt lat="48.69751" lon="1.67964">
        <ele>148</ele>
        <time>2012-07-25T09:45:22.000Z</time>
      </trkpt>
      <trkpt lat="48.69754" lon="1.67985">
        <ele>148.19999694824</ele>
        <time>2012-07-25T09:45:30.000Z</time>
      </trkpt>
      <trkpt lat="48.69754" lon="1.68005">
        <ele>148</ele>
        <time>2012-07-25T09:45:38.000Z</time>
      </trkpt>
      <trkpt lat="48.69754" lon="1.68023">
        <ele>147.60000610352</ele>
        <time>2012-07-25T09:45:46.000Z</time>
      </trkpt>
      <trkpt lat="48.69754" lon="1.68042">
        <ele>147.19999694824</ele>
        <time>2012-07-25T09:45:53.000Z</time>
      </trkpt>
      <trkpt lat="48.69755" lon="1.68058">
        <ele>146.80000305176</ele>
        <time>2012-07-25T09:45:59.000Z</time>
      </trkpt>
      <trkpt lat="48.69758" lon="1.68074">
        <ele>146.60000610352</ele>
        <time>2012-07-25T09:46:06.000Z</time>
      </trkpt>
      <trkpt lat="48.69759" lon="1.68092">
        <ele>146.60000610352</ele>
        <time>2012-07-25T09:46:14.000Z</time>
      </trkpt>
      <trkpt lat="48.69761" lon="1.68113">
        <ele>146.60000610352</ele>
        <time>2012-07-25T09:46:22.000Z</time>
      </trkpt>
      <trkpt lat="48.69758" lon="1.68141">
        <ele>146.39999389648</ele>
        <time>2012-07-25T09:46:32.000Z</time>
      </trkpt>
      <trkpt lat="48.69755" lon="1.68158">
        <ele>146.39999389648</ele>
        <time>2012-07-25T09:46:38.000Z</time>
      </trkpt>
      <trkpt lat="48.69756" lon="1.68172">
        <ele>146.39999389648</ele>
        <time>2012-07-25T09:46:43.000Z</time>
      </trkpt>
      <trkpt lat="48.69754" lon="1.68196">
        <ele>147</ele>
        <time>2012-07-25T09:46:52.000Z</time>
      </trkpt>
      <trkpt lat="48.69755" lon="1.68214">
        <ele>147.39999389648</ele>
        <time>2012-07-25T09:47:00.000Z</time>
      </trkpt>
      <trkpt lat="48.69754" lon="1.68229">
        <ele>147.60000610352</ele>
        <time>2012-07-25T09:47:06.000Z</time>
      </trkpt>
      <trkpt lat="48.69755" lon="1.68256">
        <ele>148.19999694824</ele>
        <time>2012-07-25T09:47:16.000Z</time>
      </trkpt>
      <trkpt lat="48.69754" lon="1.68277">
        <ele>148</ele>
        <time>2012-07-25T09:47:24.000Z</time>
      </trkpt>
      <trkpt lat="48.69753" lon="1.68304">
        <ele>147.60000610352</ele>
        <time>2012-07-25T09:47:35.000Z</time>
      </trkpt>
      <trkpt lat="48.69755" lon="1.68327">
        <ele>147.39999389648</ele>
        <time>2012-07-25T09:47:44.000Z</time>
      </trkpt>
      <trkpt lat="48.69754" lon="1.68341">
        <ele>147.39999389648</ele>
        <time>2012-07-25T09:47:49.000Z</time>
      </trkpt>
      <trkpt lat="48.69753" lon="1.68363">
        <ele>148</ele>
        <time>2012-07-25T09:47:57.000Z</time>
      </trkpt>
      <trkpt lat="48.69752" lon="1.68384">
        <ele>148.39999389648</ele>
        <time>2012-07-25T09:48:05.000Z</time>
      </trkpt>
      <trkpt lat="48.69752" lon="1.684">
        <ele>148.80000305176</ele>
        <time>2012-07-25T09:48:11.000Z</time>
      </trkpt>
      <trkpt lat="48.69752" lon="1.68416">
        <ele>149.19999694824</ele>
        <time>2012-07-25T09:48:18.000Z</time>
      </trkpt>
      <trkpt lat="48.69751" lon="1.68436">
        <ele>149.19999694824</ele>
        <time>2012-07-25T09:48:25.000Z</time>
      </trkpt>
      <trkpt lat="48.69749" lon="1.68453">
        <ele>149.39999389648</ele>
        <time>2012-07-25T09:48:32.000Z</time>
      </trkpt>
      <trkpt lat="48.69747" lon="1.68472">
        <ele>149.60000610352</ele>
        <time>2012-07-25T09:48:39.000Z</time>
      </trkpt>
      <trkpt lat="48.69746" lon="1.68496">
        <ele>150</ele>
        <time>2012-07-25T09:48:46.000Z</time>
      </trkpt>
      <trkpt lat="48.69746" lon="1.68501">
        <ele>150</ele>
        <time>2012-07-25T09:48:48.000Z</time>
      </trkpt>
      <trkpt lat="48.69745" lon="1.68527">
        <ele>150</ele>
        <time>2012-07-25T09:48:57.000Z</time>
      </trkpt>
      <trkpt lat="48.69742" lon="1.68537">
        <ele>150</ele>
        <time>2012-07-25T09:49:04.000Z</time>
      </trkpt>
      <trkpt lat="48.69745" lon="1.68549">
        <ele>150</ele>
        <time>2012-07-25T09:49:10.000Z</time>
      </trkpt>
      <trkpt lat="48.69743" lon="1.6856">
        <ele>150.19999694824</ele>
        <time>2012-07-25T09:49:15.000Z</time>
      </trkpt>
      <trkpt lat="48.69743" lon="1.68574">
        <ele>150.19999694824</ele>
        <time>2012-07-25T09:49:21.000Z</time>
      </trkpt>
      <trkpt lat="48.69743" lon="1.68578">
        <ele>150.19999694824</ele>
        <time>2012-07-25T09:49:23.000Z</time>
      </trkpt>
      <trkpt lat="48.69743" lon="1.68602">
        <ele>149.80000305176</ele>
        <time>2012-07-25T09:49:32.000Z</time>
      </trkpt>
      <trkpt lat="48.69744" lon="1.68621">
        <ele>149.19999694824</ele>
        <time>2012-07-25T09:49:39.000Z</time>
      </trkpt>
      <trkpt lat="48.69743" lon="1.68636">
        <ele>149</ele>
        <time>2012-07-25T09:49:45.000Z</time>
      </trkpt>
      <trkpt lat="48.69743" lon="1.68653">
        <ele>148.60000610352</ele>
        <time>2012-07-25T09:49:51.000Z</time>
      </trkpt>
      <trkpt lat="48.69743" lon="1.68658">
        <ele>148.39999389648</ele>
        <time>2012-07-25T09:49:53.000Z</time>
      </trkpt>
      <trkpt lat="48.69744" lon="1.68679">
        <ele>148.39999389648</ele>
        <time>2012-07-25T09:50:00.000Z</time>
      </trkpt>
      <trkpt lat="48.69744" lon="1.68698">
        <ele>149</ele>
        <time>2012-07-25T09:50:08.000Z</time>
      </trkpt>
      <trkpt lat="48.69744" lon="1.68721">
        <ele>149.60000610352</ele>
        <time>2012-07-25T09:50:17.000Z</time>
      </trkpt>
      <trkpt lat="48.69744" lon="1.68742">
        <ele>150</ele>
        <time>2012-07-25T09:50:25.000Z</time>
      </trkpt>
      <trkpt lat="48.69745" lon="1.68771">
        <ele>150.19999694824</ele>
        <time>2012-07-25T09:50:36.000Z</time>
      </trkpt>
      <trkpt lat="48.69744" lon="1.68792">
        <ele>150.19999694824</ele>
        <time>2012-07-25T09:50:44.000Z</time>
      </trkpt>
      <trkpt lat="48.69746" lon="1.68809">
        <ele>150.19999694824</ele>
        <time>2012-07-25T09:50:50.000Z</time>
      </trkpt>
      <trkpt lat="48.69746" lon="1.6883">
        <ele>150.19999694824</ele>
        <time>2012-07-25T09:50:57.000Z</time>
      </trkpt>
      <trkpt lat="48.69745" lon="1.68839">
        <ele>150.19999694824</ele>
        <time>2012-07-25T09:51:01.000Z</time>
      </trkpt>
      <trkpt lat="48.69748" lon="1.68856">
        <ele>150.39999389648</ele>
        <time>2012-07-25T09:51:08.000Z</time>
      </trkpt>
      <trkpt lat="48.69748" lon="1.68869">
        <ele>150.39999389648</ele>
        <time>2012-07-25T09:51:13.000Z</time>
      </trkpt>
      <trkpt lat="48.69748" lon="1.68874">
        <ele>150.60000610352</ele>
        <time>2012-07-25T09:51:15.000Z</time>
      </trkpt>
      <trkpt lat="48.69749" lon="1.6889">
        <ele>150.80000305176</ele>
        <time>2012-07-25T09:51:22.000Z</time>
      </trkpt>
      <trkpt lat="48.6975" lon="1.68908">
        <ele>150.80000305176</ele>
        <time>2012-07-25T09:51:29.000Z</time>
      </trkpt>
      <trkpt lat="48.69751" lon="1.6892">
        <ele>151</ele>
        <time>2012-07-25T09:51:34.000Z</time>
      </trkpt>
      <trkpt lat="48.69751" lon="1.6894">
        <ele>151.19999694824</ele>
        <time>2012-07-25T09:51:42.000Z</time>
      </trkpt>
      <trkpt lat="48.69752" lon="1.68958">
        <ele>151.39999389648</ele>
        <time>2012-07-25T09:51:49.000Z</time>
      </trkpt>
      <trkpt lat="48.69755" lon="1.68976">
        <ele>151.60000610352</ele>
        <time>2012-07-25T09:51:57.000Z</time>
      </trkpt>
      <trkpt lat="48.69754" lon="1.68984">
        <ele>151.80000305176</ele>
        <time>2012-07-25T09:52:00.000Z</time>
      </trkpt>
      <trkpt lat="48.69754" lon="1.68998">
        <ele>151.80000305176</ele>
        <time>2012-07-25T09:52:06.000Z</time>
      </trkpt>
      <trkpt lat="48.69754" lon="1.69002">
        <ele>152</ele>
        <time>2012-07-25T09:52:07.000Z</time>
      </trkpt>
      <trkpt lat="48.69755" lon="1.69022">
        <ele>152.60000610352</ele>
        <time>2012-07-25T09:52:14.000Z</time>
      </trkpt>
      <trkpt lat="48.69756" lon="1.69037">
        <ele>153.19999694824</ele>
        <time>2012-07-25T09:52:20.000Z</time>
      </trkpt>
      <trkpt lat="48.69758" lon="1.69051">
        <ele>153.60000610352</ele>
        <time>2012-07-25T09:52:27.000Z</time>
      </trkpt>
      <trkpt lat="48.69758" lon="1.69067">
        <ele>154.19999694824</ele>
        <time>2012-07-25T09:52:33.000Z</time>
      </trkpt>
      <trkpt lat="48.69758" lon="1.69074">
        <ele>154.39999389648</ele>
        <time>2012-07-25T09:52:35.000Z</time>
      </trkpt>
      <trkpt lat="48.69759" lon="1.69092">
        <ele>154.80000305176</ele>
        <time>2012-07-25T09:52:42.000Z</time>
      </trkpt>
      <trkpt lat="48.69762" lon="1.69111">
        <ele>155</ele>
        <time>2012-07-25T09:52:49.000Z</time>
      </trkpt>
      <trkpt lat="48.69763" lon="1.69118">
        <ele>155</ele>
        <time>2012-07-25T09:52:52.000Z</time>
      </trkpt>
      <trkpt lat="48.69766" lon="1.69134">
        <ele>155.19999694824</ele>
        <time>2012-07-25T09:52:59.000Z</time>
      </trkpt>
      <trkpt lat="48.69766" lon="1.69151">
        <ele>155.60000610352</ele>
        <time>2012-07-25T09:53:04.000Z</time>
      </trkpt>
      <trkpt lat="48.69769" lon="1.69168">
        <ele>155.80000305176</ele>
        <time>2012-07-25T09:53:10.000Z</time>
      </trkpt>
      <trkpt lat="48.69772" lon="1.69186">
        <ele>156</ele>
        <time>2012-07-25T09:53:17.000Z</time>
      </trkpt>
      <trkpt lat="48.69775" lon="1.69202">
        <ele>156</ele>
        <time>2012-07-25T09:53:23.000Z</time>
      </trkpt>
      <trkpt lat="48.69778" lon="1.69218">
        <ele>156.19999694824</ele>
        <time>2012-07-25T09:53:29.000Z</time>
      </trkpt>
      <trkpt lat="48.69782" lon="1.69238">
        <ele>156.60000610352</ele>
        <time>2012-07-25T09:53:37.000Z</time>
      </trkpt>
      <trkpt lat="48.69784" lon="1.69254">
        <ele>156.80000305176</ele>
        <time>2012-07-25T09:53:43.000Z</time>
      </trkpt>
      <trkpt lat="48.69785" lon="1.69269">
        <ele>156.80000305176</ele>
        <time>2012-07-25T09:53:48.000Z</time>
      </trkpt>
      <trkpt lat="48.69788" lon="1.69285">
        <ele>156.80000305176</ele>
        <time>2012-07-25T09:53:54.000Z</time>
      </trkpt>
      <trkpt lat="48.69791" lon="1.69299">
        <ele>157</ele>
        <time>2012-07-25T09:54:00.000Z</time>
      </trkpt>
      <trkpt lat="48.69794" lon="1.69315">
        <ele>157</ele>
        <time>2012-07-25T09:54:06.000Z</time>
      </trkpt>
      <trkpt lat="48.69796" lon="1.69328">
        <ele>157.19999694824</ele>
        <time>2012-07-25T09:54:11.000Z</time>
      </trkpt>
      <trkpt lat="48.69798" lon="1.69336">
        <ele>157.39999389648</ele>
        <time>2012-07-25T09:54:15.000Z</time>
      </trkpt>
      <trkpt lat="48.69801" lon="1.69353">
        <ele>157.80000305176</ele>
        <time>2012-07-25T09:54:22.000Z</time>
      </trkpt>
      <trkpt lat="48.69802" lon="1.69355">
        <ele>158</ele>
        <time>2012-07-25T09:54:23.000Z</time>
      </trkpt>
      <trkpt lat="48.69804" lon="1.69361">
        <ele>158.19999694824</ele>
        <time>2012-07-25T09:54:26.000Z</time>
      </trkpt>
      <trkpt lat="48.69807" lon="1.6937">
        <ele>158.60000610352</ele>
        <time>2012-07-25T09:54:30.000Z</time>
      </trkpt>
      <trkpt lat="48.6981" lon="1.69384">
        <ele>159.19999694824</ele>
        <time>2012-07-25T09:54:35.000Z</time>
      </trkpt>
      <trkpt lat="48.69813" lon="1.69397">
        <ele>159.80000305176</ele>
        <time>2012-07-25T09:54:40.000Z</time>
      </trkpt>
      <trkpt lat="48.69816" lon="1.69406">
        <ele>160.19999694824</ele>
        <time>2012-07-25T09:54:44.000Z</time>
      </trkpt>
      <trkpt lat="48.69819" lon="1.69428">
        <ele>161</ele>
        <time>2012-07-25T09:54:52.000Z</time>
      </trkpt>
      <trkpt lat="48.69824" lon="1.69444">
        <ele>161.80000305176</ele>
        <time>2012-07-25T09:54:59.000Z</time>
      </trkpt>
      <trkpt lat="48.69825" lon="1.69458">
        <ele>162.19999694824</ele>
        <time>2012-07-25T09:55:06.000Z</time>
      </trkpt>
      <trkpt lat="48.69825" lon="1.69476">
        <ele>162.39999389648</ele>
        <time>2012-07-25T09:55:14.000Z</time>
      </trkpt>
      <trkpt lat="48.69831" lon="1.69505">
        <ele>163.60000610352</ele>
        <time>2012-07-25T09:55:23.000Z</time>
      </trkpt>
      <trkpt lat="48.69838" lon="1.69526">
        <ele>163.39999389648</ele>
        <time>2012-07-25T09:55:31.000Z</time>
      </trkpt>
      <trkpt lat="48.69843" lon="1.69545">
        <ele>163.19999694824</ele>
        <time>2012-07-25T09:55:39.000Z</time>
      </trkpt>
      <trkpt lat="48.69847" lon="1.6956">
        <ele>162.80000305176</ele>
        <time>2012-07-25T09:55:46.000Z</time>
      </trkpt>
      <trkpt lat="48.69853" lon="1.69574">
        <ele>162.60000610352</ele>
        <time>2012-07-25T09:55:53.000Z</time>
      </trkpt>
      <trkpt lat="48.69857" lon="1.69591">
        <ele>162.60000610352</ele>
        <time>2012-07-25T09:56:00.000Z</time>
      </trkpt>
      <trkpt lat="48.69862" lon="1.69612">
        <ele>162.39999389648</ele>
        <time>2012-07-25T09:56:08.000Z</time>
      </trkpt>
      <trkpt lat="48.69867" lon="1.69628">
        <ele>162.39999389648</ele>
        <time>2012-07-25T09:56:15.000Z</time>
      </trkpt>
      <trkpt lat="48.69869" lon="1.69638">
        <ele>162.39999389648</ele>
        <time>2012-07-25T09:56:19.000Z</time>
      </trkpt>
      <trkpt lat="48.69876" lon="1.69663">
        <ele>162.60000610352</ele>
        <time>2012-07-25T09:56:29.000Z</time>
      </trkpt>
      <trkpt lat="48.6988" lon="1.69677">
        <ele>163.19999694824</ele>
        <time>2012-07-25T09:56:35.000Z</time>
      </trkpt>
      <trkpt lat="48.69881" lon="1.69679">
        <ele>163.39999389648</ele>
        <time>2012-07-25T09:56:36.000Z</time>
      </trkpt>
      <trkpt lat="48.69885" lon="1.69688">
        <ele>163.80000305176</ele>
        <time>2012-07-25T09:56:40.000Z</time>
      </trkpt>
      <trkpt lat="48.6989" lon="1.69699">
        <ele>164.60000610352</ele>
        <time>2012-07-25T09:56:45.000Z</time>
      </trkpt>
      <trkpt lat="48.69893" lon="1.69707">
        <ele>165.19999694824</ele>
        <time>2012-07-25T09:56:48.000Z</time>
      </trkpt>
      <trkpt lat="48.69901" lon="1.69727">
        <ele>166.39999389648</ele>
        <time>2012-07-25T09:56:56.000Z</time>
      </trkpt>
      <trkpt lat="48.69903" lon="1.69732">
        <ele>166.60000610352</ele>
        <time>2012-07-25T09:56:58.000Z</time>
      </trkpt>
      <trkpt lat="48.69907" lon="1.69746">
        <ele>167.39999389648</ele>
        <time>2012-07-25T09:57:04.000Z</time>
      </trkpt>
      <trkpt lat="48.69909" lon="1.69753">
        <ele>167.80000305176</ele>
        <time>2012-07-25T09:57:06.000Z</time>
      </trkpt>
      <trkpt lat="48.69912" lon="1.69761">
        <ele>168.39999389648</ele>
        <time>2012-07-25T09:57:10.000Z</time>
      </trkpt>
      <trkpt lat="48.69918" lon="1.69777">
        <ele>169.60000610352</ele>
        <time>2012-07-25T09:57:17.000Z</time>
      </trkpt>
      <trkpt lat="48.69923" lon="1.69792">
        <ele>170.60000610352</ele>
        <time>2012-07-25T09:57:24.000Z</time>
      </trkpt>
      <trkpt lat="48.69927" lon="1.69806">
        <ele>171.60000610352</ele>
        <time>2012-07-25T09:57:30.000Z</time>
      </trkpt>
      <trkpt lat="48.69932" lon="1.69822">
        <ele>172.39999389648</ele>
        <time>2012-07-25T09:57:37.000Z</time>
      </trkpt>
      <trkpt lat="48.69936" lon="1.69834">
        <ele>173</ele>
        <time>2012-07-25T09:57:43.000Z</time>
      </trkpt>
      <trkpt lat="48.69944" lon="1.69851">
        <ele>173.60000610352</ele>
        <time>2012-07-25T09:57:51.000Z</time>
      </trkpt>
      <trkpt lat="48.6995" lon="1.69862">
        <ele>174</ele>
        <time>2012-07-25T09:57:56.000Z</time>
      </trkpt>
      <trkpt lat="48.69953" lon="1.69867">
        <ele>174</ele>
        <time>2012-07-25T09:57:58.000Z</time>
      </trkpt>
      <trkpt lat="48.69957" lon="1.69879">
        <ele>174.39999389648</ele>
        <time>2012-07-25T09:58:04.000Z</time>
      </trkpt>
      <trkpt lat="48.6996" lon="1.69897">
        <ele>175</ele>
        <time>2012-07-25T09:58:12.000Z</time>
      </trkpt>
      <trkpt lat="48.6997" lon="1.69911">
        <ele>175.19999694824</ele>
        <time>2012-07-25T09:58:20.000Z</time>
      </trkpt>
      <trkpt lat="48.69979" lon="1.6992">
        <ele>175.39999389648</ele>
        <time>2012-07-25T09:58:27.000Z</time>
      </trkpt>
      <trkpt lat="48.69988" lon="1.69933">
        <ele>175.60000610352</ele>
        <time>2012-07-25T09:58:33.000Z</time>
      </trkpt>
      <trkpt lat="48.69996" lon="1.69944">
        <ele>175.80000305176</ele>
        <time>2012-07-25T09:58:40.000Z</time>
      </trkpt>
      <trkpt lat="48.7" lon="1.69957">
        <ele>176</ele>
        <time>2012-07-25T09:58:46.000Z</time>
      </trkpt>
      <trkpt lat="48.70001" lon="1.69963">
        <ele>176.19999694824</ele>
        <time>2012-07-25T09:58:49.000Z</time>
      </trkpt>
      <trkpt lat="48.70007" lon="1.6997">
        <ele>176.60000610352</ele>
        <time>2012-07-25T09:58:53.000Z</time>
      </trkpt>
      <trkpt lat="48.70018" lon="1.69983">
        <ele>177.39999389648</ele>
        <time>2012-07-25T09:59:00.000Z</time>
      </trkpt>
      <trkpt lat="48.70021" lon="1.69987">
        <ele>177.60000610352</ele>
        <time>2012-07-25T09:59:02.000Z</time>
      </trkpt>
      <trkpt lat="48.70031" lon="1.69997">
        <ele>178.39999389648</ele>
        <time>2012-07-25T09:59:08.000Z</time>
      </trkpt>
      <trkpt lat="48.70036" lon="1.7001">
        <ele>178.80000305176</ele>
        <time>2012-07-25T09:59:14.000Z</time>
      </trkpt>
      <trkpt lat="48.70038" lon="1.70016">
        <ele>179</ele>
        <time>2012-07-25T09:59:17.000Z</time>
      </trkpt>
      <trkpt lat="48.70048" lon="1.7003">
        <ele>179.39999389648</ele>
        <time>2012-07-25T09:59:25.000Z</time>
      </trkpt>
      <trkpt lat="48.70056" lon="1.70043">
        <ele>179.80000305176</ele>
        <time>2012-07-25T09:59:32.000Z</time>
      </trkpt>
      <trkpt lat="48.70065" lon="1.70057">
        <ele>180.19999694824</ele>
        <time>2012-07-25T09:59:40.000Z</time>
      </trkpt>
      <trkpt lat="48.70073" lon="1.70067">
        <ele>180.60000610352</ele>
        <time>2012-07-25T09:59:46.000Z</time>
      </trkpt>
      <trkpt lat="48.70077" lon="1.70081">
        <ele>180.80000305176</ele>
        <time>2012-07-25T09:59:52.000Z</time>
      </trkpt>
      <trkpt lat="48.70081" lon="1.70085">
        <ele>180.80000305176</ele>
        <time>2012-07-25T09:59:55.000Z</time>
      </trkpt>
      <trkpt lat="48.70093" lon="1.701">
        <ele>180.60000610352</ele>
        <time>2012-07-25T10:00:03.000Z</time>
      </trkpt>
      <trkpt lat="48.70103" lon="1.70111">
        <ele>180.39999389648</ele>
        <time>2012-07-25T10:00:10.000Z</time>
      </trkpt>
      <trkpt lat="48.70111" lon="1.70121">
        <ele>180.19999694824</ele>
        <time>2012-07-25T10:00:16.000Z</time>
      </trkpt>
      <trkpt lat="48.70117" lon="1.70133">
        <ele>179.80000305176</ele>
        <time>2012-07-25T10:00:22.000Z</time>
      </trkpt>
      <trkpt lat="48.70123" lon="1.70144">
        <ele>179.39999389648</ele>
        <time>2012-07-25T10:00:28.000Z</time>
      </trkpt>
      <trkpt lat="48.70127" lon="1.70154">
        <ele>179</ele>
        <time>2012-07-25T10:00:33.000Z</time>
      </trkpt>
      <trkpt lat="48.7013" lon="1.70165">
        <ele>178.60000610352</ele>
        <time>2012-07-25T10:00:38.000Z</time>
      </trkpt>
      <trkpt lat="48.70133" lon="1.70171">
        <ele>178.39999389648</ele>
        <time>2012-07-25T10:00:41.000Z</time>
      </trkpt>
      <trkpt lat="48.70141" lon="1.70191">
        <ele>178.19999694824</ele>
        <time>2012-07-25T10:00:50.000Z</time>
      </trkpt>
      <trkpt lat="48.70144" lon="1.70197">
        <ele>178</ele>
        <time>2012-07-25T10:00:53.000Z</time>
      </trkpt>
      <trkpt lat="48.70148" lon="1.70209">
        <ele>177.80000305176</ele>
        <time>2012-07-25T10:00:59.000Z</time>
      </trkpt>
      <trkpt lat="48.70149" lon="1.70211">
        <ele>177.80000305176</ele>
        <time>2012-07-25T10:01:00.000Z</time>
      </trkpt>
      <trkpt lat="48.70154" lon="1.7023">
        <ele>177.39999389648</ele>
        <time>2012-07-25T10:01:09.000Z</time>
      </trkpt>
      <trkpt lat="48.7016" lon="1.70245">
        <ele>177</ele>
        <time>2012-07-25T10:01:16.000Z</time>
      </trkpt>
      <trkpt lat="48.70167" lon="1.70265">
        <ele>177.19999694824</ele>
        <time>2012-07-25T10:01:24.000Z</time>
      </trkpt>
      <trkpt lat="48.7017" lon="1.7027">
        <ele>177.39999389648</ele>
        <time>2012-07-25T10:01:27.000Z</time>
      </trkpt>
      <trkpt lat="48.70175" lon="1.7028">
        <ele>178</ele>
        <time>2012-07-25T10:01:32.000Z</time>
      </trkpt>
      <trkpt lat="48.70176" lon="1.70288">
        <ele>178</ele>
        <time>2012-07-25T10:01:35.000Z</time>
      </trkpt>
      <trkpt lat="48.70184" lon="1.70301">
        <ele>178.80000305176</ele>
        <time>2012-07-25T10:01:41.000Z</time>
      </trkpt>
      <trkpt lat="48.70185" lon="1.70303">
        <ele>178.80000305176</ele>
        <time>2012-07-25T10:01:42.000Z</time>
      </trkpt>
      <trkpt lat="48.70187" lon="1.7031">
        <ele>179</ele>
        <time>2012-07-25T10:01:45.000Z</time>
      </trkpt>
      <trkpt lat="48.7019" lon="1.70317">
        <ele>179.19999694824</ele>
        <time>2012-07-25T10:01:49.000Z</time>
      </trkpt>
      <trkpt lat="48.70193" lon="1.70331">
        <ele>179.60000610352</ele>
        <time>2012-07-25T10:01:56.000Z</time>
      </trkpt>
      <trkpt lat="48.70195" lon="1.7034">
        <ele>179.80000305176</ele>
        <time>2012-07-25T10:01:59.000Z</time>
      </trkpt>
      <trkpt lat="48.702" lon="1.7035">
        <ele>180.19999694824</ele>
        <time>2012-07-25T10:02:04.000Z</time>
      </trkpt>
      <trkpt lat="48.70205" lon="1.70362">
        <ele>180.60000610352</ele>
        <time>2012-07-25T10:02:10.000Z</time>
      </trkpt>
      <trkpt lat="48.70205" lon="1.70371">
        <ele>180.80000305176</ele>
        <time>2012-07-25T10:02:12.000Z</time>
      </trkpt>
      <trkpt lat="48.7021" lon="1.70388">
        <ele>181.19999694824</ele>
        <time>2012-07-25T10:02:18.000Z</time>
      </trkpt>
      <trkpt lat="48.70215" lon="1.70396">
        <ele>181.60000610352</ele>
        <time>2012-07-25T10:02:22.000Z</time>
      </trkpt>
      <trkpt lat="48.70219" lon="1.70404">
        <ele>182</ele>
        <time>2012-07-25T10:02:26.000Z</time>
      </trkpt>
      <trkpt lat="48.70223" lon="1.70417">
        <ele>182.39999389648</ele>
        <time>2012-07-25T10:02:31.000Z</time>
      </trkpt>
      <trkpt lat="48.70229" lon="1.70431">
        <ele>182.39999389648</ele>
        <time>2012-07-25T10:02:38.000Z</time>
      </trkpt>
      <trkpt lat="48.70235" lon="1.70449">
        <ele>182.39999389648</ele>
        <time>2012-07-25T10:02:46.000Z</time>
      </trkpt>
      <trkpt lat="48.70241" lon="1.70464">
        <ele>182.39999389648</ele>
        <time>2012-07-25T10:02:53.000Z</time>
      </trkpt>
      <trkpt lat="48.70245" lon="1.70469">
        <ele>182.39999389648</ele>
        <time>2012-07-25T10:02:56.000Z</time>
      </trkpt>
      <trkpt lat="48.70248" lon="1.70481">
        <ele>182.39999389648</ele>
        <time>2012-07-25T10:03:02.000Z</time>
      </trkpt>
      <trkpt lat="48.70253" lon="1.70498">
        <ele>182.19999694824</ele>
        <time>2012-07-25T10:03:09.000Z</time>
      </trkpt>
      <trkpt lat="48.70258" lon="1.70509">
        <ele>182.19999694824</ele>
        <time>2012-07-25T10:03:14.000Z</time>
      </trkpt>
      <trkpt lat="48.70262" lon="1.70528">
        <ele>182.19999694824</ele>
        <time>2012-07-25T10:03:21.000Z</time>
      </trkpt>
      <trkpt lat="48.70265" lon="1.7055">
        <ele>182.19999694824</ele>
        <time>2012-07-25T10:03:28.000Z</time>
      </trkpt>
      <trkpt lat="48.7027" lon="1.70564">
        <ele>182.39999389648</ele>
        <time>2012-07-25T10:03:35.000Z</time>
      </trkpt>
      <trkpt lat="48.70275" lon="1.70574">
        <ele>182.60000610352</ele>
        <time>2012-07-25T10:03:41.000Z</time>
      </trkpt>
      <trkpt lat="48.70285" lon="1.70581">
        <ele>183.19999694824</ele>
        <time>2012-07-25T10:03:54.000Z</time>
      </trkpt>
      <trkpt lat="48.70287" lon="1.70595">
        <ele>183.19999694824</ele>
        <time>2012-07-25T10:03:59.000Z</time>
      </trkpt>
      <trkpt lat="48.7029" lon="1.70605">
        <ele>183.39999389648</ele>
        <time>2012-07-25T10:04:06.000Z</time>
      </trkpt>
      <trkpt lat="48.70293" lon="1.70619">
        <ele>183.60000610352</ele>
        <time>2012-07-25T10:04:13.000Z</time>
      </trkpt>
      <trkpt lat="48.70293" lon="1.70622">
        <ele>183.60000610352</ele>
        <time>2012-07-25T10:04:14.000Z</time>
      </trkpt>
      <trkpt lat="48.70296" lon="1.70632">
        <ele>183.80000305176</ele>
        <time>2012-07-25T10:04:19.000Z</time>
      </trkpt>
      <trkpt lat="48.703" lon="1.70643">
        <ele>184</ele>
        <time>2012-07-25T10:04:24.000Z</time>
      </trkpt>
      <trkpt lat="48.70303" lon="1.70648">
        <ele>184.19999694824</ele>
        <time>2012-07-25T10:04:27.000Z</time>
      </trkpt>
      <trkpt lat="48.70304" lon="1.70654">
        <ele>184.19999694824</ele>
        <time>2012-07-25T10:04:29.000Z</time>
      </trkpt>
      <trkpt lat="48.7031" lon="1.70668">
        <ele>184.60000610352</ele>
        <time>2012-07-25T10:04:35.000Z</time>
      </trkpt>
      <trkpt lat="48.70312" lon="1.70671">
        <ele>184.60000610352</ele>
        <time>2012-07-25T10:04:37.000Z</time>
      </trkpt>
      <trkpt lat="48.70317" lon="1.70689">
        <ele>184.60000610352</ele>
        <time>2012-07-25T10:04:44.000Z</time>
      </trkpt>
      <trkpt lat="48.7032" lon="1.70708">
        <ele>184.60000610352</ele>
        <time>2012-07-25T10:04:51.000Z</time>
      </trkpt>
      <trkpt lat="48.70325" lon="1.70717">
        <ele>184.60000610352</ele>
        <time>2012-07-25T10:04:56.000Z</time>
      </trkpt>
      <trkpt lat="48.70332" lon="1.70724">
        <ele>184.60000610352</ele>
        <time>2012-07-25T10:05:01.000Z</time>
      </trkpt>
      <trkpt lat="48.70333" lon="1.70725">
        <ele>184.60000610352</ele>
        <time>2012-07-25T10:05:02.000Z</time>
      </trkpt>
      <trkpt lat="48.7034" lon="1.70741">
        <ele>184.39999389648</ele>
        <time>2012-07-25T10:05:09.000Z</time>
      </trkpt>
      <trkpt lat="48.70342" lon="1.70758">
        <ele>184.39999389648</ele>
        <time>2012-07-25T10:05:15.000Z</time>
      </trkpt>
      <trkpt lat="48.70343" lon="1.7076">
        <ele>184.39999389648</ele>
        <time>2012-07-25T10:05:16.000Z</time>
      </trkpt>
      <trkpt lat="48.70348" lon="1.70775">
        <ele>184.80000305176</ele>
        <time>2012-07-25T10:05:22.000Z</time>
      </trkpt>
      <trkpt lat="48.7035" lon="1.70787">
        <ele>185.19999694824</ele>
        <time>2012-07-25T10:05:26.000Z</time>
      </trkpt>
      <trkpt lat="48.70356" lon="1.70802">
        <ele>185.60000610352</ele>
        <time>2012-07-25T10:05:32.000Z</time>
      </trkpt>
      <trkpt lat="48.7036" lon="1.7081">
        <ele>185.80000305176</ele>
        <time>2012-07-25T10:05:36.000Z</time>
      </trkpt>
      <trkpt lat="48.70365" lon="1.70833">
        <ele>186.39999389648</ele>
        <time>2012-07-25T10:05:44.000Z</time>
      </trkpt>
      <trkpt lat="48.70368" lon="1.7085">
        <ele>186.60000610352</ele>
        <time>2012-07-25T10:05:51.000Z</time>
      </trkpt>
      <trkpt lat="48.70374" lon="1.70865">
        <ele>186.60000610352</ele>
        <time>2012-07-25T10:05:57.000Z</time>
      </trkpt>
      <trkpt lat="48.7038" lon="1.70878">
        <ele>186.80000305176</ele>
        <time>2012-07-25T10:06:03.000Z</time>
      </trkpt>
      <trkpt lat="48.70384" lon="1.70892">
        <ele>186.80000305176</ele>
        <time>2012-07-25T10:06:09.000Z</time>
      </trkpt>
      <trkpt lat="48.70389" lon="1.70906">
        <ele>187</ele>
        <time>2012-07-25T10:06:16.000Z</time>
      </trkpt>
      <trkpt lat="48.70396" lon="1.70922">
        <ele>187</ele>
        <time>2012-07-25T10:06:24.000Z</time>
      </trkpt>
      <trkpt lat="48.70398" lon="1.70926">
        <ele>187</ele>
        <time>2012-07-25T10:06:26.000Z</time>
      </trkpt>
      <trkpt lat="48.70398" lon="1.70935">
        <ele>187</ele>
        <time>2012-07-25T10:06:29.000Z</time>
      </trkpt>
      <trkpt lat="48.70404" lon="1.70948">
        <ele>187</ele>
        <time>2012-07-25T10:06:35.000Z</time>
      </trkpt>
      <trkpt lat="48.70409" lon="1.70967">
        <ele>187</ele>
        <time>2012-07-25T10:06:42.000Z</time>
      </trkpt>
      <trkpt lat="48.70415" lon="1.70977">
        <ele>187</ele>
        <time>2012-07-25T10:06:47.000Z</time>
      </trkpt>
      <trkpt lat="48.70419" lon="1.7099">
        <ele>187</ele>
        <time>2012-07-25T10:06:52.000Z</time>
      </trkpt>
      <trkpt lat="48.70425" lon="1.71008">
        <ele>186.60000610352</ele>
        <time>2012-07-25T10:07:01.000Z</time>
      </trkpt>
      <trkpt lat="48.70431" lon="1.71023">
        <ele>186</ele>
        <time>2012-07-25T10:07:07.000Z</time>
      </trkpt>
      <trkpt lat="48.70436" lon="1.71038">
        <ele>185.80000305176</ele>
        <time>2012-07-25T10:07:13.000Z</time>
      </trkpt>
      <trkpt lat="48.70438" lon="1.71046">
        <ele>185.60000610352</ele>
        <time>2012-07-25T10:07:17.000Z</time>
      </trkpt>
      <trkpt lat="48.70444" lon="1.71064">
        <ele>185.19999694824</ele>
        <time>2012-07-25T10:07:25.000Z</time>
      </trkpt>
      <trkpt lat="48.70449" lon="1.71078">
        <ele>185</ele>
        <time>2012-07-25T10:07:31.000Z</time>
      </trkpt>
      <trkpt lat="48.70453" lon="1.71093">
        <ele>185</ele>
        <time>2012-07-25T10:07:38.000Z</time>
      </trkpt>
      <trkpt lat="48.70454" lon="1.71095">
        <ele>185</ele>
        <time>2012-07-25T10:07:39.000Z</time>
      </trkpt>
      <trkpt lat="48.70458" lon="1.71107">
        <ele>185.19999694824</ele>
        <time>2012-07-25T10:07:45.000Z</time>
      </trkpt>
      <trkpt lat="48.70463" lon="1.71118">
        <ele>185.19999694824</ele>
        <time>2012-07-25T10:07:50.000Z</time>
      </trkpt>
      <trkpt lat="48.70469" lon="1.71127">
        <ele>185.19999694824</ele>
        <time>2012-07-25T10:07:55.000Z</time>
      </trkpt>
      <trkpt lat="48.70477" lon="1.71135">
        <ele>185.19999694824</ele>
        <time>2012-07-25T10:08:01.000Z</time>
      </trkpt>
      <trkpt lat="48.70484" lon="1.71152">
        <ele>185.19999694824</ele>
        <time>2012-07-25T10:08:09.000Z</time>
      </trkpt>
      <trkpt lat="48.70484" lon="1.71158">
        <ele>185.19999694824</ele>
        <time>2012-07-25T10:08:11.000Z</time>
      </trkpt>
      <trkpt lat="48.70489" lon="1.71169">
        <ele>185.19999694824</ele>
        <time>2012-07-25T10:08:16.000Z</time>
      </trkpt>
      <trkpt lat="48.70493" lon="1.71184">
        <ele>185.19999694824</ele>
        <time>2012-07-25T10:08:23.000Z</time>
      </trkpt>
      <trkpt lat="48.70492" lon="1.71199">
        <ele>185.39999389648</ele>
        <time>2012-07-25T10:08:29.000Z</time>
      </trkpt>
      <trkpt lat="48.70492" lon="1.71201">
        <ele>185.60000610352</ele>
        <time>2012-07-25T10:08:30.000Z</time>
      </trkpt>
      <trkpt lat="48.70488" lon="1.71209">
        <ele>185.60000610352</ele>
        <time>2012-07-25T10:08:34.000Z</time>
      </trkpt>
      <trkpt lat="48.70485" lon="1.71225">
        <ele>185.80000305176</ele>
        <time>2012-07-25T10:08:42.000Z</time>
      </trkpt>
      <trkpt lat="48.70481" lon="1.71239">
        <ele>186</ele>
        <time>2012-07-25T10:08:47.000Z</time>
      </trkpt>
      <trkpt lat="48.70477" lon="1.71256">
        <ele>186.39999389648</ele>
        <time>2012-07-25T10:08:54.000Z</time>
      </trkpt>
      <trkpt lat="48.70475" lon="1.71272">
        <ele>186.60000610352</ele>
        <time>2012-07-25T10:09:01.000Z</time>
      </trkpt>
      <trkpt lat="48.70473" lon="1.71284">
        <ele>186.80000305176</ele>
        <time>2012-07-25T10:09:06.000Z</time>
      </trkpt>
      <trkpt lat="48.7047" lon="1.71299">
        <ele>187</ele>
        <time>2012-07-25T10:09:12.000Z</time>
      </trkpt>
      <trkpt lat="48.70466" lon="1.71316">
        <ele>187</ele>
        <time>2012-07-25T10:09:18.000Z</time>
      </trkpt>
      <trkpt lat="48.70461" lon="1.71334">
        <ele>187</ele>
        <time>2012-07-25T10:09:24.000Z</time>
      </trkpt>
      <trkpt lat="48.70457" lon="1.71352">
        <ele>187</ele>
        <time>2012-07-25T10:09:32.000Z</time>
      </trkpt>
      <trkpt lat="48.70454" lon="1.71368">
        <ele>186.80000305176</ele>
        <time>2012-07-25T10:09:39.000Z</time>
      </trkpt>
      <trkpt lat="48.70452" lon="1.71382">
        <ele>186.80000305176</ele>
        <time>2012-07-25T10:09:45.000Z</time>
      </trkpt>
      <trkpt lat="48.70447" lon="1.71401">
        <ele>186.60000610352</ele>
        <time>2012-07-25T10:09:52.000Z</time>
      </trkpt>
      <trkpt lat="48.70444" lon="1.71421">
        <ele>186.19999694824</ele>
        <time>2012-07-25T10:10:00.000Z</time>
      </trkpt>
      <trkpt lat="48.70438" lon="1.71443">
        <ele>186.19999694824</ele>
        <time>2012-07-25T10:10:08.000Z</time>
      </trkpt>
      <trkpt lat="48.70436" lon="1.71455">
        <ele>186</ele>
        <time>2012-07-25T10:10:14.000Z</time>
      </trkpt>
      <trkpt lat="48.70434" lon="1.71471">
        <ele>186</ele>
        <time>2012-07-25T10:10:20.000Z</time>
      </trkpt>
      <trkpt lat="48.7043" lon="1.71486">
        <ele>186</ele>
        <time>2012-07-25T10:10:27.000Z</time>
      </trkpt>
      <trkpt lat="48.70427" lon="1.71503">
        <ele>186</ele>
        <time>2012-07-25T10:10:34.000Z</time>
      </trkpt>
      <trkpt lat="48.70426" lon="1.7152">
        <ele>186</ele>
        <time>2012-07-25T10:10:40.000Z</time>
      </trkpt>
      <trkpt lat="48.70424" lon="1.71531">
        <ele>185.80000305176</ele>
        <time>2012-07-25T10:10:45.000Z</time>
      </trkpt>
      <trkpt lat="48.7042" lon="1.7155">
        <ele>185.39999389648</ele>
        <time>2012-07-25T10:10:53.000Z</time>
      </trkpt>
      <trkpt lat="48.70417" lon="1.71563">
        <ele>185.19999694824</ele>
        <time>2012-07-25T10:10:58.000Z</time>
      </trkpt>
      <trkpt lat="48.7041" lon="1.71589">
        <ele>185</ele>
        <time>2012-07-25T10:11:09.000Z</time>
      </trkpt>
      <trkpt lat="48.70406" lon="1.71605">
        <ele>185</ele>
        <time>2012-07-25T10:11:15.000Z</time>
      </trkpt>
      <trkpt lat="48.70402" lon="1.71626">
        <ele>185.19999694824</ele>
        <time>2012-07-25T10:11:23.000Z</time>
      </trkpt>
      <trkpt lat="48.70399" lon="1.71642">
        <ele>185.19999694824</ele>
        <time>2012-07-25T10:11:30.000Z</time>
      </trkpt>
      <trkpt lat="48.70397" lon="1.71656">
        <ele>185.39999389648</ele>
        <time>2012-07-25T10:11:36.000Z</time>
      </trkpt>
      <trkpt lat="48.70395" lon="1.7167">
        <ele>185.60000610352</ele>
        <time>2012-07-25T10:11:42.000Z</time>
      </trkpt>
      <trkpt lat="48.70392" lon="1.71688">
        <ele>185.80000305176</ele>
        <time>2012-07-25T10:11:49.000Z</time>
      </trkpt>
      <trkpt lat="48.70388" lon="1.71702">
        <ele>185.80000305176</ele>
        <time>2012-07-25T10:11:55.000Z</time>
      </trkpt>
      <trkpt lat="48.70384" lon="1.71718">
        <ele>186</ele>
        <time>2012-07-25T10:12:02.000Z</time>
      </trkpt>
      <trkpt lat="48.70381" lon="1.71734">
        <ele>186.19999694824</ele>
        <time>2012-07-25T10:12:07.000Z</time>
      </trkpt>
      <trkpt lat="48.70378" lon="1.71748">
        <ele>186.60000610352</ele>
        <time>2012-07-25T10:12:13.000Z</time>
      </trkpt>
      <trkpt lat="48.70375" lon="1.71764">
        <ele>186.19999694824</ele>
        <time>2012-07-25T10:12:20.000Z</time>
      </trkpt>
      <trkpt lat="48.70369" lon="1.71779">
        <ele>185.80000305176</ele>
        <time>2012-07-25T10:12:27.000Z</time>
      </trkpt>
      <trkpt lat="48.70365" lon="1.71799">
        <ele>185.39999389648</ele>
        <time>2012-07-25T10:12:34.000Z</time>
      </trkpt>
      <trkpt lat="48.70362" lon="1.71816">
        <ele>185</ele>
        <time>2012-07-25T10:12:40.000Z</time>
      </trkpt>
      <trkpt lat="48.70358" lon="1.71836">
        <ele>184.60000610352</ele>
        <time>2012-07-25T10:12:48.000Z</time>
      </trkpt>
      <trkpt lat="48.70355" lon="1.71856">
        <ele>184.19999694824</ele>
        <time>2012-07-25T10:12:55.000Z</time>
      </trkpt>
      <trkpt lat="48.7035" lon="1.71875">
        <ele>184</ele>
        <time>2012-07-25T10:13:02.000Z</time>
      </trkpt>
      <trkpt lat="48.70344" lon="1.71895">
        <ele>183.60000610352</ele>
        <time>2012-07-25T10:13:10.000Z</time>
      </trkpt>
      <trkpt lat="48.70342" lon="1.719">
        <ele>183.39999389648</ele>
        <time>2012-07-25T10:13:12.000Z</time>
      </trkpt>
      <trkpt lat="48.70339" lon="1.71919">
        <ele>183.19999694824</ele>
        <time>2012-07-25T10:13:20.000Z</time>
      </trkpt>
      <trkpt lat="48.70337" lon="1.71933">
        <ele>183</ele>
        <time>2012-07-25T10:13:26.000Z</time>
      </trkpt>
      <trkpt lat="48.70333" lon="1.71952">
        <ele>183</ele>
        <time>2012-07-25T10:13:33.000Z</time>
      </trkpt>
      <trkpt lat="48.70329" lon="1.7197">
        <ele>182.80000305176</ele>
        <time>2012-07-25T10:13:40.000Z</time>
      </trkpt>
      <trkpt lat="48.70324" lon="1.71992">
        <ele>182.39999389648</ele>
        <time>2012-07-25T10:13:49.000Z</time>
      </trkpt>
      <trkpt lat="48.7032" lon="1.72009">
        <ele>182.39999389648</ele>
        <time>2012-07-25T10:13:56.000Z</time>
      </trkpt>
      <trkpt lat="48.70315" lon="1.72031">
        <ele>182.80000305176</ele>
        <time>2012-07-25T10:14:05.000Z</time>
      </trkpt>
      <trkpt lat="48.70313" lon="1.72038">
        <ele>182.80000305176</ele>
        <time>2012-07-25T10:14:09.000Z</time>
      </trkpt>
      <trkpt lat="48.70309" lon="1.72053">
        <ele>183</ele>
        <time>2012-07-25T10:14:16.000Z</time>
      </trkpt>
      <trkpt lat="48.70306" lon="1.72061">
        <ele>183</ele>
        <time>2012-07-25T10:14:20.000Z</time>
      </trkpt>
      <trkpt lat="48.70304" lon="1.7207">
        <ele>183.19999694824</ele>
        <time>2012-07-25T10:14:24.000Z</time>
      </trkpt>
      <trkpt lat="48.70303" lon="1.72086">
        <ele>183.60000610352</ele>
        <time>2012-07-25T10:14:31.000Z</time>
      </trkpt>
      <trkpt lat="48.70302" lon="1.72092">
        <ele>183.60000610352</ele>
        <time>2012-07-25T10:14:33.000Z</time>
      </trkpt>
      <trkpt lat="48.70299" lon="1.72112">
        <ele>184</ele>
        <time>2012-07-25T10:14:40.000Z</time>
      </trkpt>
      <trkpt lat="48.70294" lon="1.72132">
        <ele>184.19999694824</ele>
        <time>2012-07-25T10:14:48.000Z</time>
      </trkpt>
      <trkpt lat="48.70291" lon="1.72144">
        <ele>184.39999389648</ele>
        <time>2012-07-25T10:14:53.000Z</time>
      </trkpt>
      <trkpt lat="48.7029" lon="1.72149">
        <ele>184.60000610352</ele>
        <time>2012-07-25T10:14:55.000Z</time>
      </trkpt>
      <trkpt lat="48.70287" lon="1.72167">
        <ele>184.80000305176</ele>
        <time>2012-07-25T10:15:02.000Z</time>
      </trkpt>
      <trkpt lat="48.70286" lon="1.72173">
        <ele>185</ele>
        <time>2012-07-25T10:15:04.000Z</time>
      </trkpt>
      <trkpt lat="48.70281" lon="1.72191">
        <ele>185</ele>
        <time>2012-07-25T10:15:11.000Z</time>
      </trkpt>
      <trkpt lat="48.70277" lon="1.72209">
        <ele>185</ele>
        <time>2012-07-25T10:15:18.000Z</time>
      </trkpt>
      <trkpt lat="48.70273" lon="1.72225">
        <ele>185</ele>
        <time>2012-07-25T10:15:25.000Z</time>
      </trkpt>
      <trkpt lat="48.7027" lon="1.72245">
        <ele>185.19999694824</ele>
        <time>2012-07-25T10:15:33.000Z</time>
      </trkpt>
      <trkpt lat="48.70266" lon="1.72261">
        <ele>185.19999694824</ele>
        <time>2012-07-25T10:15:38.000Z</time>
      </trkpt>
      <trkpt lat="48.7026" lon="1.72282">
        <ele>185</ele>
        <time>2012-07-25T10:15:47.000Z</time>
      </trkpt>
      <trkpt lat="48.70258" lon="1.72299">
        <ele>185</ele>
        <time>2012-07-25T10:15:54.000Z</time>
      </trkpt>
      <trkpt lat="48.70255" lon="1.72315">
        <ele>185</ele>
        <time>2012-07-25T10:16:01.000Z</time>
      </trkpt>
      <trkpt lat="48.70249" lon="1.72336">
        <ele>184.80000305176</ele>
        <time>2012-07-25T10:16:11.000Z</time>
      </trkpt>
      <trkpt lat="48.70246" lon="1.72353">
        <ele>184.19999694824</ele>
        <time>2012-07-25T10:16:18.000Z</time>
      </trkpt>
      <trkpt lat="48.70242" lon="1.72371">
        <ele>183.80000305176</ele>
        <time>2012-07-25T10:16:24.000Z</time>
      </trkpt>
      <trkpt lat="48.70237" lon="1.72391">
        <ele>183.19999694824</ele>
        <time>2012-07-25T10:16:32.000Z</time>
      </trkpt>
      <trkpt lat="48.70234" lon="1.72407">
        <ele>183</ele>
        <time>2012-07-25T10:16:38.000Z</time>
      </trkpt>
      <trkpt lat="48.70228" lon="1.72425">
        <ele>182.80000305176</ele>
        <time>2012-07-25T10:16:46.000Z</time>
      </trkpt>
      <trkpt lat="48.70225" lon="1.72439">
        <ele>182.80000305176</ele>
        <time>2012-07-25T10:16:52.000Z</time>
      </trkpt>
      <trkpt lat="48.70223" lon="1.72456">
        <ele>182.60000610352</ele>
        <time>2012-07-25T10:16:59.000Z</time>
      </trkpt>
      <trkpt lat="48.70222" lon="1.72468">
        <ele>182.39999389648</ele>
        <time>2012-07-25T10:17:05.000Z</time>
      </trkpt>
      <trkpt lat="48.70219" lon="1.72485">
        <ele>182.19999694824</ele>
        <time>2012-07-25T10:17:13.000Z</time>
      </trkpt>
      <trkpt lat="48.70215" lon="1.72507">
        <ele>182</ele>
        <time>2012-07-25T10:17:21.000Z</time>
      </trkpt>
      <trkpt lat="48.70211" lon="1.72522">
        <ele>181.80000305176</ele>
        <time>2012-07-25T10:17:27.000Z</time>
      </trkpt>
      <trkpt lat="48.70208" lon="1.72538">
        <ele>181.60000610352</ele>
        <time>2012-07-25T10:17:34.000Z</time>
      </trkpt>
      <trkpt lat="48.70205" lon="1.72552">
        <ele>181.39999389648</ele>
        <time>2012-07-25T10:17:39.000Z</time>
      </trkpt>
      <trkpt lat="48.70202" lon="1.72573">
        <ele>181.19999694824</ele>
        <time>2012-07-25T10:17:46.000Z</time>
      </trkpt>
      <trkpt lat="48.70198" lon="1.72589">
        <ele>181.19999694824</ele>
        <time>2012-07-25T10:17:52.000Z</time>
      </trkpt>
      <trkpt lat="48.70196" lon="1.72601">
        <ele>180.80000305176</ele>
        <time>2012-07-25T10:17:58.000Z</time>
      </trkpt>
      <trkpt lat="48.70193" lon="1.72615">
        <ele>180.60000610352</ele>
        <time>2012-07-25T10:18:04.000Z</time>
      </trkpt>
      <trkpt lat="48.70191" lon="1.72626">
        <ele>180.39999389648</ele>
        <time>2012-07-25T10:18:08.000Z</time>
      </trkpt>
      <trkpt lat="48.70186" lon="1.72648">
        <ele>179.80000305176</ele>
        <time>2012-07-25T10:18:16.000Z</time>
      </trkpt>
      <trkpt lat="48.70183" lon="1.72665">
        <ele>179.19999694824</ele>
        <time>2012-07-25T10:18:23.000Z</time>
      </trkpt>
      <trkpt lat="48.70176" lon="1.72683">
        <ele>178.80000305176</ele>
        <time>2012-07-25T10:18:30.000Z</time>
      </trkpt>
      <trkpt lat="48.70172" lon="1.72703">
        <ele>178.19999694824</ele>
        <time>2012-07-25T10:18:37.000Z</time>
      </trkpt>
      <trkpt lat="48.70164" lon="1.72725">
        <ele>177.39999389648</ele>
        <time>2012-07-25T10:18:43.000Z</time>
      </trkpt>
      <trkpt lat="48.70162" lon="1.72733">
        <ele>177</ele>
        <time>2012-07-25T10:18:47.000Z</time>
      </trkpt>
      <trkpt lat="48.70154" lon="1.72752">
        <ele>176.80000305176</ele>
        <time>2012-07-25T10:18:56.000Z</time>
      </trkpt>
      <trkpt lat="48.70149" lon="1.72768">
        <ele>176.80000305176</ele>
        <time>2012-07-25T10:19:03.000Z</time>
      </trkpt>
      <trkpt lat="48.70145" lon="1.7278">
        <ele>176.80000305176</ele>
        <time>2012-07-25T10:19:09.000Z</time>
      </trkpt>
      <trkpt lat="48.7014" lon="1.72797">
        <ele>176.80000305176</ele>
        <time>2012-07-25T10:19:17.000Z</time>
      </trkpt>
      <trkpt lat="48.70136" lon="1.72814">
        <ele>176.80000305176</ele>
        <time>2012-07-25T10:19:24.000Z</time>
      </trkpt>
      <trkpt lat="48.70128" lon="1.72828">
        <ele>177.39999389648</ele>
        <time>2012-07-25T10:19:31.000Z</time>
      </trkpt>
      <trkpt lat="48.70124" lon="1.72842">
        <ele>177.39999389648</ele>
        <time>2012-07-25T10:19:37.000Z</time>
      </trkpt>
      <trkpt lat="48.7012" lon="1.72859">
        <ele>177.39999389648</ele>
        <time>2012-07-25T10:19:44.000Z</time>
      </trkpt>
      <trkpt lat="48.70111" lon="1.72883">
        <ele>177.60000610352</ele>
        <time>2012-07-25T10:19:53.000Z</time>
      </trkpt>
      <trkpt lat="48.70107" lon="1.72898">
        <ele>177.80000305176</ele>
        <time>2012-07-25T10:19:58.000Z</time>
      </trkpt>
      <trkpt lat="48.701" lon="1.72915">
        <ele>177.80000305176</ele>
        <time>2012-07-25T10:20:04.000Z</time>
      </trkpt>
      <trkpt lat="48.70094" lon="1.72935">
        <ele>178.39999389648</ele>
        <time>2012-07-25T10:20:12.000Z</time>
      </trkpt>
      <trkpt lat="48.7009" lon="1.72948">
        <ele>178.80000305176</ele>
        <time>2012-07-25T10:20:18.000Z</time>
      </trkpt>
      <trkpt lat="48.70085" lon="1.72966">
        <ele>179.60000610352</ele>
        <time>2012-07-25T10:20:25.000Z</time>
      </trkpt>
      <trkpt lat="48.70082" lon="1.72976">
        <ele>179.80000305176</ele>
        <time>2012-07-25T10:20:31.000Z</time>
      </trkpt>
      <trkpt lat="48.70075" lon="1.7299">
        <ele>180.60000610352</ele>
        <time>2012-07-25T10:20:37.000Z</time>
      </trkpt>
      <trkpt lat="48.70073" lon="1.73003">
        <ele>181</ele>
        <time>2012-07-25T10:20:42.000Z</time>
      </trkpt>
      <trkpt lat="48.7007" lon="1.73019">
        <ele>181.60000610352</ele>
        <time>2012-07-25T10:20:49.000Z</time>
      </trkpt>
      <trkpt lat="48.70067" lon="1.73031">
        <ele>182</ele>
        <time>2012-07-25T10:20:54.000Z</time>
      </trkpt>
      <trkpt lat="48.70065" lon="1.73037">
        <ele>182.19999694824</ele>
        <time>2012-07-25T10:20:58.000Z</time>
      </trkpt>
      <trkpt lat="48.70059" lon="1.73055">
        <ele>183</ele>
        <time>2012-07-25T10:21:06.000Z</time>
      </trkpt>
      <trkpt lat="48.70056" lon="1.73061">
        <ele>183.19999694824</ele>
        <time>2012-07-25T10:21:09.000Z</time>
      </trkpt>
      <trkpt lat="48.70049" lon="1.73076">
        <ele>183.60000610352</ele>
        <time>2012-07-25T10:21:17.000Z</time>
      </trkpt>
      <trkpt lat="48.70044" lon="1.73089">
        <ele>183.80000305176</ele>
        <time>2012-07-25T10:21:23.000Z</time>
      </trkpt>
      <trkpt lat="48.70042" lon="1.73096">
        <ele>183.60000610352</ele>
        <time>2012-07-25T10:21:26.000Z</time>
      </trkpt>
      <trkpt lat="48.70039" lon="1.7311">
        <ele>183.39999389648</ele>
        <time>2012-07-25T10:21:31.000Z</time>
      </trkpt>
      <trkpt lat="48.70036" lon="1.73118">
        <ele>183.19999694824</ele>
        <time>2012-07-25T10:21:34.000Z</time>
      </trkpt>
      <trkpt lat="48.70031" lon="1.73131">
        <ele>182.80000305176</ele>
        <time>2012-07-25T10:21:40.000Z</time>
      </trkpt>
      <trkpt lat="48.70027" lon="1.73143">
        <ele>182.60000610352</ele>
        <time>2012-07-25T10:21:46.000Z</time>
      </trkpt>
      <trkpt lat="48.70023" lon="1.73153">
        <ele>182.19999694824</ele>
        <time>2012-07-25T10:21:51.000Z</time>
      </trkpt>
      <trkpt lat="48.70018" lon="1.7317">
        <ele>181.60000610352</ele>
        <time>2012-07-25T10:21:57.000Z</time>
      </trkpt>
      <trkpt lat="48.70012" lon="1.73182">
        <ele>181.19999694824</ele>
        <time>2012-07-25T10:22:04.000Z</time>
      </trkpt>
      <trkpt lat="48.70003" lon="1.73197">
        <ele>180.60000610352</ele>
        <time>2012-07-25T10:22:13.000Z</time>
      </trkpt>
      <trkpt lat="48.69996" lon="1.73212">
        <ele>179.60000610352</ele>
        <time>2012-07-25T10:22:21.000Z</time>
      </trkpt>
      <trkpt lat="48.69988" lon="1.73227">
        <ele>178.60000610352</ele>
        <time>2012-07-25T10:22:29.000Z</time>
      </trkpt>
      <trkpt lat="48.69981" lon="1.73238">
        <ele>177.80000305176</ele>
        <time>2012-07-25T10:22:35.000Z</time>
      </trkpt>
      <trkpt lat="48.69974" lon="1.73253">
        <ele>177.19999694824</ele>
        <time>2012-07-25T10:22:42.000Z</time>
      </trkpt>
      <trkpt lat="48.69965" lon="1.73272">
        <ele>177.19999694824</ele>
        <time>2012-07-25T10:22:51.000Z</time>
      </trkpt>
      <trkpt lat="48.6996" lon="1.73283">
        <ele>177.19999694824</ele>
        <time>2012-07-25T10:22:56.000Z</time>
      </trkpt>
      <trkpt lat="48.6995" lon="1.73304">
        <ele>177.19999694824</ele>
        <time>2012-07-25T10:23:05.000Z</time>
      </trkpt>
      <trkpt lat="48.69942" lon="1.73319">
        <ele>177.39999389648</ele>
        <time>2012-07-25T10:23:12.000Z</time>
      </trkpt>
      <trkpt lat="48.69933" lon="1.73336">
        <ele>177.39999389648</ele>
        <time>2012-07-25T10:23:20.000Z</time>
      </trkpt>
      <trkpt lat="48.69923" lon="1.73357">
        <ele>177.60000610352</ele>
        <time>2012-07-25T10:23:27.000Z</time>
      </trkpt>
      <trkpt lat="48.69916" lon="1.7337">
        <ele>177.80000305176</ele>
        <time>2012-07-25T10:23:34.000Z</time>
      </trkpt>
      <trkpt lat="48.69909" lon="1.73385">
        <ele>178.19999694824</ele>
        <time>2012-07-25T10:23:42.000Z</time>
      </trkpt>
      <trkpt lat="48.69903" lon="1.73398">
        <ele>178.60000610352</ele>
        <time>2012-07-25T10:23:49.000Z</time>
      </trkpt>
      <trkpt lat="48.69898" lon="1.7341">
        <ele>178.80000305176</ele>
        <time>2012-07-25T10:23:56.000Z</time>
      </trkpt>
      <trkpt lat="48.6989" lon="1.73424">
        <ele>178.80000305176</ele>
        <time>2012-07-25T10:24:04.000Z</time>
      </trkpt>
      <trkpt lat="48.69884" lon="1.73437">
        <ele>178.60000610352</ele>
        <time>2012-07-25T10:24:11.000Z</time>
      </trkpt>
      <trkpt lat="48.69883" lon="1.73442">
        <ele>178.39999389648</ele>
        <time>2012-07-25T10:24:13.000Z</time>
      </trkpt>
      <trkpt lat="48.69875" lon="1.73456">
        <ele>178.19999694824</ele>
        <time>2012-07-25T10:24:20.000Z</time>
      </trkpt>
      <trkpt lat="48.69868" lon="1.73469">
        <ele>178.19999694824</ele>
        <time>2012-07-25T10:24:27.000Z</time>
      </trkpt>
      <trkpt lat="48.69865" lon="1.73477">
        <ele>178.19999694824</ele>
        <time>2012-07-25T10:24:32.000Z</time>
      </trkpt>
      <trkpt lat="48.69858" lon="1.73493">
        <ele>178.19999694824</ele>
        <time>2012-07-25T10:24:38.000Z</time>
      </trkpt>
      <trkpt lat="48.69852" lon="1.73502">
        <ele>178.39999389648</ele>
        <time>2012-07-25T10:24:43.000Z</time>
      </trkpt>
      <trkpt lat="48.69851" lon="1.73503">
        <ele>178.39999389648</ele>
        <time>2012-07-25T10:24:44.000Z</time>
      </trkpt>
      <trkpt lat="48.69844" lon="1.73517">
        <ele>178.60000610352</ele>
        <time>2012-07-25T10:24:51.000Z</time>
      </trkpt>
      <trkpt lat="48.69839" lon="1.73525">
        <ele>178.80000305176</ele>
        <time>2012-07-25T10:24:55.000Z</time>
      </trkpt>
      <trkpt lat="48.69832" lon="1.73539">
        <ele>179</ele>
        <time>2012-07-25T10:25:03.000Z</time>
      </trkpt>
      <trkpt lat="48.69826" lon="1.7355">
        <ele>179</ele>
        <time>2012-07-25T10:25:09.000Z</time>
      </trkpt>
      <trkpt lat="48.69819" lon="1.73562">
        <ele>179</ele>
        <time>2012-07-25T10:25:16.000Z</time>
      </trkpt>
      <trkpt lat="48.69809" lon="1.73583">
        <ele>179</ele>
        <time>2012-07-25T10:25:26.000Z</time>
      </trkpt>
      <trkpt lat="48.69803" lon="1.73595">
        <ele>179</ele>
        <time>2012-07-25T10:25:32.000Z</time>
      </trkpt>
      <trkpt lat="48.69795" lon="1.73609">
        <ele>179.19999694824</ele>
        <time>2012-07-25T10:25:39.000Z</time>
      </trkpt>
      <trkpt lat="48.69789" lon="1.73622">
        <ele>179.19999694824</ele>
        <time>2012-07-25T10:25:46.000Z</time>
      </trkpt>
      <trkpt lat="48.69782" lon="1.73637">
        <ele>179.39999389648</ele>
        <time>2012-07-25T10:25:53.000Z</time>
      </trkpt>
      <trkpt lat="48.69781" lon="1.73653">
        <ele>179.60000610352</ele>
        <time>2012-07-25T10:26:00.000Z</time>
      </trkpt>
      <trkpt lat="48.69782" lon="1.7366">
        <ele>179.60000610352</ele>
        <time>2012-07-25T10:26:02.000Z</time>
      </trkpt>
      <trkpt lat="48.69787" lon="1.7367">
        <ele>179.39999389648</ele>
        <time>2012-07-25T10:26:07.000Z</time>
      </trkpt>
      <trkpt lat="48.69791" lon="1.73672">
        <ele>179.39999389648</ele>
        <time>2012-07-25T10:26:11.000Z</time>
      </trkpt>
      <trkpt lat="48.69802" lon="1.73675">
        <ele>179.19999694824</ele>
        <time>2012-07-25T10:26:19.000Z</time>
      </trkpt>
      <trkpt lat="48.69811" lon="1.73678">
        <ele>179</ele>
        <time>2012-07-25T10:26:25.000Z</time>
      </trkpt>
      <trkpt lat="48.69825" lon="1.73678">
        <ele>179</ele>
        <time>2012-07-25T10:26:32.000Z</time>
      </trkpt>
      <trkpt lat="48.69835" lon="1.7368">
        <ele>178.80000305176</ele>
        <time>2012-07-25T10:26:38.000Z</time>
      </trkpt>
      <trkpt lat="48.69838" lon="1.7368">
        <ele>178.80000305176</ele>
        <time>2012-07-25T10:26:40.000Z</time>
      </trkpt>
      <trkpt lat="48.69851" lon="1.73682">
        <ele>178.39999389648</ele>
        <time>2012-07-25T10:26:47.000Z</time>
      </trkpt>
      <trkpt lat="48.69865" lon="1.73682">
        <ele>178.19999694824</ele>
        <time>2012-07-25T10:26:53.000Z</time>
      </trkpt>
      <trkpt lat="48.69879" lon="1.73684">
        <ele>177.80000305176</ele>
        <time>2012-07-25T10:27:00.000Z</time>
      </trkpt>
      <trkpt lat="48.6989" lon="1.73684">
        <ele>177.60000610352</ele>
        <time>2012-07-25T10:27:05.000Z</time>
      </trkpt>
      <trkpt lat="48.69898" lon="1.73686">
        <ele>177.39999389648</ele>
        <time>2012-07-25T10:27:11.000Z</time>
      </trkpt>
      <trkpt lat="48.69908" lon="1.73687">
        <ele>177.19999694824</ele>
        <time>2012-07-25T10:27:18.000Z</time>
      </trkpt>
      <trkpt lat="48.69921" lon="1.73688">
        <ele>177</ele>
        <time>2012-07-25T10:27:26.000Z</time>
      </trkpt>
      <trkpt lat="48.69927" lon="1.73689">
        <ele>177.19999694824</ele>
        <time>2012-07-25T10:27:30.000Z</time>
      </trkpt>
      <trkpt lat="48.69938" lon="1.73693">
        <ele>177.39999389648</ele>
        <time>2012-07-25T10:27:36.000Z</time>
      </trkpt>
      <trkpt lat="48.69951" lon="1.73695">
        <ele>177.60000610352</ele>
        <time>2012-07-25T10:27:42.000Z</time>
      </trkpt>
      <trkpt lat="48.69959" lon="1.73694">
        <ele>177.80000305176</ele>
        <time>2012-07-25T10:27:47.000Z</time>
      </trkpt>
      <trkpt lat="48.69967" lon="1.73695">
        <ele>178</ele>
        <time>2012-07-25T10:27:54.000Z</time>
      </trkpt>
      <trkpt lat="48.69977" lon="1.73697">
        <ele>178.19999694824</ele>
        <time>2012-07-25T10:28:01.000Z</time>
      </trkpt>
      <trkpt lat="48.69989" lon="1.73697">
        <ele>178.39999389648</ele>
        <time>2012-07-25T10:28:09.000Z</time>
      </trkpt>
      <trkpt lat="48.70005" lon="1.73696">
        <ele>178.60000610352</ele>
        <time>2012-07-25T10:28:17.000Z</time>
      </trkpt>
      <trkpt lat="48.70015" lon="1.73697">
        <ele>178.39999389648</ele>
        <time>2012-07-25T10:28:24.000Z</time>
      </trkpt>
      <trkpt lat="48.70023" lon="1.73699">
        <ele>178.19999694824</ele>
        <time>2012-07-25T10:28:31.000Z</time>
      </trkpt>
      <trkpt lat="48.7003" lon="1.73703">
        <ele>178</ele>
        <time>2012-07-25T10:28:36.000Z</time>
      </trkpt>
      <trkpt lat="48.70042" lon="1.73704">
        <ele>177.80000305176</ele>
        <time>2012-07-25T10:28:44.000Z</time>
      </trkpt>
      <trkpt lat="48.70055" lon="1.73703">
        <ele>177.60000610352</ele>
        <time>2012-07-25T10:28:50.000Z</time>
      </trkpt>
      <trkpt lat="48.70062" lon="1.73704">
        <ele>177.39999389648</ele>
        <time>2012-07-25T10:28:54.000Z</time>
      </trkpt>
      <trkpt lat="48.70076" lon="1.73705">
        <ele>177.19999694824</ele>
        <time>2012-07-25T10:29:01.000Z</time>
      </trkpt>
      <trkpt lat="48.70084" lon="1.73705">
        <ele>177</ele>
        <time>2012-07-25T10:29:05.000Z</time>
      </trkpt>
      <trkpt lat="48.70095" lon="1.73705">
        <ele>177.19999694824</ele>
        <time>2012-07-25T10:29:12.000Z</time>
      </trkpt>
      <trkpt lat="48.70102" lon="1.73713">
        <ele>177.39999389648</ele>
        <time>2012-07-25T10:29:19.000Z</time>
      </trkpt>
      <trkpt lat="48.7011" lon="1.73713">
        <ele>177.39999389648</ele>
        <time>2012-07-25T10:29:25.000Z</time>
      </trkpt>
      <trkpt lat="48.70125" lon="1.7371">
        <ele>177.80000305176</ele>
        <time>2012-07-25T10:29:32.000Z</time>
      </trkpt>
      <trkpt lat="48.70139" lon="1.73708">
        <ele>178</ele>
        <time>2012-07-25T10:29:40.000Z</time>
      </trkpt>
      <trkpt lat="48.70151" lon="1.73711">
        <ele>178.19999694824</ele>
        <time>2012-07-25T10:29:47.000Z</time>
      </trkpt>
      <trkpt lat="48.70162" lon="1.73714">
        <ele>178.39999389648</ele>
        <time>2012-07-25T10:29:54.000Z</time>
      </trkpt>
      <trkpt lat="48.70176" lon="1.73716">
        <ele>178.39999389648</ele>
        <time>2012-07-25T10:30:03.000Z</time>
      </trkpt>
      <trkpt lat="48.70188" lon="1.7372">
        <ele>178.39999389648</ele>
        <time>2012-07-25T10:30:10.000Z</time>
      </trkpt>
      <trkpt lat="48.70199" lon="1.73721">
        <ele>178.39999389648</ele>
        <time>2012-07-25T10:30:17.000Z</time>
      </trkpt>
      <trkpt lat="48.70208" lon="1.73723">
        <ele>178.39999389648</ele>
        <time>2012-07-25T10:30:23.000Z</time>
      </trkpt>
      <trkpt lat="48.70221" lon="1.73725">
        <ele>178.39999389648</ele>
        <time>2012-07-25T10:30:31.000Z</time>
      </trkpt>
      <trkpt lat="48.70229" lon="1.73726">
        <ele>178.60000610352</ele>
        <time>2012-07-25T10:30:37.000Z</time>
      </trkpt>
      <trkpt lat="48.70241" lon="1.73725">
        <ele>178.60000610352</ele>
        <time>2012-07-25T10:30:43.000Z</time>
      </trkpt>
      <trkpt lat="48.70249" lon="1.73724">
        <ele>178.60000610352</ele>
        <time>2012-07-25T10:30:47.000Z</time>
      </trkpt>
      <trkpt lat="48.70256" lon="1.73725">
        <ele>178.60000610352</ele>
        <time>2012-07-25T10:30:53.000Z</time>
      </trkpt>
      <trkpt lat="48.70265" lon="1.73727">
        <ele>178.60000610352</ele>
        <time>2012-07-25T10:30:59.000Z</time>
      </trkpt>
      <trkpt lat="48.7027" lon="1.73739">
        <ele>178.39999389648</ele>
        <time>2012-07-25T10:31:04.000Z</time>
      </trkpt>
      <trkpt lat="48.70272" lon="1.73742">
        <ele>178.39999389648</ele>
        <time>2012-07-25T10:31:06.000Z</time>
      </trkpt>
      <trkpt lat="48.70273" lon="1.73755">
        <ele>178.19999694824</ele>
        <time>2012-07-25T10:31:13.000Z</time>
      </trkpt>
      <trkpt lat="48.70273" lon="1.73757">
        <ele>178.19999694824</ele>
        <time>2012-07-25T10:31:14.000Z</time>
      </trkpt>
      <trkpt lat="48.70273" lon="1.73774">
        <ele>178.19999694824</ele>
        <time>2012-07-25T10:31:21.000Z</time>
      </trkpt>
      <trkpt lat="48.70272" lon="1.73792">
        <ele>178</ele>
        <time>2012-07-25T10:31:29.000Z</time>
      </trkpt>
      <trkpt lat="48.7027" lon="1.73799">
        <ele>178</ele>
        <time>2012-07-25T10:31:32.000Z</time>
      </trkpt>
      <trkpt lat="48.70269" lon="1.73815">
        <ele>177.80000305176</ele>
        <time>2012-07-25T10:31:38.000Z</time>
      </trkpt>
      <trkpt lat="48.70264" lon="1.73838">
        <ele>177.80000305176</ele>
        <time>2012-07-25T10:31:46.000Z</time>
      </trkpt>
      <trkpt lat="48.70258" lon="1.73853">
        <ele>178</ele>
        <time>2012-07-25T10:31:54.000Z</time>
      </trkpt>
      <trkpt lat="48.70255" lon="1.73867">
        <ele>178</ele>
        <time>2012-07-25T10:32:01.000Z</time>
      </trkpt>
      <trkpt lat="48.70253" lon="1.73882">
        <ele>178</ele>
        <time>2012-07-25T10:32:07.000Z</time>
      </trkpt>
      <trkpt lat="48.70252" lon="1.73898">
        <ele>178</ele>
        <time>2012-07-25T10:32:13.000Z</time>
      </trkpt>
      <trkpt lat="48.70245" lon="1.73912">
        <ele>178</ele>
        <time>2012-07-25T10:32:20.000Z</time>
      </trkpt>
      <trkpt lat="48.70238" lon="1.73923">
        <ele>178.19999694824</ele>
        <time>2012-07-25T10:32:26.000Z</time>
      </trkpt>
      <trkpt lat="48.70229" lon="1.73931">
        <ele>178.39999389648</ele>
        <time>2012-07-25T10:32:32.000Z</time>
      </trkpt>
      <trkpt lat="48.70222" lon="1.73938">
        <ele>178.60000610352</ele>
        <time>2012-07-25T10:32:38.000Z</time>
      </trkpt>
      <trkpt lat="48.70216" lon="1.7395">
        <ele>178.80000305176</ele>
        <time>2012-07-25T10:32:45.000Z</time>
      </trkpt>
      <trkpt lat="48.70213" lon="1.73958">
        <ele>179</ele>
        <time>2012-07-25T10:32:50.000Z</time>
      </trkpt>
      <trkpt lat="48.70203" lon="1.73971">
        <ele>179.19999694824</ele>
        <time>2012-07-25T10:32:56.000Z</time>
      </trkpt>
      <trkpt lat="48.70197" lon="1.73976">
        <ele>179.19999694824</ele>
        <time>2012-07-25T10:32:59.000Z</time>
      </trkpt>
      <trkpt lat="48.70193" lon="1.73988">
        <ele>179.39999389648</ele>
        <time>2012-07-25T10:33:05.000Z</time>
      </trkpt>
      <trkpt lat="48.70187" lon="1.73999">
        <ele>179.39999389648</ele>
        <time>2012-07-25T10:33:10.000Z</time>
      </trkpt>
      <trkpt lat="48.70185" lon="1.74001">
        <ele>179.39999389648</ele>
        <time>2012-07-25T10:33:11.000Z</time>
      </trkpt>
      <trkpt lat="48.70185" lon="1.74014">
        <ele>179.39999389648</ele>
        <time>2012-07-25T10:33:16.000Z</time>
      </trkpt>
      <trkpt lat="48.70186" lon="1.74023">
        <ele>179.60000610352</ele>
        <time>2012-07-25T10:33:20.000Z</time>
      </trkpt>
      <trkpt lat="48.70179" lon="1.74034">
        <ele>179.39999389648</ele>
        <time>2012-07-25T10:33:27.000Z</time>
      </trkpt>
      <trkpt lat="48.70178" lon="1.74036">
        <ele>179.39999389648</ele>
        <time>2012-07-25T10:33:28.000Z</time>
      </trkpt>
      <trkpt lat="48.70178" lon="1.74048">
        <ele>179.39999389648</ele>
        <time>2012-07-25T10:33:33.000Z</time>
      </trkpt>
      <trkpt lat="48.70178" lon="1.74051">
        <ele>179.39999389648</ele>
        <time>2012-07-25T10:33:34.000Z</time>
      </trkpt>
      <trkpt lat="48.70182" lon="1.7407">
        <ele>179.60000610352</ele>
        <time>2012-07-25T10:33:42.000Z</time>
      </trkpt>
      <trkpt lat="48.70189" lon="1.74089">
        <ele>179.80000305176</ele>
        <time>2012-07-25T10:33:49.000Z</time>
      </trkpt>
      <trkpt lat="48.70188" lon="1.74105">
        <ele>179.80000305176</ele>
        <time>2012-07-25T10:33:55.000Z</time>
      </trkpt>
      <trkpt lat="48.70189" lon="1.74117">
        <ele>179.80000305176</ele>
        <time>2012-07-25T10:34:00.000Z</time>
      </trkpt>
      <trkpt lat="48.70194" lon="1.74133">
        <ele>179.80000305176</ele>
        <time>2012-07-25T10:34:07.000Z</time>
      </trkpt>
      <trkpt lat="48.70197" lon="1.74147">
        <ele>179.80000305176</ele>
        <time>2012-07-25T10:34:13.000Z</time>
      </trkpt>
      <trkpt lat="48.70201" lon="1.74162">
        <ele>179.80000305176</ele>
        <time>2012-07-25T10:34:18.000Z</time>
      </trkpt>
      <trkpt lat="48.70206" lon="1.74174">
        <ele>179.80000305176</ele>
        <time>2012-07-25T10:34:24.000Z</time>
      </trkpt>
      <trkpt lat="48.7021" lon="1.74193">
        <ele>179.60000610352</ele>
        <time>2012-07-25T10:34:32.000Z</time>
      </trkpt>
      <trkpt lat="48.70216" lon="1.74207">
        <ele>179.39999389648</ele>
        <time>2012-07-25T10:34:38.000Z</time>
      </trkpt>
      <trkpt lat="48.70217" lon="1.7421">
        <ele>179.39999389648</ele>
        <time>2012-07-25T10:34:39.000Z</time>
      </trkpt>
      <trkpt lat="48.70224" lon="1.74218">
        <ele>179.60000610352</ele>
        <time>2012-07-25T10:34:44.000Z</time>
      </trkpt>
      <trkpt lat="48.70237" lon="1.74226">
        <ele>179.80000305176</ele>
        <time>2012-07-25T10:34:51.000Z</time>
      </trkpt>
      <trkpt lat="48.70248" lon="1.74236">
        <ele>180.19999694824</ele>
        <time>2012-07-25T10:34:57.000Z</time>
      </trkpt>
      <trkpt lat="48.70252" lon="1.7424">
        <ele>180</ele>
        <time>2012-07-25T10:34:59.000Z</time>
      </trkpt>
      <trkpt lat="48.70258" lon="1.7426">
        <ele>179.80000305176</ele>
        <time>2012-07-25T10:35:07.000Z</time>
      </trkpt>
      <trkpt lat="48.7026" lon="1.74277">
        <ele>179.60000610352</ele>
        <time>2012-07-25T10:35:14.000Z</time>
      </trkpt>
      <trkpt lat="48.70261" lon="1.74291">
        <ele>179.39999389648</ele>
        <time>2012-07-25T10:35:20.000Z</time>
      </trkpt>
      <trkpt lat="48.70261" lon="1.74303">
        <ele>179.39999389648</ele>
        <time>2012-07-25T10:35:25.000Z</time>
      </trkpt>
      <trkpt lat="48.70263" lon="1.74319">
        <ele>179.19999694824</ele>
        <time>2012-07-25T10:35:32.000Z</time>
      </trkpt>
      <trkpt lat="48.70263" lon="1.74335">
        <ele>179</ele>
        <time>2012-07-25T10:35:38.000Z</time>
      </trkpt>
      <trkpt lat="48.70263" lon="1.74351">
        <ele>178.19999694824</ele>
        <time>2012-07-25T10:35:44.000Z</time>
      </trkpt>
      <trkpt lat="48.70267" lon="1.7436">
        <ele>177.80000305176</ele>
        <time>2012-07-25T10:35:48.000Z</time>
      </trkpt>
      <trkpt lat="48.70274" lon="1.74378">
        <ele>176.80000305176</ele>
        <time>2012-07-25T10:35:56.000Z</time>
      </trkpt>
      <trkpt lat="48.70278" lon="1.7439">
        <ele>176.19999694824</ele>
        <time>2012-07-25T10:36:01.000Z</time>
      </trkpt>
      <trkpt lat="48.7028" lon="1.74408">
        <ele>175.39999389648</ele>
        <time>2012-07-25T10:36:08.000Z</time>
      </trkpt>
      <trkpt lat="48.70281" lon="1.74422">
        <ele>174.80000305176</ele>
        <time>2012-07-25T10:36:13.000Z</time>
      </trkpt>
      <trkpt lat="48.70282" lon="1.74441">
        <ele>174.39999389648</ele>
        <time>2012-07-25T10:36:20.000Z</time>
      </trkpt>
      <trkpt lat="48.7028" lon="1.74454">
        <ele>174</ele>
        <time>2012-07-25T10:36:25.000Z</time>
      </trkpt>
      <trkpt lat="48.70279" lon="1.74471">
        <ele>173.60000610352</ele>
        <time>2012-07-25T10:36:32.000Z</time>
      </trkpt>
      <trkpt lat="48.7028" lon="1.74489">
        <ele>173.19999694824</ele>
        <time>2012-07-25T10:36:38.000Z</time>
      </trkpt>
      <trkpt lat="48.70282" lon="1.74507">
        <ele>172.80000305176</ele>
        <time>2012-07-25T10:36:45.000Z</time>
      </trkpt>
      <trkpt lat="48.70283" lon="1.74509">
        <ele>172.80000305176</ele>
        <time>2012-07-25T10:36:46.000Z</time>
      </trkpt>
      <trkpt lat="48.70286" lon="1.74522">
        <ele>172.39999389648</ele>
        <time>2012-07-25T10:36:52.000Z</time>
      </trkpt>
      <trkpt lat="48.70289" lon="1.74529">
        <ele>172.19999694824</ele>
        <time>2012-07-25T10:36:56.000Z</time>
      </trkpt>
      <trkpt lat="48.70291" lon="1.74544">
        <ele>172</ele>
        <time>2012-07-25T10:37:01.000Z</time>
      </trkpt>
      <trkpt lat="48.70297" lon="1.74564">
        <ele>171.60000610352</ele>
        <time>2012-07-25T10:37:09.000Z</time>
      </trkpt>
      <trkpt lat="48.70299" lon="1.7458">
        <ele>171.39999389648</ele>
        <time>2012-07-25T10:37:16.000Z</time>
      </trkpt>
      <trkpt lat="48.70299" lon="1.74582">
        <ele>171.39999389648</ele>
        <time>2012-07-25T10:37:17.000Z</time>
      </trkpt>
      <trkpt lat="48.70301" lon="1.74596">
        <ele>171</ele>
        <time>2012-07-25T10:37:22.000Z</time>
      </trkpt>
      <trkpt lat="48.70306" lon="1.74614">
        <ele>170.60000610352</ele>
        <time>2012-07-25T10:37:30.000Z</time>
      </trkpt>
      <trkpt lat="48.7031" lon="1.74632">
        <ele>170</ele>
        <time>2012-07-25T10:37:38.000Z</time>
      </trkpt>
      <trkpt lat="48.70311" lon="1.74643">
        <ele>169.60000610352</ele>
        <time>2012-07-25T10:37:43.000Z</time>
      </trkpt>
      <trkpt lat="48.70305" lon="1.74649">
        <ele>169.39999389648</ele>
        <time>2012-07-25T10:37:48.000Z</time>
      </trkpt>
      <trkpt lat="48.70294" lon="1.74656">
        <ele>168.80000305176</ele>
        <time>2012-07-25T10:37:56.000Z</time>
      </trkpt>
      <trkpt lat="48.70292" lon="1.74656">
        <ele>168.80000305176</ele>
        <time>2012-07-25T10:37:58.000Z</time>
      </trkpt>
      <trkpt lat="48.7029" lon="1.74669">
        <ele>168.60000610352</ele>
        <time>2012-07-25T10:38:04.000Z</time>
      </trkpt>
      <trkpt lat="48.70285" lon="1.74689">
        <ele>168.80000305176</ele>
        <time>2012-07-25T10:38:12.000Z</time>
      </trkpt>
      <trkpt lat="48.70282" lon="1.74705">
        <ele>169</ele>
        <time>2012-07-25T10:38:20.000Z</time>
      </trkpt>
      <trkpt lat="48.7028" lon="1.74722">
        <ele>169.39999389648</ele>
        <time>2012-07-25T10:38:26.000Z</time>
      </trkpt>
      <trkpt lat="48.70275" lon="1.74742">
        <ele>170</ele>
        <time>2012-07-25T10:38:33.000Z</time>
      </trkpt>
      <trkpt lat="48.70274" lon="1.7476">
        <ele>170.39999389648</ele>
        <time>2012-07-25T10:38:40.000Z</time>
      </trkpt>
      <trkpt lat="48.70271" lon="1.74778">
        <ele>170.80000305176</ele>
        <time>2012-07-25T10:38:48.000Z</time>
      </trkpt>
      <trkpt lat="48.70268" lon="1.74798">
        <ele>171.39999389648</ele>
        <time>2012-07-25T10:38:56.000Z</time>
      </trkpt>
      <trkpt lat="48.70264" lon="1.74822">
        <ele>172</ele>
        <time>2012-07-25T10:39:05.000Z</time>
      </trkpt>
      <trkpt lat="48.7026" lon="1.74851">
        <ele>172.60000610352</ele>
        <time>2012-07-25T10:39:17.000Z</time>
      </trkpt>
      <trkpt lat="48.70258" lon="1.74871">
        <ele>172.80000305176</ele>
        <time>2012-07-25T10:39:25.000Z</time>
      </trkpt>
      <trkpt lat="48.70254" lon="1.74889">
        <ele>172.80000305176</ele>
        <time>2012-07-25T10:39:33.000Z</time>
      </trkpt>
      <trkpt lat="48.7025" lon="1.74913">
        <ele>173</ele>
        <time>2012-07-25T10:39:43.000Z</time>
      </trkpt>
      <trkpt lat="48.70248" lon="1.74935">
        <ele>174</ele>
        <time>2012-07-25T10:39:52.000Z</time>
      </trkpt>
      <trkpt lat="48.70244" lon="1.74953">
        <ele>175</ele>
        <time>2012-07-25T10:40:00.000Z</time>
      </trkpt>
      <trkpt lat="48.70242" lon="1.74968">
        <ele>175.60000610352</ele>
        <time>2012-07-25T10:40:07.000Z</time>
      </trkpt>
      <trkpt lat="48.7024" lon="1.74983">
        <ele>176.39999389648</ele>
        <time>2012-07-25T10:40:13.000Z</time>
      </trkpt>
      <trkpt lat="48.70237" lon="1.74998">
        <ele>177</ele>
        <time>2012-07-25T10:40:19.000Z</time>
      </trkpt>
      <trkpt lat="48.70234" lon="1.75013">
        <ele>177.39999389648</ele>
        <time>2012-07-25T10:40:26.000Z</time>
      </trkpt>
      <trkpt lat="48.70232" lon="1.75021">
        <ele>177.60000610352</ele>
        <time>2012-07-25T10:40:31.000Z</time>
      </trkpt>
      <trkpt lat="48.70228" lon="1.75037">
        <ele>178</ele>
        <time>2012-07-25T10:40:38.000Z</time>
      </trkpt>
      <trkpt lat="48.70229" lon="1.75048">
        <ele>178.19999694824</ele>
        <time>2012-07-25T10:40:44.000Z</time>
      </trkpt>
      <trkpt lat="48.70226" lon="1.75067">
        <ele>178.39999389648</ele>
        <time>2012-07-25T10:40:50.000Z</time>
      </trkpt>
      <trkpt lat="48.70222" lon="1.75082">
        <ele>178.60000610352</ele>
        <time>2012-07-25T10:40:55.000Z</time>
      </trkpt>
      <trkpt lat="48.70218" lon="1.75099">
        <ele>178.39999389648</ele>
        <time>2012-07-25T10:41:01.000Z</time>
      </trkpt>
      <trkpt lat="48.70217" lon="1.7511">
        <ele>178.39999389648</ele>
        <time>2012-07-25T10:41:06.000Z</time>
      </trkpt>
      <trkpt lat="48.70213" lon="1.7513">
        <ele>178</ele>
        <time>2012-07-25T10:41:13.000Z</time>
      </trkpt>
      <trkpt lat="48.7021" lon="1.75147">
        <ele>177.80000305176</ele>
        <time>2012-07-25T10:41:19.000Z</time>
      </trkpt>
      <trkpt lat="48.70205" lon="1.75164">
        <ele>177.39999389648</ele>
        <time>2012-07-25T10:41:26.000Z</time>
      </trkpt>
      <trkpt lat="48.70204" lon="1.7517">
        <ele>177.39999389648</ele>
        <time>2012-07-25T10:41:28.000Z</time>
      </trkpt>
      <trkpt lat="48.70203" lon="1.75179">
        <ele>177.39999389648</ele>
        <time>2012-07-25T10:41:32.000Z</time>
      </trkpt>
      <trkpt lat="48.70203" lon="1.75193">
        <ele>177.39999389648</ele>
        <time>2012-07-25T10:41:38.000Z</time>
      </trkpt>
      <trkpt lat="48.70201" lon="1.75206">
        <ele>177.39999389648</ele>
        <time>2012-07-25T10:41:44.000Z</time>
      </trkpt>
      <trkpt lat="48.702" lon="1.75224">
        <ele>177.39999389648</ele>
        <time>2012-07-25T10:41:51.000Z</time>
      </trkpt>
      <trkpt lat="48.70203" lon="1.75234">
        <ele>177.60000610352</ele>
        <time>2012-07-25T10:41:56.000Z</time>
      </trkpt>
      <trkpt lat="48.70207" lon="1.75237">
        <ele>177.80000305176</ele>
        <time>2012-07-25T10:42:00.000Z</time>
      </trkpt>
      <trkpt lat="48.70219" lon="1.75237">
        <ele>178.39999389648</ele>
        <time>2012-07-25T10:42:09.000Z</time>
      </trkpt>
      <trkpt lat="48.7023" lon="1.75242">
        <ele>179</ele>
        <time>2012-07-25T10:42:15.000Z</time>
      </trkpt>
      <trkpt lat="48.70237" lon="1.75248">
        <ele>179.39999389648</ele>
        <time>2012-07-25T10:42:21.000Z</time>
      </trkpt>
      <trkpt lat="48.70248" lon="1.75256">
        <ele>179.80000305176</ele>
        <time>2012-07-25T10:42:27.000Z</time>
      </trkpt>
      <trkpt lat="48.70267" lon="1.75265">
        <ele>180.19999694824</ele>
        <time>2012-07-25T10:42:34.000Z</time>
      </trkpt>
      <trkpt lat="48.70273" lon="1.75269">
        <ele>180.39999389648</ele>
        <time>2012-07-25T10:42:37.000Z</time>
      </trkpt>
      <trkpt lat="48.70283" lon="1.75277">
        <ele>180.39999389648</ele>
        <time>2012-07-25T10:42:44.000Z</time>
      </trkpt>
      <trkpt lat="48.7029" lon="1.75285">
        <ele>180.60000610352</ele>
        <time>2012-07-25T10:42:51.000Z</time>
      </trkpt>
      <trkpt lat="48.70293" lon="1.7529">
        <ele>180.60000610352</ele>
        <time>2012-07-25T10:42:56.000Z</time>
      </trkpt>
      <trkpt lat="48.70296" lon="1.75294">
        <ele>180.60000610352</ele>
        <time>2012-07-25T10:43:00.000Z</time>
      </trkpt>
      <trkpt lat="48.70305" lon="1.75309">
        <ele>180.60000610352</ele>
        <time>2012-07-25T10:43:08.000Z</time>
      </trkpt>
      <trkpt lat="48.70306" lon="1.75313">
        <ele>180.60000610352</ele>
        <time>2012-07-25T10:43:10.000Z</time>
      </trkpt>
      <trkpt lat="48.70313" lon="1.75329">
        <ele>180.60000610352</ele>
        <time>2012-07-25T10:43:17.000Z</time>
      </trkpt>
      <trkpt lat="48.70321" lon="1.75338">
        <ele>180.60000610352</ele>
        <time>2012-07-25T10:43:22.000Z</time>
      </trkpt>
      <trkpt lat="48.70329" lon="1.75347">
        <ele>180.80000305176</ele>
        <time>2012-07-25T10:43:29.000Z</time>
      </trkpt>
      <trkpt lat="48.70331" lon="1.75347">
        <ele>181</ele>
        <time>2012-07-25T10:43:30.000Z</time>
      </trkpt>
      <trkpt lat="48.70344" lon="1.75352">
        <ele>180.80000305176</ele>
        <time>2012-07-25T10:43:36.000Z</time>
      </trkpt>
      <trkpt lat="48.7035" lon="1.75359">
        <ele>180.60000610352</ele>
        <time>2012-07-25T10:43:41.000Z</time>
      </trkpt>
      <trkpt lat="48.70362" lon="1.7537">
        <ele>180.60000610352</ele>
        <time>2012-07-25T10:43:48.000Z</time>
      </trkpt>
      <trkpt lat="48.7037" lon="1.75381">
        <ele>180.60000610352</ele>
        <time>2012-07-25T10:43:55.000Z</time>
      </trkpt>
      <trkpt lat="48.7038" lon="1.75393">
        <ele>181</ele>
        <time>2012-07-25T10:44:04.000Z</time>
      </trkpt>
      <trkpt lat="48.70391" lon="1.75404">
        <ele>181.19999694824</ele>
        <time>2012-07-25T10:44:11.000Z</time>
      </trkpt>
      <trkpt lat="48.70399" lon="1.75407">
        <ele>181.39999389648</ele>
        <time>2012-07-25T10:44:17.000Z</time>
      </trkpt>
      <trkpt lat="48.70402" lon="1.75408">
        <ele>181.39999389648</ele>
        <time>2012-07-25T10:44:19.000Z</time>
      </trkpt>
      <trkpt lat="48.70412" lon="1.75414">
        <ele>181.80000305176</ele>
        <time>2012-07-25T10:44:26.000Z</time>
      </trkpt>
      <trkpt lat="48.70422" lon="1.7542">
        <ele>181.80000305176</ele>
        <time>2012-07-25T10:44:33.000Z</time>
      </trkpt>
      <trkpt lat="48.70423" lon="1.75421">
        <ele>181.60000610352</ele>
        <time>2012-07-25T10:44:34.000Z</time>
      </trkpt>
      <trkpt lat="48.70427" lon="1.75427">
        <ele>181.60000610352</ele>
        <time>2012-07-25T10:44:39.000Z</time>
      </trkpt>
      <trkpt lat="48.70431" lon="1.75431">
        <ele>181.39999389648</ele>
        <time>2012-07-25T10:44:43.000Z</time>
      </trkpt>
      <trkpt lat="48.70438" lon="1.7544">
        <ele>181.19999694824</ele>
        <time>2012-07-25T10:44:51.000Z</time>
      </trkpt>
      <trkpt lat="48.70439" lon="1.75441">
        <ele>181.19999694824</ele>
        <time>2012-07-25T10:44:52.000Z</time>
      </trkpt>
      <trkpt lat="48.70447" lon="1.75449">
        <ele>181</ele>
        <time>2012-07-25T10:44:59.000Z</time>
      </trkpt>
      <trkpt lat="48.70449" lon="1.75451">
        <ele>181</ele>
        <time>2012-07-25T10:45:00.000Z</time>
      </trkpt>
      <trkpt lat="48.70461" lon="1.7546">
        <ele>180.60000610352</ele>
        <time>2012-07-25T10:45:06.000Z</time>
      </trkpt>
      <trkpt lat="48.7047" lon="1.75467">
        <ele>180.60000610352</ele>
        <time>2012-07-25T10:45:13.000Z</time>
      </trkpt>
      <trkpt lat="48.70477" lon="1.75477">
        <ele>180.60000610352</ele>
        <time>2012-07-25T10:45:19.000Z</time>
      </trkpt>
      <trkpt lat="48.70482" lon="1.75483">
        <ele>180.80000305176</ele>
        <time>2012-07-25T10:45:22.000Z</time>
      </trkpt>
      <trkpt lat="48.70492" lon="1.75491">
        <ele>180.80000305176</ele>
        <time>2012-07-25T10:45:28.000Z</time>
      </trkpt>
      <trkpt lat="48.70496" lon="1.75492">
        <ele>180.60000610352</ele>
        <time>2012-07-25T10:45:30.000Z</time>
      </trkpt>
      <trkpt lat="48.70503" lon="1.75499">
        <ele>180.80000305176</ele>
        <time>2012-07-25T10:45:35.000Z</time>
      </trkpt>
      <trkpt lat="48.70515" lon="1.75511">
        <ele>180.39999389648</ele>
        <time>2012-07-25T10:45:43.000Z</time>
      </trkpt>
      <trkpt lat="48.70522" lon="1.75518">
        <ele>180.39999389648</ele>
        <time>2012-07-25T10:45:48.000Z</time>
      </trkpt>
      <trkpt lat="48.70523" lon="1.7552">
        <ele>180.39999389648</ele>
        <time>2012-07-25T10:45:49.000Z</time>
      </trkpt>
      <trkpt lat="48.70532" lon="1.75535">
        <ele>180.80000305176</ele>
        <time>2012-07-25T10:45:57.000Z</time>
      </trkpt>
      <trkpt lat="48.7054" lon="1.75549">
        <ele>181.39999389648</ele>
        <time>2012-07-25T10:46:05.000Z</time>
      </trkpt>
      <trkpt lat="48.70548" lon="1.75559">
        <ele>181.80000305176</ele>
        <time>2012-07-25T10:46:13.000Z</time>
      </trkpt>
      <trkpt lat="48.70555" lon="1.75566">
        <ele>182.19999694824</ele>
        <time>2012-07-25T10:46:19.000Z</time>
      </trkpt>
      <trkpt lat="48.70563" lon="1.75576">
        <ele>182.80000305176</ele>
        <time>2012-07-25T10:46:25.000Z</time>
      </trkpt>
      <trkpt lat="48.70579" lon="1.7559">
        <ele>183.19999694824</ele>
        <time>2012-07-25T10:46:33.000Z</time>
      </trkpt>
      <trkpt lat="48.70591" lon="1.75608">
        <ele>182.80000305176</ele>
        <time>2012-07-25T10:46:42.000Z</time>
      </trkpt>
      <trkpt lat="48.70599" lon="1.75618">
        <ele>182.19999694824</ele>
        <time>2012-07-25T10:46:48.000Z</time>
      </trkpt>
      <trkpt lat="48.70609" lon="1.75629">
        <ele>181.39999389648</ele>
        <time>2012-07-25T10:46:55.000Z</time>
      </trkpt>
      <trkpt lat="48.70619" lon="1.75643">
        <ele>180.39999389648</ele>
        <time>2012-07-25T10:47:03.000Z</time>
      </trkpt>
      <trkpt lat="48.70624" lon="1.75646">
        <ele>179.80000305176</ele>
        <time>2012-07-25T10:47:07.000Z</time>
      </trkpt>
      <trkpt lat="48.70626" lon="1.75647">
        <ele>179.60000610352</ele>
        <time>2012-07-25T10:47:12.000Z</time>
      </trkpt>
      <trkpt lat="48.70632" lon="1.75645">
        <ele>179</ele>
        <time>2012-07-25T10:47:26.000Z</time>
      </trkpt>
      <trkpt lat="48.70634" lon="1.75644">
        <ele>178.80000305176</ele>
        <time>2012-07-25T10:47:28.000Z</time>
      </trkpt>
      <trkpt lat="48.70633" lon="1.75647">
        <ele>178.80000305176</ele>
        <time>2012-07-25T10:47:33.000Z</time>
      </trkpt>
      <trkpt lat="48.7064" lon="1.75637">
        <ele>178</ele>
        <time>2012-07-25T10:48:11.000Z</time>
      </trkpt>
      <trkpt lat="48.70647" lon="1.7562">
        <ele>177.19999694824</ele>
        <time>2012-07-25T10:48:19.000Z</time>
      </trkpt>
      <trkpt lat="48.70654" lon="1.75604">
        <ele>176.39999389648</ele>
        <time>2012-07-25T10:48:27.000Z</time>
      </trkpt>
      <trkpt lat="48.70664" lon="1.75582">
        <ele>175.19999694824</ele>
        <time>2012-07-25T10:48:39.000Z</time>
      </trkpt>
      <trkpt lat="48.70671" lon="1.75567">
        <ele>174.39999389648</ele>
        <time>2012-07-25T10:48:48.000Z</time>
      </trkpt>
      <trkpt lat="48.70675" lon="1.75556">
        <ele>174</ele>
        <time>2012-07-25T10:48:53.000Z</time>
      </trkpt>
      <trkpt lat="48.70681" lon="1.75543">
        <ele>173.60000610352</ele>
        <time>2012-07-25T10:48:59.000Z</time>
      </trkpt>
      <trkpt lat="48.70682" lon="1.75539">
        <ele>173.39999389648</ele>
        <time>2012-07-25T10:49:01.000Z</time>
      </trkpt>
      <trkpt lat="48.70688" lon="1.75527">
        <ele>173</ele>
        <time>2012-07-25T10:49:08.000Z</time>
      </trkpt>
      <trkpt lat="48.70694" lon="1.75511">
        <ele>172.60000610352</ele>
        <time>2012-07-25T10:49:17.000Z</time>
      </trkpt>
      <trkpt lat="48.70697" lon="1.75499">
        <ele>172.19999694824</ele>
        <time>2012-07-25T10:49:23.000Z</time>
      </trkpt>
      <trkpt lat="48.70701" lon="1.7549">
        <ele>172</ele>
        <time>2012-07-25T10:49:28.000Z</time>
      </trkpt>
    </trkseg>
  </trk>
</gpx>